MPMG - Transparência

Contra-cheque - Remuneração de todos os servidores ativos - Pós Resolução CNMP 200/2019

Período: 2021 - Janeiro

<
Ordem Matrícula Nome Cargo Efetivo Lotação Rendimentos Descontos Rendimento Líquido Total *14 Data de Referência
Remuneração básica Remuneração eventual ou Temporária Outras Remunerações Temporárias *7 Verbas Indenizatórias *8 Total de Rendimentos Brutos *9 Obrigatórios Legais Outros Descontos Eventuais Total de descontos *13
Remuneração do Cargo Efetivo *1 Outras Verbas Remuneratórias *2 Função de Confiança ou Cargo em Comissão *3 Gratificação Natalina *4 Férias 1/3 Constitucional *5 Abono de Permanência *6 Contribuição Previdenciária *10 Imposto de Renda *11 Retenção por Teto Constitucional *12
1 498900 ABDON MARCIO BARBOSA DA SILVA OFICIAL DO MP ABRE CAMPO - COMARCA; ABRE CAMPO-PJ-01PJ 6.123,79 612,38 0,00 0,00 2.245,39 0,00 543,38 7.701,93 17.226,87 890,06 1.251,53 0,00 0,00 2.141,59 15.085,28 31/01/2021
2 177800 ADALBERTO MENEZES FARIA SAMORA OFICIAL DO MP BELO HORIZONTE - COMARCA; DIR ESTRUTURA E PROCESSOS ORGANIZACIONAIS 15.272,02 6.108,81 0,00 0,00 0,00 0,00 548,77 7.536,63 29.466,23 3.233,21 4.016,96 0,00 0,00 7.250,17 22.216,06 31/01/2021
3 306400 ADALBERTO MOREIRA GONCALVES ANALISTA DO MP BELO HORIZONTE - COMARCA; BH-24PJ JUIZO REG BARREIRO-SECRETARIA 16.750,82 5.025,25 0,00 0,00 0,00 0,00 479,07 6.776,26 29.031,40 3.296,45 4.212,54 0,00 0,00 7.508,99 21.522,41 31/01/2021
4 179300 ADENISE AUXILIADORA SOUZA SAD OFICIAL DO MP BARBACENA - COMARCA; BARBACENA-PJ-06PJ 14.790,66 5.916,26 0,00 0,00 0,00 0,00 531,48 7.347,94 28.586,34 3.125,38 3.861,29 0,00 0,00 6.986,67 21.599,67 31/01/2021
5 272200 ADILSON BATISTA ORNELAS OFICIAL DO MP LAVRAS - COMARCA; LAVRAS-PJ-SECRETARIA 5.136,32 1.540,90 0,00 457,13 171,21 0,00 2.367,15 7.425,95 17.098,66 880,63 672,57 0,00 0,00 1.553,20 15.545,46 31/01/2021
6 380100 ADILSON GONCALVES DE MELO JUNIOR ANALISTA DO MP ARAXÁ - COMARCA; ARAXA-PJ-05PJ 10.736,08 2.147,22 0,00 0,00 0,00 0,00 519,63 7.988,04 21.390,97 1.873,61 2.054,03 0,00 0,00 3.927,64 17.463,33 31/01/2021
7 148800 ADILSON JANUARIO OFICIAL DO MP BELO HORIZONTE - COMARCA; BH-22PJ PES COM DEF E IDOSOS-SECRETARIA 18.820,14 13.174,10 0,00 0,00 0,00 0,00 469,25 6.669,08 39.132,57 4.931,36 6.520,79 0,00 0,00 11.452,15 27.680,42 31/01/2021
8 322601 ADMILSON SILVEIRA ANALISTA DO MP SAO JOAO DO PARAISO COMARCA; SAO JOAO DO PARAISO-PJ-UNPJ 9.146,93 914,69 0,00 0,00 0,00 0,00 516,50 7.184,51 17.762,63 1.422,14 1.506,50 0,00 0,00 2.928,64 14.833,99 31/01/2021
9 333700 ADRIANA ABRITTA TEIXEIRA OFICIAL DO MP BELO HORIZONTE - COMARCA; DIRET DE PESSOAL DO MINISTERIO PUBLICO - DPMP 10.069,62 3.020,89 0,00 0,00 0,00 0,00 527,98 7.309,82 20.928,31 1.906,76 2.206,17 0,00 0,00 4.112,93 16.815,38 31/01/2021
10 468500 ADRIANA APARECIDA FIRMINO ANALISTA DO MP CARATINGA - COMARCA; CARATINGA-PJ-04PJ 10.069,62 2.013,92 0,00 896,19 0,00 0,00 2.251,59 7.152,81 22.384,13 1.745,64 1.921,43 0,00 0,00 3.667,07 18.717,06 31/01/2021
11 326100 ADRIANA AUGUSTA AMARAL BELO OFICIAL DO MP BARBACENA - COMARCA; BARBACENA-PJ-08PJ 10.069,62 3.020,89 0,00 0,00 4.363,50 0,00 527,98 7.309,82 25.291,81 1.906,76 3.301,86 0,00 0,00 5.208,62 20.083,19 31/01/2021
12 605700 ADRIANA COSTA LIRA ASSESSOR/OFICIAL BELO HORIZONTE - COMARCA; COORD ESTADUAL DE DEFESA DA EDUCACAO 0,00 817,05 8.170,49 0,00 0,00 0,00 527,27 7.302,03 16.816,84 856,09 1.276,36 0,00 328,85 2.461,30 14.355,54 31/01/2021
13 541100 ADRIANA CRISTINA DE OLIVEIRA OFICIAL DO MP GUAPÉ - COMARCA; GUAPE-PJ-UNPJ 5.387,19 538,72 0,00 0,00 0,00 0,00 0,00 2.319,39 8.245,30 762,96 498,31 0,00 0,00 1.261,27 6.984,03 31/01/2021
14 254800 ADRIANA DAS GRACAS FERNANDES ANALISTA DO MP UBERABA - COMARCA; UBERABA-PJ-07PJ 18.103,37 12.672,36 0,00 0,00 0,00 0,00 451,38 6.474,12 37.701,23 4.736,39 6.239,32 0,00 0,00 10.975,71 26.725,52 31/01/2021
15 217400 ADRIANA DE CARVALHO CATAO BRAGA ASSESSOR BELO HORIZONTE - COMARCA; DIV FISCAL ADM CONT TERCEIRIZACAO 0,00 3.268,20 8.170,49 0,00 0,00 0,00 0,00 1.550,00 12.988,69 751,99 2.371,98 0,00 0,00 3.123,97 9.864,72 31/01/2021
16 434600 ADRIANA FERREIRA DA SILVA ANALISTA DO MP BELO HORIZONTE - COMARCA; BH-14PJ DEFESA CONSUMIDOR-GAB 112PJ 12.601,30 2.520,26 0,00 0,00 0,00 0,00 0,00 1.550,00 16.671,56 2.231,73 2.675,34 0,00 0,00 4.907,07 11.764,49 31/01/2021
17 499800 ADRIANA FERREIRA TIAGO OFICIAL DO MP SALINAS - COMARCA; SALINAS-PJ-02PJ 7.421,79 742,18 0,00 0,00 0,00 0,00 299,35 4.815,59 13.278,91 1.118,51 1.068,14 0,00 0,00 2.186,65 11.092,26 31/01/2021
18 543400 ADRIANA GUIMARAES NUNES DE PAULA ANALISTA DO MP PATROCÍNIO - COMARCA; PATROCINIO-PJ-01PJ 9.146,93 914,69 0,00 0,00 0,00 0,00 516,50 7.184,51 17.762,63 1.422,14 1.506,50 0,00 0,00 2.928,64 14.833,99 31/01/2021
19 471500 ADRIANA HORTA DE CARVALHO RODRIGUES DE SOUSA ANALISTA DO MP BELO HORIZONTE - COMARCA; GRUPO ESP PROM JUST DEF PROB ADM PAT PUB 10.069,62 2.013,92 0,00 896,19 0,00 0,00 896,19 1.550,00 15.425,92 1.745,64 1.921,43 0,00 0,00 3.667,07 11.758,85 31/01/2021
20 86400 ADRIANA MOREIRA CALDEIRA BRANT OFICIAL DO MP BELO HORIZONTE - COMARCA; BH-21PJ TUTELA FUNDACOES-SECRETARIA 15.272,02 10.690,41 0,00 0,00 0,00 4.416,35 0,00 1.550,00 31.928,78 3.966,27 6.270,31 0,00 0,00 10.236,58 21.692,20 31/01/2021
21 480700 ADRIANA MOREIRA DE AVELLAR CEZILIO OFICIAL DO MP BELO HORIZONTE - COMARCA; BH-18PJ VIOLENCIA DOMESTICA-SECRETARIA 6.123,79 1.224,76 0,00 545,02 204,13 0,00 1.016,55 5.959,13 15.073,38 1.086,03 973,10 0,00 0,00 2.059,13 13.014,25 31/01/2021
22 326000 ADRIANA PEREIRA CARNEIRO RESENDE OFICIAL DO MP BELO HORIZONTE - COMARCA; BH-25PJ DEFESA DA EDUCACAO-SECRETARIA 9.752,14 2.925,64 0,00 0,00 0,00 0,00 511,34 7.128,22 20.317,34 1.840,72 2.110,83 0,00 0,00 3.951,55 16.365,79 31/01/2021
23 502200 ADRIANA PETRUCCI DAVINA OFICIAL DO MP PATROCÍNIO - COMARCA; PATROCINIO-PJ-01PJ 7.663,37 766,34 0,00 0,00 0,00 0,00 525,45 8.051,59 17.006,75 1.161,03 1.129,53 0,00 0,00 2.290,56 14.716,19 31/01/2021
24 201900 ADRIANA REIS PIMENTA OFICIAL DO MP TEÓFILO OTONI - COMARCA; TEOFILO OTONI-PJ-03PJ 14.790,66 5.916,26 0,00 0,00 0,00 0,00 531,48 7.347,94 28.586,34 3.125,38 3.965,56 0,00 0,00 7.090,94 21.495,40 31/01/2021
25 278700 ADRIANA RODRIGUES PINTO COELHO AMARAL ANALISTA DO MP BELO HORIZONTE - COMARCA; ASSESS TECNICA DA CORREGEDORIA-GERAL DO MP 17.413,92 5.224,18 0,00 0,00 7.546,03 0,00 498,04 6.983,14 37.665,31 3.434,37 6.434,69 0,00 0,00 9.869,06 27.796,25 31/01/2021
26 468000 ADRIANA SANTOS DE SANTANA MOREIRA ANALISTA DO MP ARAÇUAÍ - COMARCA; ARACUAI-PJ-02PJ 10.069,62 4.027,85 0,00 0,00 0,00 0,00 516,91 7.188,99 21.803,37 2.067,87 2.334,51 0,00 0,00 4.402,38 17.400,99 31/01/2021
27 194700 ADRIANA TSUKIDE OFICIAL DO MP UBERABA - COMARCA; COORD REG BACIAS PARANAIBA BAIXO RIO GRANDE 14.790,66 5.916,26 0,00 0,00 6.902,31 0,00 531,48 7.347,94 35.488,65 3.125,38 5.811,56 0,00 0,00 8.936,94 26.551,71 31/01/2021
28 465500 ADRIANO CASSIANO MATOS ANALISTA DO MP ARAXÁ - COMARCA; ARAXA-PJ-02PJ 10.069,62 2.013,92 0,00 896,19 0,00 0,00 1.792,39 1.550,00 16.322,12 1.745,64 1.973,56 0,00 0,00 3.719,20 12.602,92 31/01/2021
29 500500 ADRIANO DE ALMEIDA SILVA OFICIAL DO MP UBERABA - COMARCA; UBERABA-PJ-12PJ 7.663,37 766,34 0,00 0,00 0,00 0,00 525,45 8.051,59 17.006,75 1.161,03 675,78 0,00 0,00 1.836,81 15.169,94 31/01/2021
30 187200 ADRIANO DE FREITAS MARON OFICIAL DO MP PONTE NOVA - COMARCA; PONTE NOVA-PJ-03PJ 12.601,30 11.341,17 0,00 0,00 0,00 4.058,23 526,73 7.296,19 35.823,62 3.643,07 5.714,82 0,00 0,00 9.357,89 26.465,73 31/01/2021
31 477900 ADRIANO FERREIRA DE ALMEIDA OFICIAL DO MP TAIOBEIRAS - COMARCA; TAIOBEIRAS-PJ-UNPJ 7.663,37 1.532,67 0,00 682,04 510,90 0,00 766,34 2.104,44 13.259,76 1.283,64 1.202,28 0,00 0,00 2.485,92 10.773,84 31/01/2021
32 269101 ADRIANO PEREIRA SILVA ANALISTA DO MP UBERABA - COMARCA; UBERABA-PJ-02PJ 10.069,62 2.013,92 0,00 896,19 0,00 0,00 3.220,26 8.119,49 24.319,48 1.745,64 1.817,15 0,00 0,00 3.562,79 20.756,69 31/01/2021
33 414200 ADRIANO RODRIGUES FERNANDES ANALISTA DO MP CARANDAÍ - COMARCA; CARANDAI-PJ-UNPJ 10.069,62 2.013,92 0,00 0,00 0,00 0,00 531,68 7.350,10 19.965,32 1.745,64 1.869,29 0,00 0,00 3.614,93 16.350,39 31/01/2021
34 536700 ADRIELLE COSTA MARIA MOURAO FIGUEIREDO OFICIAL DO MP SERRO - COMARCA; SERRO-PJ-SECRETARIA 5.387,19 538,72 0,00 0,00 0,00 0,00 0,00 2.319,39 8.245,30 762,96 550,45 0,00 0,00 1.313,41 6.931,89 31/01/2021
35 514300 ADRIENE DAMASCENO BRAGA ANALISTA DO MP ALFENAS - COMARCA; ALFENAS-PJ-03PJ 10.069,62 1.006,96 0,00 0,00 0,00 0,00 0,00 2.319,39 13.395,97 1.584,53 1.740,95 0,00 0,00 3.325,48 10.070,49 31/01/2021
36 254600 ADRIENE DOMINGUES COSTA ANALISTA DO MP BELO HORIZONTE - COMARCA; SUPERINTENDENCIA DE RECURSOS HUMANOS 16.750,82 5.025,25 0,00 0,00 0,00 0,00 0,00 0,00 21.776,07 3.296,45 4.212,54 0,00 0,00 7.508,99 14.267,08 31/01/2021
37 252001 ADRIENE GOMES BARRETO ANALISTA DO MP BELO HORIZONTE - COMARCA; BH-19PJ SAUDE-SECRETARIA 047PJ 14.324,23 5.729,69 0,00 0,00 0,00 0,00 514,72 7.165,10 27.733,74 3.020,90 3.814,72 0,00 0,00 6.835,62 20.898,12 31/01/2021
38 645000 AFONSO CELSO GUIMARAES JUNIOR OFICIAL DO MP PIRAPORA - COMARCA; PIRAPORA-PJ-01PJ 4.376,03 262,56 0,00 0,00 0,00 0,00 0,00 1.550,00 6.188,59 563,43 280,78 0,00 0,00 844,21 5.344,38 31/01/2021
39 302500 AGENOR JOSE DA SILVA JUNIOR ANALISTA DO MP JUIZ DE FORA - COMARCA; JUIZ DE FORA-PJ-14PJ 16.750,82 5.025,25 0,00 0,00 0,00 0,00 479,07 6.776,26 29.031,40 3.296,45 4.108,26 0,00 0,00 7.404,71 21.626,69 31/01/2021
40 357500 AILSON WAGNER DE ALENCAR SILVA OFICIAL DO MP BELO HORIZONTE - COMARCA; BH-12PJ JUIZO CRIMINAL-SECRETARIA 10.069,62 4.027,85 0,00 0,00 0,00 0,00 516,91 7.188,99 21.803,37 2.067,87 2.282,37 0,00 0,00 4.350,24 17.453,13 31/01/2021
41 366400 AILTON ALEXSSANDRO ALVES OFICIAL DO MP PARÁ DE MINAS - COMARCA; PARA DE MINAS-PJ-05PJ 9.444,70 3.777,88 0,00 0,00 0,00 0,00 0,00 1.550,00 14.772,58 1.927,89 2.236,68 0,00 0,00 4.164,57 10.608,01 31/01/2021
42 318900 AILTON DE CASTRO RIBEIRO JUNIOR OFICIAL DO MP ITAJUBA - COMARCA; ITAJUBA-PJ-01PJ 10.069,62 3.020,89 0,00 0,00 0,00 0,00 527,98 8.079,21 21.697,70 1.906,76 1.997,62 0,00 0,00 3.904,38 17.793,32 31/01/2021
43 464400 ALAN MONTEIRO GASPAR ANALISTA DO MP SETE LAGOAS - COMARCA; SETE LAGOAS-PJ-08PJ 10.069,62 2.013,92 0,00 896,19 335,65 0,00 2.357,32 7.350,10 23.022,80 1.745,64 1.973,56 0,00 0,00 3.719,20 19.303,60 31/01/2021
44 670200 ALANA ARAUJO AGUIAR ASSESSOR BELO HORIZONTE - COMARCA; ASSESS EXECUTIVA DO CONSELHO SUPERIOR DO MP 0,00 0,00 3.076,28 0,00 0,00 0,00 281,99 4.626,28 7.984,55 435,97 206,25 0,00 0,00 642,22 7.342,33 31/01/2021
45 492000 ALANA DE CASTRO FREITAS OFICIAL DO MP ITUMIRIM - COMARCA; ITUMIRIM-PJ-SECRETARIA 6.123,79 612,38 0,00 0,00 0,00 0,00 0,00 1.550,00 8.286,17 890,06 738,32 0,00 0,00 1.628,38 6.657,79 31/01/2021
46 306700 ALANA MARCIA DE OLIVEIRA OFICIAL DO MP BELO HORIZONTE - COMARCA; DIRETORIA DE ADMINISTRACAO FINANCEIRA 9.752,14 2.925,64 0,00 0,00 0,00 0,00 511,34 7.128,22 20.317,34 1.840,72 2.110,83 0,00 0,00 3.951,55 16.365,79 31/01/2021
47 324500 ALANMAR COUTINHO COSTA OFICIAL DO MP LEOPOLDINA - COMARCA; LEOPOLDINA-PJ-02PJ 9.444,70 2.833,41 0,00 0,00 0,00 0,00 540,24 7.443,49 20.261,84 1.776,77 1.914,23 0,00 0,00 3.691,00 16.570,84 31/01/2021
48 407300 ALBERTO LUIZ SOARES DE OLIVEIRA ANALISTA DO MP BELO HORIZONTE - COMARCA; DIRETORIA DE PROJETOS DE EDIFICACOES 12.601,30 2.520,26 0,00 0,00 0,00 0,00 0,00 1.550,00 16.671,56 2.231,73 2.675,34 0,00 0,00 4.907,07 11.764,49 31/01/2021
49 118200 ALBERTO PEREIRA DA COSTA OFICIAL DO MP DORES DO INDAIÁ - COMARCA; DORES DO INDAIA-PJ-UNPJ 16.750,82 15.075,74 0,00 0,00 0,00 6.449,88 466,79 6.642,25 45.385,48 4.904,53 7.830,81 0,00 0,00 12.735,34 32.650,14 31/01/2021
50 282400 ALCILENE MARISE DE ARAUJO ANALISTA DO MP BELO HORIZONTE - COMARCA; BH-23PJ INF-FISC MED SOC FEC 17.413,92 5.224,18 0,00 0,00 7.546,03 0,00 0,00 1.550,00 31.734,13 3.434,37 6.382,55 0,00 0,00 9.816,92 21.917,21 31/01/2021
51 112600 ALCIONE DA MOTA JARDIM OFICIAL DO MP BELO HORIZONTE - COMARCA; CAO-CRIANCAS E ADOLESCENTES-SECRETARIA 13.872,60 9.710,82 0,00 0,00 0,00 0,00 0,00 1.550,00 25.133,42 3.585,62 4.577,90 0,00 0,00 8.163,52 16.969,90 31/01/2021
52 396400 ALCIONE DE FREITAS E SILVA ANALISTA DO MP BELO HORIZONTE - COMARCA; ASSESS JUR DO CONS SUPERIOR DO MINISTERIO PUB 14.324,23 5.729,69 0,00 0,00 0,00 0,00 0,00 1.550,00 21.603,92 3.020,90 3.814,72 0,00 0,00 6.835,62 14.768,30 31/01/2021
53 657400 ALCIONE MARIA FERREIRA ASSESSOR PROCURADOR JUSTICA BELO HORIZONTE - COMARCA; PROC JUST RECURSOS ESP E EXTRAORD CRIMINAIS 0,00 0,00 7.187,72 0,00 0,00 0,00 0,00 1.550,00 8.737,72 751,99 1.202,97 0,00 0,00 1.954,96 6.782,76 31/01/2021
54 161600 ALCIONE NERY SOUZA ASSESSOR BELO HORIZONTE - COMARCA; BH-18PJ DIREITOS HUMANOS-SECRETARIA 0,00 4.085,25 8.170,49 0,00 0,00 0,00 0,00 1.550,00 13.805,74 751,99 2.596,67 0,00 0,00 3.348,66 10.457,08 31/01/2021
55 376000 ALDA GOMES LANA OFICIAL DO MP BELO HORIZONTE - COMARCA; BH-18PJ VIOLENCIA DOMESTICA-SECRETARIA 8.858,43 1.771,69 0,00 0,00 0,00 0,00 545,68 7.502,87 18.678,67 1.513,10 1.585,68 0,00 0,00 3.098,78 15.579,89 31/01/2021
56 148000 ALDA MARTINS SIMOES OFICIAL DO MP BELO HORIZONTE - COMARCA; BH-23PJ CIVEL- FISC ENT AB POL 17.413,92 8.706,96 0,00 0,00 8.706,96 0,00 0,00 1.550,00 36.377,84 3.991,62 7.610,60 0,00 0,00 11.602,22 24.775,62 31/01/2021
57 318400 ALDO CREPALDI JUNIOR OFICIAL DO MP BELO HORIZONTE - COMARCA; DIVISAO DE MATERIAIS 9.752,14 2.925,64 0,00 0,00 0,00 0,00 511,34 7.128,22 20.317,34 1.840,72 2.058,69 0,00 0,00 3.899,41 16.417,93 31/01/2021
58 604500 ALENIZE APARECIDA RODRIGUES HENRIQUE OFICIAL DO MP RIO NOVO - COMARCA; RIO NOVO-PJ-UNPJ 5.387,19 538,72 0,00 0,00 1.975,30 0,00 543,21 7.475,91 15.920,33 762,96 1.093,66 0,00 0,00 1.856,62 14.063,71 31/01/2021
59 197900 ALESSA DE SOUSA E SILVA OFICIAL DO MP OLIVEIRA - COMARCA; OLIVEIRA-PJ-02PJ 15.272,02 6.108,81 0,00 0,00 0,00 0,00 548,77 7.536,63 29.466,23 3.233,21 4.016,96 0,00 0,00 7.250,17 22.216,06 31/01/2021
60 428500 ALESSANDRA ALVES DINIZ OFICIAL DO MP BELO HORIZONTE - COMARCA; CENTRAL DE APOIO TECNICO-SECRETARIA 6.123,79 3.061,90 0,00 0,00 3.061,90 0,00 0,00 1.550,00 13.797,59 1.281,99 2.146,18 0,00 0,00 3.428,17 10.369,42 31/01/2021
61 286801 ALESSANDRA BOTELHO JUNQUEIRA DE MENEZES ANALISTA DO MP PASSOS - COMARCA; PASSOS-PJ-05PJ 13.011,52 5.204,61 0,00 0,00 0,00 0,00 534,34 8.148,55 26.899,02 2.726,86 3.181,64 0,00 0,00 5.908,50 20.990,52 31/01/2021
62 307000 ALESSANDRA CRISTINA SANTOS MENDES ANALISTA DO MP BELO HORIZONTE - COMARCA; BH-18PJ VIOLENCIA DOMESTICA-SECRETARIA 12.204,02 3.661,21 0,00 0,00 0,00 0,00 523,55 7.261,48 23.650,26 2.350,71 2.795,00 0,00 0,00 5.145,71 18.504,55 31/01/2021
63 264400 ALESSANDRA DE SOUZA SANTOS ANALISTA DO MP BELO HORIZONTE - COMARCA; SUPERINTENDENCIA DOS ORGAOS COLEGIADOS 18.103,37 7.241,35 0,00 0,00 0,00 0,00 0,00 1.550,00 26.894,72 3.867,43 5.036,89 0,00 0,00 8.904,32 17.990,40 31/01/2021
64 441500 ALESSANDRA DRUMMOND DE FIGUEIREDO ROSSI ANALISTA DO MP BELO HORIZONTE - COMARCA; DIRETORIA DE PROJETOS DE EDIFICACOES 10.069,62 2.013,92 0,00 0,00 0,00 0,00 0,00 1.550,00 13.633,54 1.745,64 1.973,56 0,00 0,00 3.719,20 9.914,34 31/01/2021
65 524000 ALESSANDRA LUCIOLI DE BARROS GUERRA ANALISTA DO MP BELO HORIZONTE - COMARCA; BH-19PJ SAUDE--SECRETARIA 10.069,62 1.006,96 0,00 0,00 0,00 0,00 527,98 7.309,82 18.914,38 1.584,53 1.584,54 0,00 0,00 3.169,07 15.745,31 31/01/2021
66 479900 ALESSANDRA MARA ANDRADE DE FARIA OFICIAL DO MP UBERABA - COMARCA; UBERABA-PJ-09PJ 7.663,37 1.532,67 0,00 682,04 0,00 0,00 1.305,84 7.435,47 18.619,39 1.406,26 1.483,57 0,00 0,00 2.889,83 15.729,56 31/01/2021
67 226700 ALESSANDRA MARA VASCONCELOS REZENDE OFICIAL DO MP CONSELHEIRO LAFAIETE - COMARCA; CONSELHEIRO LAFAIETE-PJ-07PJ 10.397,52 3.119,26 0,00 0,00 0,00 0,00 545,18 7.497,38 21.559,34 1.974,96 2.304,64 0,00 0,00 4.279,60 17.279,74 31/01/2021
68 112100 ALESSANDRA MARCIA FERREIRA OFICIAL DO MP BELO HORIZONTE - COMARCA; BELO HORIZONTE- SECRETARIA DAS PROMOTORIAS 10.069,62 7.048,73 0,00 0,00 0,00 0,00 0,00 1.550,00 18.668,35 2.551,21 3.136,60 0,00 0,00 5.687,81 12.980,54 31/01/2021
69 196500 ALESSANDRA MARIA RIBEIRO LUCIANO OFICIAL DO MP RIO PARANAÍBA - COMARCA; RIO PARANAIBA-PJ-UNPJ 15.272,02 6.108,81 0,00 0,00 0,00 0,00 548,77 7.536,63 29.466,23 3.233,21 4.016,96 0,00 0,00 7.250,17 22.216,06 31/01/2021
70 91400 ALESSANDRA MENDES VASCONCELOS DE SOUZA OFICIAL DO MP BELO HORIZONTE - COMARCA; BH-23PJ INF-FISC MED SOC AB 18.820,14 13.174,10 0,00 0,00 0,00 4.931,36 0,00 1.550,00 38.475,60 4.931,36 7.929,06 0,00 0,00 12.860,42 25.615,18 31/01/2021
71 651700 ALESSANDRA PROFIRIO SOUZA OFICIAL DO MP NOVA ERA - COMARCA; NOVA ERA-PJ-UNPJ 4.376,03 262,56 0,00 0,00 1.546,20 0,00 0,00 1.550,00 7.734,79 570,31 622,48 0,00 0,00 1.192,79 6.542,00 31/01/2021
72 384900 ALESSANDRA RODRIGUES ANALISTA DO MP VISCONDE DO RIO BRANCO - COMARCA; VISCONDE DO RIO BRANCO-PJ-03PJ 14.324,23 2.864,85 0,00 0,00 0,00 0,00 504,21 8.589,29 26.282,58 2.562,53 3.048,67 0,00 0,00 5.611,20 20.671,38 31/01/2021
73 390000 ALESSANDRA SPADANO MASSARA VASCONCELOS OFICIAL DO MP BETIM - COMARCA; BETIM-PJ-10PJ 8.858,43 1.771,69 0,00 0,00 0,00 0,00 0,00 1.550,00 12.180,12 1.513,10 1.637,82 0,00 0,00 3.150,92 9.029,20 31/01/2021
74 426500 ALESSANDRO CAMPOS DE PAIVA ANALISTA DO MP BELO HORIZONTE - COMARCA; CENTRO PUBLICIDADE E DESIGN GRAFICO 13.011,52 2.602,30 0,00 0,00 0,00 0,00 0,00 1.550,00 17.163,82 2.310,49 2.789,06 0,00 0,00 5.099,55 12.064,27 31/01/2021
75 623400 ALESSANDRO DE OLIVEIRA REZENDE ANALISTA DO MP BELO HORIZONTE - COMARCA; DIRET DE INFORMACAO E CONHECIMENTO-DINC/CEAF 8.436,53 843,65 0,00 0,00 0,00 0,00 1.736,41 1.550,00 12.566,59 1.297,11 1.803,50 0,00 0,00 3.100,61 9.465,98 31/01/2021
76 420600 ALESSANDRO SILVA OFICIAL DO MP VISCONDE DO RIO BRANCO - COMARCA; VISCONDE DO RIO BRANCO-PJ-02PJ 8.436,53 2.530,96 0,00 0,00 0,00 0,00 522,78 7.253,09 18.743,36 1.567,08 1.081,62 0,00 0,00 2.648,70 16.094,66 31/01/2021
77 375301 ALETHEIA PATRICIA ASSIS MORAIS MOREIRA ANALISTA DO MP ITABIRA - COMARCA; ITABIRA-PJ-02PJ 10.069,62 1.006,96 0,00 0,00 0,00 0,00 527,98 8.848,60 20.453,16 1.584,53 1.688,82 0,00 0,00 3.273,35 17.179,81 31/01/2021
78 382300 ALEX CARVALHO LIMA ANALISTA DO MP UBERLÂNDIA - COMARCA; UBERLANDIA-PJ-14PJ 14.324,23 2.864,85 0,00 0,00 0,00 0,00 504,21 7.050,51 24.743,80 2.562,53 3.152,94 0,00 0,00 5.715,47 19.028,33 31/01/2021
79 195201 ALEX DE CASTRO PEREIRA ANALISTA DO MP UBERABA - COMARCA; UBERABA-PJ-09PJ 17.413,92 6.965,57 0,00 0,00 0,00 0,00 536,35 7.401,08 32.316,92 3.713,00 4.813,92 0,00 0,00 8.526,92 23.790,00 31/01/2021
80 358900 ALEX DE PAULA LANZA ASSESSOR BELO HORIZONTE - COMARCA; CENTRO JORNALISMO 0,00 0,00 10.397,52 0,00 0,00 0,00 0,00 2.319,39 12.716,91 751,99 2.085,66 0,00 0,00 2.837,65 9.879,26 31/01/2021
81 178400 ALEX RODRIGO SALDANHA GUIMARAES OFICIAL DO MP BELO HORIZONTE - COMARCA; DIRETORIA DE SISTEMAS DE INFORMACAO 6.123,79 2.449,52 0,00 0,00 0,00 0,00 0,00 1.550,00 10.123,31 1.184,01 1.162,70 0,00 0,00 2.346,71 7.776,60 31/01/2021
82 413500 ALEX VILELA OLIVEIRA ANALISTA DO MP GOVERNADOR VALADARES - COMARCA; COORD REG PJ DEF EDU DIR CRIANCA ADOL RIODOCE 13.011,52 2.602,30 0,00 0,00 0,00 0,00 515,26 7.170,98 23.300,06 2.310,49 2.789,06 0,00 0,00 5.099,55 18.200,51 31/01/2021
83 264300 ALEXANDRA FATIMA SARAIVA SOARES ANALISTA DO MP BELO HORIZONTE - COMARCA; CENTRAL DE APOIO TECN-SETOR DE MEIO AMBIENTE 18.103,37 5.431,01 0,00 0,00 0,00 0,00 0,00 1.550,00 25.084,38 3.577,78 4.618,71 0,00 0,00 8.196,49 16.887,89 31/01/2021
84 488000 ALEXANDRA LARA PAIS DE CARVALHO ANALISTA DO MP SERRO - COMARCA; SERRO-PJ-UNPJ 10.069,62 1.006,96 0,00 0,00 0,00 0,00 527,98 7.309,82 18.914,38 1.584,53 1.584,54 0,00 0,00 3.169,07 15.745,31 31/01/2021
85 256300 ALEXANDRA SANTOS GOMES OFICIAL DO MP BELO HORIZONTE - COMARCA; DIRETORIA GESTAO COMPRAS LICITACOES 10.069,62 3.020,89 0,00 0,00 0,00 0,00 0,00 1.550,00 14.640,51 1.906,76 2.206,17 0,00 0,00 4.112,93 10.527,58 31/01/2021
86 403300 ALEXANDRE AUGUSTO RODRIGUES ANALISTA DO MP ÁGUAS FORMOSAS - COMARCA; AGUAS FORMOSAS-PJ-UNPJ 10.069,62 2.013,92 0,00 0,00 0,00 0,00 0,00 2.319,39 14.402,93 1.745,64 1.973,56 0,00 0,00 3.719,20 10.683,73 31/01/2021
87 640900 ALEXANDRE BARBOSA MASCARENHAS ANALISTA DO MP BETIM - COMARCA; BETIM-PJ-02PJ 6.741,63 404,50 0,00 0,00 0,00 0,00 0,00 1.550,00 8.696,13 841,65 355,01 0,00 0,00 1.196,66 7.499,47 31/01/2021
88 311700 ALEXANDRE BARCELOS RESENDE OFICIAL DO MP BELO HORIZONTE - COMARCA; BH-19PJ SAUDE-SECRETARIA 047PJ 7.912,85 1.582,57 0,00 0,00 0,00 0,00 0,00 2.319,39 11.814,81 1.331,54 1.375,71 0,00 0,00 2.707,25 9.107,56 31/01/2021
89 285600 ALEXANDRE CAMPOS DE OLIVEIRA OFICIAL DO MP UBERABA - COMARCA; COORD REG BACIAS PARANAIBA BAIXO RIO GRANDE 10.069,62 3.020,89 0,00 0,00 0,00 0,00 0,00 1.550,00 14.640,51 1.906,76 2.049,76 0,00 0,00 3.956,52 10.683,99 31/01/2021
90 509200 ALEXANDRE CAPUANO DE REZENDE ANALISTA DO MP BELO HORIZONTE - COMARCA; SUPERINTENDENCIA DE RECURSOS HUMANOS 10.069,62 1.006,96 0,00 0,00 0,00 0,00 0,00 1.550,00 12.626,58 1.584,53 1.688,82 0,00 0,00 3.273,35 9.353,23 31/01/2021
91 229400 ALEXANDRE CARLOS BOTREL DIRETOR/OFICIAL BELO HORIZONTE - COMARCA; SUPERINTENDENCIA DOS ORGAOS COLEGIADOS 0,00 5.224,18 17.413,92 0,00 0,00 0,00 498,04 6.983,14 30.119,28 2.518,67 4.582,83 0,00 293,30 7.394,80 22.724,48 31/01/2021
92 411900 ALEXANDRE CARVALHO SANTOS RIBEIRO ANALISTA DO MP OLIVEIRA - COMARCA; OLIVEIRA-PJ-02PJ 13.011,52 2.602,30 0,00 0,00 0,00 0,00 515,26 7.940,37 24.069,45 2.310,49 2.789,06 0,00 0,00 5.099,55 18.969,90 31/01/2021
93 641600 ALEXANDRE DA SILVA ASSUNCAO OFICIAL DO MP BELO HORIZONTE - COMARCA; SERVICO MEDICO-DEPTO PERIC MEDICA SAUDE OCUP 4.817,57 481,76 0,00 192,70 0,00 0,00 963,50 1.550,00 8.005,53 687,04 406,41 0,00 0,00 1.093,45 6.912,08 31/01/2021
94 201200 ALEXANDRE DE ALENCAR CORDEIRO OFICIAL DO MP ÁGUAS FORMOSAS - COMARCA; AGUAS FORMOSAS-PJ-UNPJ 6.123,79 3.061,90 0,00 0,00 0,00 0,00 0,00 1.550,00 10.735,69 1.281,99 1.304,16 0,00 0,00 2.586,15 8.149,54 31/01/2021
95 288200 ALEXANDRE DE VASCONCELOS COSTA KER ANALISTA DO MP BELO HORIZONTE - COMARCA; BH-03PJ EMPRESARIAL-SECRETARIA 16.750,82 5.025,25 0,00 0,00 0,00 0,00 479,07 6.776,26 29.031,40 3.296,45 4.160,40 0,00 0,00 7.456,85 21.574,55 31/01/2021
96 445000 ALEXANDRE DIOGENES OLIVEIRA ANALISTA DO MP SALINAS - COMARCA; SALINAS-PJ-02PJ 10.069,62 2.013,92 0,00 0,00 0,00 0,00 531,68 8.119,49 20.734,71 1.745,64 1.973,56 0,00 0,00 3.719,20 17.015,51 31/01/2021
97 463400 ALEXANDRE LEAL WINKELSTROTER ANALISTA DO MP TEÓFILO OTONI - COMARCA; TEOFILO OTONI-PJ-04PJ 10.069,62 2.013,92 0,00 896,19 335,65 0,00 1.792,39 1.550,00 16.657,77 1.745,64 1.973,56 0,00 0,00 3.719,20 12.938,57 31/01/2021
98 615700 ALEXANDRE LUIZ DE CASTRO MACIEL ANALISTA DO MP IBIRITÉ - COMARCA; IBIRITE-PJ-02PJ 8.436,53 843,65 0,00 0,00 0,00 0,00 0,00 1.550,00 10.830,18 1.297,11 1.325,98 0,00 0,00 2.623,09 8.207,09 31/01/2021
99 356900 ALEXANDRE MOISES MENDONCA E ARAUJO OFICIAL DO MP UBERABA - COMARCA; UBERABA-PJ-13PJ 7.421,79 1.484,36 0,00 0,00 0,00 0,00 0,00 1.550,00 10.456,15 1.237,26 1.239,58 0,00 0,00 2.476,84 7.979,31 31/01/2021
100 633300 ALEXANDRE NONATO MARTINS OFICIAL DO MP IGARAPÉ - COMARCA; IGARAPE-PJ-02PJ 4.817,57 481,76 0,00 0,00 0,00 0,00 485,77 6.849,33 12.634,43 668,35 363,18 0,00 0,00 1.031,53 11.602,90 31/01/2021
101 469900 ALEXANDRE PEREIRA GUEDES ANALISTA DO MP CATAGUASES - COMARCA; CATAGUASES-PJ-03PJ 10.069,62 2.013,92 0,00 896,19 335,65 0,00 1.427,87 7.350,10 22.093,35 1.745,64 1.973,56 0,00 0,00 3.719,20 18.374,15 31/01/2021
102 208700 ALEXANDRE RESENDE FRAGA ANALISTA DO MP BELO HORIZONTE - COMARCA; BH-19PJ SAUDE-SECRETARIA 130PJ 18.820,14 7.528,06 0,00 0,00 0,00 0,00 0,00 1.550,00 27.898,20 4.027,99 5.112,29 0,00 0,00 9.140,28 18.757,92 31/01/2021
103 216401 ALEXANDRE RIBEIRO DE LIMA MAIORINO ANALISTA DO MP UBERABA - COMARCA; UBERABA-PJ-03PJ 16.750,82 6.700,33 0,00 0,00 0,00 0,00 515,93 7.178,28 31.145,36 3.564,46 4.547,34 0,00 0,00 8.111,80 23.033,56 31/01/2021
104 475100 ALEXANDRE TEOTONIO COSTA ANALISTA DO MP ARAGUARI - COMARCA; ARAGUARI-PJ-01PJ 10.069,62 2.013,92 0,00 896,19 335,65 0,00 896,19 1.550,00 15.761,57 1.745,64 1.869,29 0,00 0,00 3.614,93 12.146,64 31/01/2021
105 339000 ALEXANDRE VITOR CARDOSO OFICIAL DO MP BELO HORIZONTE - COMARCA; PROMOT ESTADUAL DE DEF PATRI CULT E TUR DE MG 6.123,79 1.837,14 0,00 545,02 204,13 0,00 3.250,51 7.281,87 19.242,46 1.086,03 864,83 0,00 0,00 1.950,86 17.291,60 31/01/2021
106 678900 ALEXIA DUARTE TORRES ASSESSOR PROCURADOR JUSTICA BELO HORIZONTE - COMARCA; GABINETE DE PROCURADOR DE JUSTIÇA - SALA 502 0,00 0,00 7.187,72 0,00 0,00 0,00 0,00 1.550,00 8.737,72 751,99 1.202,97 0,00 0,00 1.954,96 6.782,76 31/01/2021
107 623100 ALEXSANDER BATISTA AGUIAR ANALISTA DO MP BELO HORIZONTE - COMARCA; DIRETORIA DE SUPORTE E MANUTENCAO 8.436,53 843,65 0,00 0,00 3.093,39 0,00 544,44 8.258,71 21.176,72 1.297,11 2.020,25 0,00 0,00 3.317,36 17.859,36 31/01/2021
108 513300 ALFSON MIRANDA BRAGA ANALISTA DO MP BELO HORIZONTE - COMARCA; BH-12PJ JUIZO CRIMINAL-GAB 092PJ 10.069,62 1.006,96 0,00 0,00 0,00 0,00 0,00 1.550,00 12.626,58 1.584,53 1.740,95 0,00 0,00 3.325,48 9.301,10 31/01/2021
109 618400 ALICE MAGALHAES MACEDO DE CARVALHO ANALISTA DO MP IPATINGA - COMARCA; IPATINGA-PJ-10PJ 8.436,53 843,65 0,00 0,00 0,00 0,00 544,44 8.258,71 18.083,33 1.297,11 1.325,98 0,00 0,00 2.623,09 15.460,24 31/01/2021
110 471000 ALICE TITONELI MOREIRA ANALISTA DO MP MIRADOURO - COMARCA; MIRADOURO-PJ-UNPJ 10.069,62 2.013,92 0,00 896,19 335,65 0,00 1.792,39 2.520,78 17.628,55 1.745,64 1.921,43 0,00 0,00 3.667,07 13.961,48 31/01/2021
111 622400 ALINE BALBINO PORTUGAL LOPES ANALISTA DO MP TRÊS PONTAS - COMARCA; TRES PONTAS-PJ-03PJ 8.436,53 843,65 0,00 0,00 0,00 0,00 544,44 8.258,71 18.083,33 1.297,11 1.325,98 0,00 0,00 2.623,09 15.460,24 31/01/2021
112 373000 ALINE BOTELHO RESENDE OFICIAL DO MP JUIZ DE FORA - COMARCA; JUIZ DE FORA-PJ-22PJ 8.579,10 1.715,82 0,00 0,00 0,00 0,00 0,00 1.550,00 11.844,92 1.459,46 1.560,39 0,00 0,00 3.019,85 8.825,07 31/01/2021
113 699800 ALINE CRISTINA DE OLIVEIRA AMARAL BARBOSA ASSESSOR PROCURADOR JUSTICA BELO HORIZONTE - COMARCA; GABINETE DE PROCURADOR DE JUSTIÇA - SALA 904 0,00 0,00 7.187,72 0,00 0,00 0,00 0,00 1.550,00 8.737,72 751,99 1.202,97 0,00 0,00 1.954,96 6.782,76 31/01/2021
114 407700 ALINE CRISTINA RODRIGUES PEREIRA COORDENADOR/ANALISTA BELO HORIZONTE - COMARCA; DIRETORIA DE PROJETOS DE EDIFICACOES 0,00 2.687,03 13.435,16 0,00 0,00 0,00 532,03 8.123,38 24.777,60 1.745,64 3.084,19 0,00 0,00 4.829,83 19.947,77 31/01/2021
115 193100 ALINE CRISTINA SENA OLIVEIRA OFICIAL DO MP UBERLÂNDIA - COMARCA; UBERLANDIA-PJ-03PJ 14.790,66 5.916,26 0,00 0,00 6.902,31 0,00 0,00 2.319,39 29.928,62 3.125,38 5.811,56 0,00 0,00 8.936,94 20.991,68 31/01/2021
116 554200 ALINE CRISTINA SILVA SOUZA OFICIAL DO MP TIROS - COMARCA; TIROS-PJ-UNPJ 5.930,75 593,08 0,00 0,00 0,00 0,00 0,00 1.550,00 8.073,83 856,09 689,27 0,00 0,00 1.545,36 6.528,47 31/01/2021
117 505500 ALINE DA CUNHA MARREIROS OLIVEIRA ANALISTA DO MP CARANGOLA - COMARCA; CARANGOLA-PJ-03PJ 10.069,62 1.006,96 0,00 0,00 0,00 0,00 0,00 2.319,39 13.395,97 1.584,53 1.688,82 0,00 0,00 3.273,35 10.122,62 31/01/2021
118 433500 ALINE DE MELO QUEIROZ ASSESSOR/OFICIAL BELO HORIZONTE - COMARCA; ASSESSORIA TECNICA DO PROCON-MG 0,00 2.079,50 10.397,52 0,00 0,00 0,00 0,00 2.319,39 14.796,41 1.459,46 2.039,54 0,00 439,75 3.938,75 10.857,66 31/01/2021
119 691100 ALINE DE MELO SOUZA ASSESSOR PROCURADOR JUSTICA BELO HORIZONTE - COMARCA; GABINETE DE PROCURADOR DE JUSTIÇA - SALA 401 0,00 0,00 7.187,72 0,00 0,00 0,00 0,00 1.550,00 8.737,72 751,99 1.202,97 0,00 0,00 1.954,96 6.782,76 31/01/2021
120 542700 ALINE DE SOUSA ALBINO ANALISTA DO MP CONTAGEM - COMARCA; CONTAGEM-PJ-09PJ 9.146,93 914,69 0,00 0,00 0,00 0,00 0,00 1.550,00 11.611,62 1.422,14 1.506,50 0,00 0,00 2.928,64 8.682,98 31/01/2021
121 330000 ALINE DIORIO MAYRINK OFICIAL DO MP BELO HORIZONTE - COMARCA; BH-15PJ M AMB PAT HIST CULT-GAB 115PJ 7.187,72 1.437,54 0,00 0,00 2.875,09 0,00 0,00 1.550,00 13.050,35 1.192,32 1.965,35 0,00 0,00 3.157,67 9.892,68 31/01/2021
122 499000 ALINE FERREIRA LOPES ANALISTA DO MP TEÓFILO OTONI - COMARCA; COORD. DE DEF. DO PAT. PUBLICO-JEQUIT./MUCURI 10.069,62 1.006,96 0,00 0,00 0,00 0,00 527,98 7.309,82 18.914,38 1.584,53 1.740,95 0,00 0,00 3.325,48 15.588,90 31/01/2021
123 405300 ALINE LAIA CARDOZO DIRETOR/ANALISTA BELO HORIZONTE - COMARCA; SUPERINTENDENCIA LOGISTICA SERVICOS 0,00 3.482,78 17.413,92 0,00 0,00 0,00 536,35 7.401,08 28.834,13 2.562,53 3.934,28 0,00 866,40 7.363,21 21.470,92 31/01/2021
124 278200 ALINE MARCIA FARIA BARBOSA FERNANDES OFICIAL DO MP BARBACENA - COMARCA; BARBACENA-PJ-SECRETARIA 7.421,79 2.226,54 0,00 0,00 0,00 0,00 530,66 7.339,00 17.517,99 1.356,01 1.254,62 0,00 0,00 2.610,63 14.907,36 31/01/2021
125 389000 ALINE NERI NOBRE ANALISTA DO MP MONTES CLAROS - COMARCA; COORD REG PJ DEF EDUC DIR CRIANCA ADOL NORTE 14.324,23 4.297,27 0,00 0,00 0,00 0,00 546,23 7.508,88 26.676,61 2.791,72 3.483,83 0,00 0,00 6.275,55 20.401,06 31/01/2021
126 294600 ALINE PATRICIA SILVA VIEIRA OFICIAL DO MP UBERLÂNDIA - COMARCA; UBERLANDIA-PJ-03PJ 10.069,62 3.020,89 0,00 0,00 0,00 0,00 1.978,25 7.364,31 22.433,07 1.906,76 2.499,35 0,00 0,00 4.406,11 18.026,96 31/01/2021
127 420000 ALINE RODRIGUES CAMOROPIN ANALISTA DO MP SABARÁ - COMARCA; SABARA-PJ-02PJ 13.011,52 2.602,30 0,00 0,00 0,00 0,00 515,26 7.170,98 23.300,06 2.310,49 2.789,06 0,00 0,00 5.099,55 18.200,51 31/01/2021
128 699600 ALINE SEPULVEDA ROSA PIRES ASSESSOR PROCURADOR JUSTICA BELO HORIZONTE - COMARCA; GABINETE DE PROCURADOR DE JUSTIÇA - SALA 905 0,00 0,00 7.187,72 0,00 0,00 0,00 0,00 1.550,00 8.737,72 751,99 1.202,97 0,00 0,00 1.954,96 6.782,76 31/01/2021
129 408300 ALINE SILVA ARAUJO DE PAULA ANALISTA DO MP SÃO SEBASTIÃO DO PARAÍSO - COMARCA; SAO SEBASTIAO DO PARAISO-PJ-02PJ 13.011,52 2.602,30 0,00 0,00 0,00 0,00 515,26 7.940,37 24.069,45 2.310,49 2.789,06 0,00 0,00 5.099,55 18.969,90 31/01/2021
130 425400 ALINE TRINDADE DE FREITAS CAMPOS OFICIAL DO MP BELO HORIZONTE - COMARCA; BH-14PJ DEFESA CONSUMIDOR-SECRETARIA 8.579,10 1.715,82 0,00 0,00 0,00 0,00 0,00 1.550,00 11.844,92 1.459,46 1.560,39 0,00 0,00 3.019,85 8.825,07 31/01/2021
131 517200 ALISSOM PEREIRA DA SILVA ANALISTA DO MP BORDA DA MATA - COMARCA; BORDA DA MATA-PJ-UNPJ 10.069,62 1.006,96 0,00 0,00 3.692,19 0,00 527,98 7.309,82 22.606,57 1.584,53 2.756,31 0,00 0,00 4.340,84 18.265,73 31/01/2021
132 442400 ALISSON LABRE ANALISTA DO MP VARGINHA - COMARCA; VARGINHA-PJ-03PJ 10.069,62 2.013,92 0,00 0,00 0,00 0,00 531,68 7.888,67 20.503,89 1.745,64 1.973,56 0,00 0,00 3.719,20 16.784,69 31/01/2021
133 643800 ALLAN PAUL FONSECA DE CASTRO ASSESSOR/OFICIAL CONTAGEM - COMARCA; CONTAGEM-PJ-SECRETARIA 0,00 623,85 10.397,52 0,00 0,00 0,00 525,35 8.050,50 19.597,22 635,97 1.976,88 0,00 35,44 2.648,29 16.948,93 31/01/2021
134 612900 ALLAN VINICIUS VIEIRA ARAUJO COORDENADOR/OFICIAL BELO HORIZONTE - COMARCA; DIVISAO TRANSPORTES 0,00 1.181,92 11.819,15 0,00 0,00 0,00 524,38 7.270,47 20.795,92 762,96 2.467,86 0,00 102,75 3.333,57 17.462,35 31/01/2021
135 349000 ALLEC RODRIGUES VIEIRA OFICIAL DO MP BELO HORIZONTE - COMARCA; COORD EST DEF DIR FAM PESSOAS DEFICI IDOSOS 10.069,62 2.013,92 0,00 0,00 0,00 0,00 531,68 7.350,10 19.965,32 1.745,64 1.973,56 0,00 0,00 3.719,20 16.246,12 31/01/2021
136 297300 ALLYSON SALIBA MONTEIRO LAIZO ANALISTA DO MP CONSELHEIRO LAFAIETE - COMARCA; CONSELHEIRO LAFAIETE-PJ-03PJ 18.820,14 5.646,04 0,00 0,00 0,00 0,00 538,26 8.960,66 33.965,10 3.726,87 4.833,95 0,00 0,00 8.560,82 25.404,28 31/01/2021
137 303700 ALMIR LOPES LOURES ANALISTA DO MP BELO HORIZONTE - COMARCA; CENTRAL DE APOIO TECN-SETOR DE MEIO AMBIENTE 18.820,14 5.646,04 0,00 0,00 0,00 0,00 538,26 7.421,88 32.426,32 3.726,87 4.833,95 0,00 0,00 8.560,82 23.865,50 31/01/2021
138 696600 ALOIZIO MARTINS JALES JUNIOR ASSESSOR PROMOTOR JUSTICA CAMPESTRE - COMARCA; CAMPESTRE-PJ-SECRETARIA 0,00 0,00 7.187,72 0,00 0,00 0,00 0,00 1.550,00 8.737,72 751,99 1.202,97 0,00 0,00 1.954,96 6.782,76 31/01/2021
139 515900 ALTAIR NEVES JUNIOR OFICIAL DO MP BELO HORIZONTE - COMARCA; BH-01PJ FAZENDA PUBLICA-SECRETARIA 7.421,79 742,18 0,00 0,00 2.721,32 0,00 538,82 7.428,06 18.852,17 1.118,51 1.816,50 0,00 0,00 2.935,01 15.917,16 31/01/2021
140 233300 ALVARINDO BATISTA ANALISTA DO MP BELO HORIZONTE - COMARCA; NUCLEO APOIO TECNICO ESP COMUNICACAO 18.820,14 5.646,04 0,00 0,00 0,00 0,00 0,00 2.319,39 26.785,57 3.726,87 4.781,81 0,00 0,00 8.508,68 18.276,89 31/01/2021
141 274100 ALYSSON CARVALHO VIDAL DE LACERDA OFICIAL DO MP MANHUAÇU - COMARCA; MANHUACU-PJ-01PJ 10.069,62 3.020,89 0,00 0,00 0,00 0,00 0,00 1.550,00 14.640,51 1.906,76 2.206,17 0,00 0,00 4.112,93 10.527,58 31/01/2021
142 621000 AMANDA BASTOS ALVES ANALISTA DO MP BELO HORIZONTE - COMARCA; BH-07PJ 01 TRIBUNAL DO JURI-GAB 066PJ 8.436,53 843,65 0,00 0,00 0,00 0,00 0,00 1.550,00 10.830,18 1.297,11 1.325,98 0,00 0,00 2.623,09 8.207,09 31/01/2021
143 521700 AMANDA CRISTINA AGUIAR MACHADO OFICIAL DO MP CONGONHAS - COMARCA; CONGONHAS-PJ-01PJ 5.562,64 556,26 0,00 0,00 0,00 0,00 0,00 1.550,00 7.668,90 792,88 543,16 0,00 0,00 1.336,04 6.332,86 31/01/2021
144 613400 AMANDA DE ASSIS IUNES SANTOS ANALISTA DO MP CONGONHAS - COMARCA; CONGONHAS-PJ-01PJ 8.436,53 843,65 0,00 0,00 0,00 0,00 0,00 1.550,00 10.830,18 1.297,11 1.325,98 0,00 0,00 2.623,09 8.207,09 31/01/2021
145 695900 AMANDA DE OLIVEIRA ASSESSOR PROCURADOR JUSTICA BELO HORIZONTE - COMARCA; PROC JUST RECURSOS ESP E EXTRAORD CRIMINAIS 0,00 0,00 7.187,72 0,00 0,00 0,00 0,00 1.550,00 8.737,72 751,99 1.202,97 0,00 0,00 1.954,96 6.782,76 31/01/2021
146 520800 AMANDA DE SOUZA MACHADO ANALISTA DO MP BAEPENDI - COMARCA; BAEPENDI-PJ-UNPJ 10.069,62 1.006,96 0,00 0,00 0,00 0,00 527,98 7.309,82 18.914,38 1.584,53 1.636,68 0,00 0,00 3.221,21 15.693,17 31/01/2021
147 663900 AMANDA DENISE GONCALVES DA SILVA ASSESSOR BELO HORIZONTE - COMARCA; DIRET DE FORMACAO, APERFEIC. E POS-GRADUACAO 0,00 0,00 3.076,28 0,00 0,00 0,00 281,99 4.626,28 7.984,55 295,50 237,05 0,00 0,00 532,55 7.452,00 31/01/2021
148 677000 AMANDA LETICIA MESSIAS PEGO ASSESSOR PROMOTOR JUSTICA CORAÇÃO DE JESUS - COMARCA; CORACAO DE JESUS-PJ-UNPJ 0,00 0,00 7.187,72 0,00 0,00 0,00 0,00 1.550,00 8.737,72 751,99 1.202,97 0,00 0,00 1.954,96 6.782,76 31/01/2021
149 543100 AMANDA VIEIRA FREITAS BRESSANE ANALISTA DO MP VARGINHA - COMARCA; COORD REG DEF ORDEM ECONOMICA TRIB SUL MINAS 9.146,93 914,69 0,00 0,00 3.353,87 0,00 0,00 1.550,00 14.965,49 1.422,14 2.428,81 0,00 0,00 3.850,95 11.114,54 31/01/2021
150 434400 AMARILIS ASSIS SIMAO CURCIO ANALISTA DO MP MANHUAÇU - COMARCA; MANHUACU-PJ-SECRETARIA 10.069,62 2.013,92 0,00 0,00 4.027,85 0,00 0,00 1.550,00 17.661,39 1.745,64 3.081,22 0,00 0,00 4.826,86 12.834,53 31/01/2021
151 652000 AMAURI SILVA ALVES ASSESSOR/OFICIAL BELO HORIZONTE - COMARCA; BH-23PJ INFRACIONAL-SEC EXP 0,00 490,23 8.170,49 0,00 0,00 0,00 0,00 1.550,00 10.210,72 563,43 1.357,39 0,00 0,00 1.920,82 8.289,90 31/01/2021
152 273700 AMBROLINA CARNEIRO DE VASCONCELOS OFICIAL DO MP FRUTAL - COMARCA; FRUTAL-PJ-01PJ 11.085,56 7.759,90 0,00 0,00 0,00 0,00 483,70 6.826,73 26.155,89 2.827,55 3.483,43 0,00 0,00 6.310,98 19.844,91 31/01/2021
153 58000 AMELIA GUARIZE DE CASTRO OFICIAL DO MP JUIZ DE FORA - COMARCA; JUIZ DE FORA-PJ-SECRETARIA 6.741,63 6.741,63 0,00 0,00 4.494,42 1.969,60 543,82 7.482,63 27.973,73 1.969,60 4.074,50 0,00 0,00 6.044,10 21.929,63 31/01/2021
154 324301 AMERICA SUELI FERREIRA DA SILVA ANALISTA DO MP MONTE CARMELO - COMARCA; MONTE CARMELO-PJ-02PJ 10.069,62 2.013,92 0,00 896,19 0,00 0,00 2.324,07 8.119,49 23.423,29 1.745,64 1.921,43 0,00 0,00 3.667,07 19.756,22 31/01/2021
155 273300 AMUJACY DE BRITO ASSIZ OFICIAL DO MP BELO HORIZONTE - COMARCA; BH-12PJ JUIZO CRIMINAL-SECRETARIA 10.069,62 3.020,89 0,00 0,00 0,00 0,00 0,00 1.550,00 14.640,51 1.906,76 1.997,62 0,00 0,00 3.904,38 10.736,13 31/01/2021
156 482200 ANA ALICE LOPES ACHTSCHIN ANALISTA DO MP BELO HORIZONTE - COMARCA; PROC JUST RECURSOS ESP E EXTRAORD CRIMINAIS 10.736,08 2.147,22 0,00 955,51 0,00 0,00 1.593,24 7.218,65 22.650,70 2.045,38 2.406,31 0,00 0,00 4.451,69 18.199,01 31/01/2021
157 490400 ANA AMELIA PAULINO GARCIA OFICIAL DO MP CONTAGEM - COMARCA; CONTAGEM-PJ-SECRETARIA 7.663,37 766,34 0,00 0,00 0,00 0,00 0,00 1.550,00 9.979,71 1.161,03 1.129,53 0,00 0,00 2.290,56 7.689,15 31/01/2021
158 690400 ANA ANGELICA MOREIRA DA CUNHA ASSESSOR PROMOTOR JUSTICA TIMÓTEO - COMARCA; TIMOTEO-PJ-02PJ 0,00 0,00 7.187,72 0,00 0,00 0,00 0,00 1.550,00 8.737,72 751,99 1.202,97 0,00 0,00 1.954,96 6.782,76 31/01/2021
159 279100 ANA CAROLINA ARAUJO PEREIRA ANALISTA DO MP BELO HORIZONTE - COMARCA; DIRETORIA DE PROJETOS DE EDIFICACOES 18.820,14 5.646,04 0,00 0,00 0,00 0,00 0,00 1.550,00 26.016,18 3.726,87 4.781,81 0,00 0,00 8.508,68 17.507,50 31/01/2021
160 653300 ANA CAROLINA CYRNE DINIZ ASSESSOR BELO HORIZONTE - COMARCA; CENTRAL DE APOIO TECNICO-SETOR CONTABIL 0,00 0,00 8.170,49 0,00 0,00 0,00 0,00 1.550,00 9.720,49 751,99 1.473,23 0,00 0,00 2.225,22 7.495,27 31/01/2021
161 359400 ANA CAROLINA DE ABREU FARIA ASSESSOR BELO HORIZONTE - COMARCA; SUPERINTENDÊNCIA DE ENGENHARIA E ARQUITETURA 0,00 0,00 10.397,52 0,00 0,00 0,00 533,74 7.372,61 18.303,87 751,99 2.085,66 0,00 0,00 2.837,65 15.466,22 31/01/2021
162 408500 ANA CAROLINA DE CASTRO CARVALHO ANALISTA DO MP BARBACENA - COMARCA; BARBACENA - SECRETARIA DAS PJS CRIMINAIS 13.011,52 2.602,30 0,00 0,00 0,00 0,00 515,26 7.170,98 23.300,06 2.310,49 2.789,06 0,00 0,00 5.099,55 18.200,51 31/01/2021
163 688000 ANA CAROLINA DE OLIVEIRA PINTO ASSESSOR PROCURADOR JUSTICA BELO HORIZONTE - COMARCA; GABINETE DE PROCURADOR DE JUSTIÇA - SALA 1014 0,00 0,00 7.187,72 0,00 0,00 0,00 0,00 1.550,00 8.737,72 751,99 1.202,97 0,00 0,00 1.954,96 6.782,76 31/01/2021
164 420200 ANA CAROLINA FERNANDES SILVA ANALISTA DO MP BELO HORIZONTE - COMARCA; GABINETE DE PROCURADOR DE JUSTIÇA - SALA 704 12.601,30 2.520,26 0,00 0,00 0,00 0,00 0,00 1.550,00 16.671,56 2.231,73 2.675,34 0,00 0,00 4.907,07 11.764,49 31/01/2021
165 522100 ANA CAROLINA FERNANDINO VIDAL PEREIRA SANTOS OFICIAL DO MP BELO HORIZONTE - COMARCA; SECRETARIA DO PROCON-MG 7.421,79 742,18 0,00 0,00 0,00 0,00 0,00 1.550,00 9.713,97 1.118,51 1.068,14 0,00 0,00 2.186,65 7.527,32 31/01/2021
166 502400 ANA CAROLINA GONCALVES FERNANDES ANALISTA DO MP IPATINGA - COMARCA; IPATINGA-PJ-01PJ 10.069,62 1.006,96 0,00 0,00 0,00 0,00 527,98 8.079,21 19.683,77 1.584,53 1.740,95 0,00 0,00 3.325,48 16.358,29 31/01/2021
167 529900 ANA CAROLINA GONCALVES PECANHA CHEQUER ANALISTA DO MP MANHUAÇU - COMARCA; MANHUACU-PJ-04PJ 9.146,93 914,69 0,00 0,00 0,00 0,00 0,00 3.088,78 13.150,40 1.422,14 1.506,50 0,00 0,00 2.928,64 10.221,76 31/01/2021
168 431900 ANA CAROLINA MOTTA GUATIMOSIM ANALISTA DO MP BELO HORIZONTE - COMARCA; ASSESSORIA JURIDICO-ADMINISTRATIVA 12.601,30 2.520,26 0,00 0,00 0,00 0,00 499,01 7.763,15 23.383,72 2.231,73 2.675,34 0,00 0,00 4.907,07 18.476,65 31/01/2021
169 490600 ANA CAROLINA XAVIER GODOY ANALISTA DO MP BELO HORIZONTE - COMARCA; BH-18PJ DIREITOS HUMANOS-SECRETARIA 10.069,62 1.006,96 0,00 0,00 0,00 0,00 0,00 3.088,78 14.165,36 1.584,53 1.636,68 0,00 0,00 3.221,21 10.944,15 31/01/2021
170 600300 ANA CAROLINE PEREIRA DINIZ ANALISTA DO MP BELO HORIZONTE - COMARCA; COMB CRIMES PRAT POR AG POL MUN-SECRETARIA 9.146,93 914,69 0,00 0,00 0,00 0,00 516,50 7.953,90 18.532,02 1.422,14 1.506,50 0,00 0,00 2.928,64 15.603,38 31/01/2021
171 615800 ANA CAROLINE PEREIRA OLIVEIRA OFICIAL DO MP ALFENAS - COMARCA; ALFENAS-PJ-06PJ 5.387,19 538,72 0,00 0,00 1.975,30 0,00 543,21 7.475,91 15.920,33 762,96 1.093,66 0,00 0,00 1.856,62 14.063,71 31/01/2021
172 324800 ANA CECILIA MENDES DA SILVA OFICIAL DO MP OURO FINO - COMARCA; OURO FINO-PJ-01PJ 10.069,62 3.020,89 0,00 0,00 0,00 0,00 479,99 6.786,20 20.356,70 1.906,76 2.154,03 0,00 0,00 4.060,79 16.295,91 31/01/2021
173 698700 ANA CLARA SANTOS ALMEIDA ASSESSOR PROMOTOR JUSTICA SABINÓPOLIS - COMARCA; SABINOPOLIS-PJ-UNPJ 0,00 0,00 7.187,72 0,00 0,00 0,00 0,00 1.550,00 8.737,72 751,99 1.202,97 0,00 0,00 1.954,96 6.782,76 31/01/2021
174 441300 ANA CLAUDIA ALKIMIM MIRANDA BOMTEMPO ANALISTA DO MP MONTES CLAROS - COMARCA; MONTES CLAROS-PJ-11PJ 12.601,30 2.520,26 0,00 0,00 0,00 0,00 0,00 1.550,00 16.671,56 2.231,73 2.571,07 0,00 0,00 4.802,80 11.868,76 31/01/2021
175 642500 ANA CLAUDIA DA COSTA NAVES OFICIAL DO MP MONTE CARMELO - COMARCA; MONTE CARMELO-PJ-02PJ 4.376,03 262,56 0,00 0,00 0,00 0,00 0,00 2.319,39 6.957,98 563,43 280,78 0,00 0,00 844,21 6.113,77 31/01/2021
176 604900 ANA CLAUDIA OLIVEIRA DE MIRANDA OFICIAL DO MP PONTE NOVA - COMARCA; PONTE NOVA-PJ-04PJ 5.387,19 538,72 0,00 0,00 0,00 0,00 0,00 1.550,00 7.475,91 762,96 498,31 0,00 0,00 1.261,27 6.214,64 31/01/2021
177 379300 ANA CRISTINA ALVES FLAVIO ANALISTA DO MP SÃO GOTARDO - COMARCA; SAO GOTARDO-PJ-01PJ 14.324,23 2.864,85 0,00 0,00 0,00 0,00 0,00 2.319,39 19.508,47 2.562,53 3.100,80 0,00 0,00 5.663,33 13.845,14 31/01/2021
178 461200 ANA CRISTINA ALVES PASCHOAL ANALISTA DO MP SANTA LUZIA - COMARCA; SANTA LUZIA-PJ-03PJ 10.069,62 2.013,92 0,00 896,19 4.027,85 0,00 1.792,39 1.550,00 20.349,97 1.745,64 3.029,08 0,00 0,00 4.774,72 15.575,25 31/01/2021
179 514100 ANA CRISTINA ARAUJO ASSUNCAO ANALISTA DO MP BELO HORIZONTE - COMARCA; ASSESS JUR DO CONS SUPERIOR DO MINISTERIO PUB 10.069,62 1.006,96 0,00 0,00 0,00 0,00 527,98 8.079,21 19.683,77 1.584,53 1.688,82 0,00 0,00 3.273,35 16.410,42 31/01/2021
180 113400 ANA CRISTINA BRAGA ALBUQUERQUE ASSESSOR/ANALISTA BELO HORIZONTE - COMARCA; ASSESS ESP ADM E FINANCEIRA DO PGJ ADJ ADM 30.090,04 21.063,02 0,00 0,00 0,00 40.948,45 520,11 7.223,96 99.845,58 5.486,23 8.882,75 15.690,84 0,00 30.059,82 69.785,76 31/01/2021
181 233800 ANA CRISTINA BRAGA SOARES OFICIAL DO MP CONTAGEM - COMARCA; CONTAGEM-PJ-SECRETARIA 10.736,08 3.220,82 0,00 0,00 0,00 0,00 0,00 1.550,00 15.506,90 2.045,38 2.302,03 0,00 0,00 4.347,41 11.159,49 31/01/2021
182 186400 ANA CRISTINA DE AZEVEDO LOPES OFICIAL DO MP UBÁ - COMARCA; UBA-PJ-01PJ 14.790,66 5.916,26 0,00 0,00 0,00 0,00 531,48 7.347,94 28.586,34 3.125,38 3.965,56 0,00 0,00 7.090,94 21.495,40 31/01/2021
183 693000 ANA CRISTINA DE MELO SILVEIRA ASSESSOR PROCURADOR JUSTICA BELO HORIZONTE - COMARCA; GABINETE DE PROCURADOR DE JUSTIÇA - SALA 504 0,00 0,00 7.187,72 0,00 0,00 0,00 0,00 2.319,39 9.507,11 751,99 1.202,97 0,00 0,00 1.954,96 7.552,15 31/01/2021
184 465100 ANA CRISTINA DE OLIVEIRA GUIMARAES ANALISTA DO MP ITAJUBA - COMARCA; ITAJUBA-PJ-05PJ 10.069,62 2.013,92 0,00 896,19 4.027,85 0,00 2.324,07 8.888,88 28.220,53 1.745,64 2.976,95 0,00 0,00 4.722,59 23.497,94 31/01/2021
185 500600 ANA CRISTINA LATADO SUDARIO ANALISTA DO MP UBERLÂNDIA - COMARCA; UBERLANDIA-PJ-09PJ 10.069,62 1.006,96 0,00 0,00 0,00 0,00 527,98 7.309,82 18.914,38 1.584,53 1.740,95 0,00 0,00 3.325,48 15.588,90 31/01/2021
186 331400 ANA CRISTINA RIBEIRO ALVES OFICIAL DO MP BAMBUÍ - COMARCA; BAMBUI-PJ-UNPJ 9.146,93 2.744,08 0,00 0,00 0,00 0,00 523,20 7.257,68 19.671,89 1.714,84 1.876,95 0,00 0,00 3.591,79 16.080,10 31/01/2021
187 249300 ANA ELOINA MARTINS OFICIAL DO MP BETIM - COMARCA; BETIM-PJ-02PJ 12.601,30 5.040,52 0,00 0,00 0,00 0,00 517,49 7.195,38 25.354,69 2.634,97 3.257,52 0,00 0,00 5.892,49 19.462,20 31/01/2021
188 257400 ANA FLAVIA CAMBRAIA ANALISTA DO MP BELO HORIZONTE - COMARCA; BH-19PJ SAUDE-SECRETARIA 150PJ 18.103,37 5.431,01 0,00 0,00 0,00 0,00 517,76 7.198,25 31.250,39 3.577,78 4.566,57 0,00 0,00 8.144,35 23.106,04 31/01/2021
189 248201 ANA FLAVIA DE MORAIS SOUZA ANALISTA DO MP DIVINÓPOLIS - COMARCA; DIVINOPOLIS-PJ-01PJ 10.069,62 3.020,89 0,00 0,00 0,00 0,00 527,98 8.079,21 21.697,70 1.906,76 2.101,90 0,00 0,00 4.008,66 17.689,04 31/01/2021
190 621100 ANA FLAVIA DINIZ TEODORO OFICIAL DO MP SANTA LUZIA - COMARCA; SANTA LUZIA-PJ-06PJ 5.387,19 538,72 0,00 0,00 0,00 0,00 0,00 1.550,00 7.475,91 762,96 550,45 0,00 0,00 1.313,41 6.162,50 31/01/2021
191 238600 ANA FLAVIA FRANCO OFICIAL DO MP BELO HORIZONTE - COMARCA; DIRETORIA DE PESSOAL ADMINISTRATIVO - DPAD 13.011,52 3.903,46 0,00 0,00 0,00 0,00 496,17 6.962,79 24.373,94 2.518,67 3.089,63 0,00 0,00 5.608,30 18.765,64 31/01/2021
192 690000 ANA FLAVIA LURIAN DE PAIVA ASSESSOR PROCURADOR JUSTICA BELO HORIZONTE - COMARCA; GABINETE DE PROCURADOR DE JUSTIÇA - SALA 609 0,00 0,00 7.187,72 0,00 0,00 0,00 0,00 1.550,00 8.737,72 751,99 1.202,97 0,00 0,00 1.954,96 6.782,76 31/01/2021
193 402900 ANA FLAVIA PORTES DE CARVALHO ANALISTA DO MP BELO HORIZONTE - COMARCA; DIRET DE PLANOS PROJETOS E PROGRAMAS INST 14.324,23 2.864,85 0,00 0,00 0,00 0,00 504,21 7.050,51 24.743,80 2.562,53 3.100,80 0,00 0,00 5.663,33 19.080,47 31/01/2021
194 382700 ANA KARENINA SALDANHA GONTIJO ANALISTA DO MP BELO HORIZONTE - COMARCA; ASSESS TECNICO-JUR JUNTO AS PROC. DE JUST 13.872,60 2.774,52 0,00 0,00 5.549,04 0,00 0,00 2.319,39 24.515,55 2.475,82 4.553,73 0,00 0,00 7.029,55 17.486,00 31/01/2021
195 620500 ANA KARINE DE ANDRADE OLIVEIRA ANALISTA DO MP RIBEIRÃO DAS NEVES - COMARCA; SEC PJ EXECUCAO PENAL RIBEIRAO NEVES 7.663,37 766,34 0,00 0,00 0,00 0,00 0,00 1.550,00 9.979,71 1.161,03 1.129,53 0,00 0,00 2.290,56 7.689,15 31/01/2021
196 462200 ANA LUCIA ANDRADE TOMICH OTTONI ANALISTA DO MP TEÓFILO OTONI - COMARCA; TEOFILO OTONI-PJ-07PJ 10.069,62 2.013,92 0,00 896,19 671,30 0,00 2.324,07 7.350,10 23.325,20 1.745,64 1.921,43 0,00 0,00 3.667,07 19.658,13 31/01/2021
197 504100 ANA LUCIA CATAO DE CARVALHO OFICIAL DO MP BELO HORIZONTE - COMARCA; BH-09PJ AUDITORIA MILITAR-SECRETARIA 7.663,37 766,34 0,00 0,00 2.809,90 0,00 525,45 8.051,59 19.816,65 1.161,03 1.850,11 0,00 0,00 3.011,14 16.805,51 31/01/2021
198 274700 ANA LUCIA DE ALENCAR BRAGATO OFICIAL DO MP UBERABA - COMARCA; UBERABA-PJ-07PJ 10.069,62 3.020,89 0,00 0,00 0,00 0,00 527,98 7.309,82 20.928,31 1.906,76 2.206,17 0,00 0,00 4.112,93 16.815,38 31/01/2021
199 509400 ANA LUCIA DORNELAS MALLOSTO ANALISTA DO MP JUIZ DE FORA - COMARCA; JUIZ DE FORA-PJ-25PJ 10.069,62 1.006,96 0,00 0,00 0,00 0,00 527,98 7.309,82 18.914,38 1.584,53 1.688,82 0,00 0,00 3.273,35 15.641,03 31/01/2021
200 302600 ANA LUCIA LOPES SANTOS OFICIAL DO MP BELO HORIZONTE - COMARCA; DIVISÃO DE FISCALIZAÇÃO DAS RELAÇÕES DE CONSU 10.069,62 3.020,89 0,00 0,00 0,00 0,00 1.445,27 1.550,00 16.085,78 1.906,76 2.551,48 0,00 0,00 4.458,24 11.627,54 31/01/2021
201 493400 ANA LUISA NOGUEIRA MOREIRA ANALISTA DO MP BELO HORIZONTE - COMARCA; BH-19PJ SAUDE-SECRETARIA 130PJ 10.069,62 1.006,96 0,00 0,00 0,00 0,00 527,98 7.309,82 18.914,38 1.584,53 1.740,95 0,00 0,00 3.325,48 15.588,90 31/01/2021
202 389300 ANA LUISA REUTER LIMA ANALISTA DO MP BELO HORIZONTE - COMARCA; DIRETORIA DE SISTEMAS DE INFORMACAO 11.819,15 2.363,83 0,00 0,00 0,00 0,00 0,00 1.550,00 15.732,98 2.081,55 2.458,53 0,00 0,00 4.540,08 11.192,90 31/01/2021
203 480600 ANA LUIZA FERNANDES FRAGA E GRECO OFICIAL DO MP BELO HORIZONTE - COMARCA; OUVIDORIA DO MPMG 7.421,79 1.484,36 0,00 660,54 0,00 0,00 742,18 1.550,00 11.858,87 1.356,01 1.328,73 0,00 0,00 2.684,74 9.174,13 31/01/2021
204 481400 ANA MARCIA CANDIDA FERREIRA OFICIAL DO MP BRUMADINHO - COMARCA; BRUMADINHO-PJ-02PJ 6.123,79 1.224,76 0,00 545,02 2.449,52 0,00 1.151,27 7.428,84 18.923,20 1.086,03 1.694,86 0,00 0,00 2.780,89 16.142,31 31/01/2021
205 643100 ANA MARIA LOPES MIRANDA ANALISTA DO MP BELO HORIZONTE - COMARCA; CAO-FUNDACOES 7.421,79 445,31 0,00 0,00 0,00 0,00 0,00 1.550,00 9.417,10 841,65 1.062,64 0,00 0,00 1.904,29 7.512,81 31/01/2021
206 556400 ANA MARIA OLIVEIRA SOUZA OFICIAL DO MP ITAPECERICA - COMARCA; ITAPECERICA-PJ-UNPJ 5.930,75 593,08 0,00 0,00 2.174,61 0,00 358,81 5.464,30 14.521,55 856,09 1.287,29 0,00 0,00 2.143,38 12.378,17 31/01/2021
207 409600 ANA OLIVIA FARIA ROSENBURG ANALISTA DO MP BELO HORIZONTE - COMARCA; DIRETORIA DO COLEGIO E DA CAMARA DE PJ 13.011,52 3.903,46 0,00 0,00 0,00 0,00 0,00 1.550,00 18.464,98 2.518,67 3.089,63 0,00 0,00 5.608,30 12.856,68 31/01/2021
208 461500 ANA PAULA ALVES CARVALHO ANALISTA DO MP UBERLÂNDIA - COMARCA; UBERLANDIA-PJ-25PJ 10.069,62 2.013,92 0,00 896,19 0,00 0,00 1.792,39 2.319,39 17.091,51 1.745,64 1.973,56 0,00 0,00 3.719,20 13.372,31 31/01/2021
209 523200 ANA PAULA ALVES DA SILVA OFICIAL DO MP GOVERNADOR VALADARES - COMARCA; GOVERNADOR VALADARES-PJ-10PJ 7.421,79 742,18 0,00 0,00 0,00 0,00 0,00 4.626,47 12.790,44 1.118,51 963,87 0,00 0,00 2.082,38 10.708,06 31/01/2021
210 381200 ANA PAULA BARROS PEREIRA RIGHI ANALISTA DO MP BELO HORIZONTE - COMARCA; PROC JUST RECURSOS ESP E EXTRAORD CRIMINAIS 14.324,23 2.864,85 0,00 0,00 0,00 0,00 504,21 7.819,90 25.513,19 2.562,53 3.100,80 0,00 0,00 5.663,33 19.849,86 31/01/2021
211 696400 ANA PAULA CARVALHO SILVA ASSESSOR PROMOTOR JUSTICA PERDÕES - COMARCA; PERDOES-PJ-UNPJ 0,00 0,00 7.187,72 0,00 0,00 0,00 0,00 1.550,00 8.737,72 751,99 1.202,97 0,00 0,00 1.954,96 6.782,76 31/01/2021
212 227200 ANA PAULA DA SILVA CAMPOLINA ANALISTA DO MP BELO HORIZONTE - COMARCA; DIRETORIA DE ORCAMENTO-DIOR/SPC 18.820,14 9.410,07 0,00 0,00 0,00 0,00 517,55 7.196,04 35.943,80 4.329,11 5.703,44 0,00 0,00 10.032,55 25.911,25 31/01/2021
213 84200 ANA PAULA DE SOUZA ROCHA OFICIAL DO MP BELO HORIZONTE - COMARCA; DIRETORIA DE CONTABILIDADE 28.280,68 19.796,48 0,00 1.040,22 0,00 6.841,06 0,00 1.550,00 57.508,44 5.486,23 9.541,39 12.614,94 0,00 27.642,56 29.865,88 31/01/2021
214 278500 ANA PAULA DIAS CAPANEMA OFICIAL DO MP BELO HORIZONTE - COMARCA; DIRETORIA DE SEGURANCA 10.069,62 3.020,89 0,00 0,00 0,00 0,00 527,98 7.309,82 20.928,31 1.906,76 2.206,17 0,00 0,00 4.112,93 16.815,38 31/01/2021
215 327300 ANA PAULA GARCIA MAXIMO OFICIAL DO MP UNAÍ - COMARCA; UNAI-PJ-01PJ 11.085,56 4.434,22 0,00 0,00 0,00 0,00 512,15 7.137,12 23.169,05 2.295,44 2.610,92 0,00 0,00 4.906,36 18.262,69 31/01/2021
216 270000 ANA PAULA GOULART CRUZ DE MAGALHAES ANALISTA DO MP BELO HORIZONTE - COMARCA; COMB CRIMES PRAT POR AG POL MUN-ASSESSORIA 13.872,60 4.161,78 0,00 0,00 0,00 0,00 0,00 1.550,00 19.584,38 2.697,78 3.348,21 0,00 0,00 6.045,99 13.538,39 31/01/2021
217 262100 ANA PAULA KOMATSUZAKI ABIJAUDI ANALISTA DO MP BELO HORIZONTE - COMARCA; BH-17PJ PATRIMONIO PUBLICO-SECRETARIA 18.103,37 7.241,35 0,00 0,00 0,00 0,00 0,00 1.550,00 26.894,72 3.867,43 4.932,62 0,00 0,00 8.800,05 18.094,67 31/01/2021
218 278900 ANA PAULA MOREIRA GURGEL ANALISTA DO MP BELO HORIZONTE - COMARCA; DIRETORIA-GERAL 18.820,14 7.528,06 0,00 0,00 0,00 0,00 483,05 6.819,64 33.650,89 4.027,99 5.268,70 0,00 0,00 9.296,69 24.354,20 31/01/2021
219 425701 ANA PAULA ROCHA ANALISTA DO MP BELO HORIZONTE - COMARCA; ASSESSORIA DE COMUNICACAO INTEGRADA 8.858,43 885,84 0,00 0,00 0,00 0,00 0,00 2.319,39 12.063,66 1.371,36 1.433,19 0,00 0,00 2.804,55 9.259,11 31/01/2021
220 692700 ANA PAULA RODRIGUES GOMES GONCALVES ASSESSOR PROCURADOR JUSTICA BELO HORIZONTE - COMARCA; GABINETE DE PROCURADOR DE JUSTIÇA - SALA 1012 0,00 0,00 7.187,72 0,00 0,00 0,00 0,00 2.319,39 9.507,11 751,99 1.150,83 0,00 0,00 1.902,82 7.604,29 31/01/2021
221 395601 ANA PAULA SALGE OLIVEIRA ANALISTA DO MP UBERABA - COMARCA; UBERABA-PJ-15PJ 10.069,62 3.020,89 0,00 0,00 0,00 0,00 527,98 7.309,82 20.928,31 1.906,76 2.206,17 0,00 0,00 4.112,93 16.815,38 31/01/2021
222 473200 ANA PAULA SCOTTON BRASIL ANALISTA DO MP JUIZ DE FORA - COMARCA; JUIZ DE FORA-PJ-07PJ 10.069,62 2.013,92 0,00 896,19 335,65 0,00 896,19 2.319,39 16.530,96 1.745,64 1.973,56 0,00 0,00 3.719,20 12.811,76 31/01/2021
223 633600 ANA PAULA SILVA FERNANDES OFICIAL DO MP CATAGUASES - COMARCA; CATAGUASES-PJ-04PJ 5.217,34 521,73 0,00 0,00 0,00 0,00 0,00 1.647,94 7.387,01 734,31 506,95 0,00 0,00 1.241,26 6.145,75 31/01/2021
224 470900 ANA PAULA VALADARES ANALISTA DO MP PITANGUI - COMARCA; PITANGUI-PJ-01PJ 10.069,62 2.013,92 0,00 896,19 335,65 0,00 1.792,39 1.550,00 16.657,77 1.745,64 1.869,29 0,00 0,00 3.614,93 13.042,84 31/01/2021
225 447000 ANA PAULA VALENTIM DE ARAUJO ANALISTA DO MP BELO HORIZONTE - COMARCA; COMB CRIMES PRAT POR AG POL MUN-ASSESSORIA 10.069,62 2.013,92 0,00 0,00 0,00 0,00 0,00 1.550,00 13.633,54 1.745,64 1.973,56 0,00 0,00 3.719,20 9.914,34 31/01/2021
226 604200 ANA PAULA VIANA E SILVA OFICIAL DO MP BELO HORIZONTE - COMARCA; BH-17PJ PATRIMONIO PUBLICO-SECRETARIA 5.930,75 593,08 0,00 0,00 0,00 0,00 0,00 1.550,00 8.073,83 856,09 689,27 0,00 0,00 1.545,36 6.528,47 31/01/2021
227 505400 ANA PAULA VIEIRA SOUTO OFICIAL DO MP ALMENARA - COMARCA; ALMENARA-PJ-01PJ 6.123,79 1.837,14 0,00 0,00 2.653,64 0,00 0,00 1.550,00 12.164,57 1.086,03 1.698,85 0,00 0,00 2.784,88 9.379,69 31/01/2021
228 280200 ANA RACHEL BRANDAO LADEIRA ROLAND DIRETOR/ANALISTA BELO HORIZONTE - COMARCA; SUPRIN DE FORMACAO E APERFEICOAMENTO-SFA/CEAF 17.413,92 5.224,18 3.482,78 0,00 0,00 0,00 0,00 1.550,00 27.670,88 3.434,37 5.369,43 0,00 0,00 8.803,80 18.867,08 31/01/2021
229 691000 ANA RACHEL DOS REIS E SENA COSTA ASSESSOR PROMOTOR JUSTICA BELO HORIZONTE - COMARCA; GABINETE DE PROCURADOR DE JUSTIÇA - SALA 601 0,00 0,00 7.187,72 0,00 0,00 0,00 0,00 1.550,00 8.737,72 751,99 1.202,97 0,00 0,00 1.954,96 6.782,76 31/01/2021
230 601200 ANA REGINA RIBEIRO COORDENADOR/ANALISTA BELO HORIZONTE - COMARCA; DIV FISCAL ADM CONT TERCEIRIZACAO 0,00 1.181,92 11.819,15 0,00 0,00 0,00 524,38 7.270,47 20.795,92 1.422,14 2.196,65 0,00 429,80 4.048,59 16.747,33 31/01/2021
231 384700 ANA RODRIGUES PEREIRA MARRA ANALISTA DO MP COROMANDEL - COMARCA; COROMANDEL-PJ-UNPJ 10.069,62 2.013,92 0,00 0,00 0,00 0,00 531,68 8.119,49 20.734,71 1.745,64 1.869,29 0,00 0,00 3.614,93 17.119,78 31/01/2021
232 232700 ANA SILVIA SEMBLANO NAKAMURA ASSESSOR/OFICIAL BELO HORIZONTE - COMARCA; CENT DE APOIO TEC-SETOR DEF,IDOSO E INFANC 0,00 3.119,26 10.397,52 0,00 0,00 0,00 545,18 7.497,38 21.559,34 1.906,76 2.323,40 0,00 0,00 4.230,16 17.329,18 31/01/2021
233 602100 ANACLETO FRANCISCO MARCIER PIMENTA OFICIAL DO MP SÃO JOÃO DEL REI - COMARCA; SAO JOAO DEL REI-PJ-03PJ 5.387,19 538,72 0,00 0,00 0,00 0,00 0,00 3.088,78 9.014,69 762,96 312,25 0,00 0,00 1.075,21 7.939,48 31/01/2021
234 310400 ANADEJE DO CARMO DINIZ ARAUJO OFICIAL DO MP BELO HORIZONTE - COMARCA; DIRETORIA DE PESSOAL ADMINISTRATIVO - DPAD 10.069,62 3.020,89 0,00 0,00 0,00 0,00 527,98 7.309,82 20.928,31 1.906,76 2.206,17 0,00 0,00 4.112,93 16.815,38 31/01/2021
235 337000 ANAILDES MARIA MENDES OFICIAL DO MP JANAÚBA - COMARCA; JANAUBA-PJ-02PJ 9.444,70 2.833,41 0,00 840,58 0,00 0,00 6.207,06 8.982,27 28.308,02 1.776,77 2.018,51 0,00 0,00 3.795,28 24.512,74 31/01/2021
236 192900 ANATALIA CERQUEIRA LIMA PERES OFICIAL DO MP UBERABA - COMARCA; COORD REG SAUDE MACROR SANIT TRIANGULO SUL 11.085,56 4.434,22 0,00 0,00 0,00 0,00 512,15 7.137,12 23.169,05 2.295,44 2.767,33 0,00 0,00 5.062,77 18.106,28 31/01/2021
237 377400 ANDEIRSON DA MATTA BARBOSA ANALISTA DO MP POUSO ALEGRE - COMARCA; POUSO ALEGRE-PJ-01PJ 10.069,62 2.013,92 0,00 0,00 0,00 0,00 531,68 8.119,49 20.734,71 1.745,64 1.973,56 0,00 0,00 3.719,20 17.015,51 31/01/2021
238 317400 ANDERSON DA SILVA BICALHO OFICIAL DO MP CONTAGEM - COMARCA; CONTAGEM-PJ-SECRETARIA 9.146,93 2.744,08 0,00 814,07 304,90 0,00 2.744,07 1.550,00 17.304,05 1.714,84 1.772,68 0,00 0,00 3.487,52 13.816,53 31/01/2021
239 506900 ANDERSON DE SOUZA DAMIANI ANALISTA DO MP BELO HORIZONTE - COMARCA; DIRETORIA DE PAGAMENTO DE PESSOAL-DPAG 10.069,62 3.020,89 0,00 0,00 0,00 0,00 527,98 7.976,62 21.595,11 1.906,76 2.101,90 0,00 0,00 4.008,66 17.586,45 31/01/2021
240 410000 ANDERSON DE SOUZA NETO ASSESSOR BELO HORIZONTE - COMARCA; DIRETORIA DE ADMINISTRACAO FINANCEIRA 0,00 0,00 5.136,32 0,00 0,00 0,00 470,83 6.686,32 12.293,47 724,37 646,43 0,00 0,00 1.370,80 10.922,67 31/01/2021
241 181900 ANDERSON FLAVIO DE OLIVEIRA OFICIAL DO MP ITAGUARA - COMARCA; ITAGUARA-PJ-SECRETARIA 13.011,52 5.204,61 0,00 0,00 0,00 0,00 0,00 1.550,00 19.766,13 2.726,86 3.390,19 0,00 0,00 6.117,05 13.649,08 31/01/2021
242 333200 ANDERSON JOSE DE FREITAS OFICIAL DO MP IPATINGA - COMARCA; IPATINGA-PJ-04PJ 9.444,70 2.833,41 0,00 0,00 0,00 0,00 1.948,46 7.039,35 21.265,92 1.776,77 2.259,55 0,00 0,00 4.036,32 17.229,60 31/01/2021
243 699400 ANDERSON LUIZ CABRAL ASSESSOR PROMOTOR JUSTICA ALÉM PARAÍBA - COMARCA; ALEM PARAIBA-PJ-03PJ 0,00 0,00 7.187,72 0,00 0,00 0,00 0,00 1.550,00 8.737,72 751,99 1.202,97 0,00 0,00 1.954,96 6.782,76 31/01/2021
244 462100 ANDERSON LUIZ GUIMARAES CARDOSO ANALISTA DO MP BARBACENA - COMARCA; BARBACENA-PJ-02PJ 10.736,08 2.147,22 0,00 955,51 357,87 0,00 2.666,85 7.218,65 24.082,18 1.873,61 2.158,30 0,00 0,00 4.031,91 20.050,27 31/01/2021
245 429700 ANDERSON MELO DE SOUZA ASSESSOR/OFICIAL BELO HORIZONTE - COMARCA; DIRET DE ESTAGIOS E CONVENIOS ACADEMICOS 0,00 2.079,50 10.397,52 0,00 0,00 0,00 548,99 7.538,97 20.564,98 988,05 2.290,11 0,00 0,00 3.278,16 17.286,82 31/01/2021
246 545600 ANDERSON MENDES PROCOPIO FERREIRA ANALISTA DO MP BELO HORIZONTE - COMARCA; BH-12PJ JUIZO CRIMINAL-GAB 089PJ 9.146,93 914,69 0,00 0,00 0,00 0,00 516,50 7.184,51 17.762,63 1.422,14 1.506,50 0,00 0,00 2.928,64 14.833,99 31/01/2021
247 519900 ANDERSON MOREIRA DOEHLER ANALISTA DO MP TEÓFILO OTONI - COMARCA; COORD REG SAUDE MACRORREGIAO SANIT NORDESTE 10.069,62 3.020,89 0,00 0,00 0,00 0,00 0,00 1.550,00 14.640,51 1.906,76 2.206,17 0,00 0,00 4.112,93 10.527,58 31/01/2021
248 103000 ANDERSON TADEU DE DEUS ASSESSOR BELO HORIZONTE - COMARCA; BH-26 CRIME CONT CRIAN ADOL-SECRETARIA 0,00 3.595,42 5.136,32 0,00 2.910,58 0,00 544,28 7.487,58 19.674,18 751,99 2.427,98 0,00 0,00 3.179,97 16.494,21 31/01/2021
249 309200 ANDITYAS SOARES DE MOURA COSTA MATOS ANALISTA DO MP BELO HORIZONTE - COMARCA; GABINETE DE PROCURADOR DE JUSTIÇA - SALA 909 14.790,66 4.437,20 0,00 0,00 0,00 0,00 0,00 1.550,00 20.777,86 2.888,73 3.623,90 0,00 0,00 6.512,63 14.265,23 31/01/2021
250 519200 ANDRE BORJA LANA ANALISTA DO MP BELO HORIZONTE - COMARCA; CENTRO JORNALISMO 10.069,62 1.006,96 0,00 0,00 0,00 0,00 527,98 7.470,25 19.074,81 1.584,53 1.740,95 0,00 0,00 3.325,48 15.749,33 31/01/2021
251 637200 ANDRE FERNANDES DA CUNHA OFICIAL DO MP MORADA NOVA DE MINAS - COMARCA; MORADA NOVA DE MINAS-PJ-UNPJ 5.217,34 521,73 0,00 0,00 0,00 0,00 0,00 1.550,00 7.289,07 734,00 507,03 0,00 0,00 1.241,03 6.048,04 31/01/2021
252 651500 ANDRE GONCALVES MARANHAO OFICIAL DO MP JACINTO - COMARCA; JACINTO-PJ-SECRETARIA 4.376,03 262,56 0,00 0,00 0,00 0,00 0,00 1.550,00 6.188,59 570,31 279,23 0,00 0,00 849,54 5.339,05 31/01/2021
253 521900 ANDRE LUIS GOMES SILVA ANALISTA DO MP FORMIGA - COMARCA; FORMIGA-PJ-02PJ 10.069,62 1.006,96 0,00 0,00 0,00 0,00 0,00 2.319,39 13.395,97 1.584,53 1.259,64 0,00 0,00 2.844,17 10.551,80 31/01/2021
254 304300 ANDRE LUIZ AVELAR ANALISTA DO MP BELO HORIZONTE - COMARCA; DIRETORIA DE REDES E BANCOS DE DADOS 8.436,53 2.530,96 0,00 0,00 0,00 0,00 0,00 1.550,00 12.517,49 1.567,08 1.663,62 0,00 0,00 3.230,70 9.286,79 31/01/2021
255 397400 ANDRE PATARO MYRRHA DE PAULA E SILVA ANALISTA DO MP BELO HORIZONTE - COMARCA; ASSESSORIA JURIDICO-ADMINISTRATIVA 14.324,23 2.864,85 0,00 0,00 0,00 0,00 504,21 7.819,90 25.513,19 2.562,53 3.152,94 0,00 0,00 5.715,47 19.797,72 31/01/2021
256 650100 ANDRE THOME VARGAS OFICIAL DO MP LEOPOLDINA - COMARCA; LEOPOLDINA-PJ-04PJ 4.817,57 289,05 0,00 0,00 1.702,21 0,00 468,11 6.656,62 13.933,56 635,97 828,18 0,00 0,00 1.464,15 12.469,41 31/01/2021
257 548500 ANDRE VINICIUS CARVALHO MEIRA ANALISTA DO MP JUIZ DE FORA - COMARCA; JUIZ DE FORA-PJ-24PJ 9.146,93 914,69 0,00 0,00 0,00 0,00 0,00 1.550,00 11.611,62 1.422,14 1.506,50 0,00 0,00 2.928,64 8.682,98 31/01/2021
258 297200 ANDRE WILLE ROSARIO ANALISTA DO MP BELO HORIZONTE - COMARCA; ASSESSORIA ESPECIAL DO PGJ 17.413,92 5.224,18 0,00 0,00 0,00 0,00 498,04 6.983,14 30.119,28 3.434,37 4.307,39 0,00 0,00 7.741,76 22.377,52 31/01/2021
259 423600 ANDREA COSTA GUALBERTO ALVES ANALISTA DO MP GOVERNADOR VALADARES - COMARCA; COORD REG PJ DEF EDU DIR CRIANCA ADOL RIODOCE 12.601,30 8.820,91 0,00 0,00 0,00 0,00 549,84 7.548,22 29.520,27 3.239,83 4.078,66 0,00 0,00 7.318,49 22.201,78 31/01/2021
260 198600 ANDREA CRISTINA ANDRADE COSTA E SOUZA OFICIAL DO MP MONTES CLAROS - COMARCA; MONTES CLAROS-PJ-15PJ 15.272,02 6.108,81 0,00 0,00 0,00 0,00 0,00 1.550,00 22.930,83 3.233,21 4.069,10 0,00 0,00 7.302,31 15.628,52 31/01/2021
261 467300 ANDREA DE CASSIA PENNA ALVERNAZ ANALISTA DO MP PONTE NOVA - COMARCA; PONTE NOVA-PJ-01PJ 10.069,62 2.013,92 0,00 896,19 335,65 0,00 2.324,07 7.350,10 22.989,55 1.745,64 1.921,43 0,00 0,00 3.667,07 19.322,48 31/01/2021
262 308000 ANDREA DE CASSIA SANTOS OLIVEIRA ANALISTA DO MP BELO HORIZONTE - COMARCA; COORD DE GABINETE DO PGJ 16.750,82 5.025,25 0,00 0,00 0,00 0,00 479,07 6.776,26 29.031,40 3.296,45 4.160,40 0,00 0,00 7.456,85 21.574,55 31/01/2021
263 349500 ANDREA DE OLIVEIRA LOIOLA REGIS OFICIAL DO MP IGUATAMA - COMARCA; IGUATAMA-PJ-UNPJ 9.752,14 1.950,43 0,00 0,00 3.900,86 0,00 0,00 1.550,00 17.153,43 1.684,69 2.906,16 0,00 0,00 4.590,85 12.562,58 31/01/2021
264 287900 ANDREA FERNANDES PENA MARTINS OFICIAL DO MP MONTES CLAROS - COMARCA; MONTES CLAROS-PJ-09PJ 10.069,62 3.020,89 0,00 0,00 0,00 0,00 527,98 7.309,82 20.928,31 1.906,76 2.101,90 0,00 0,00 4.008,66 16.919,65 31/01/2021
265 300800 ANDREA FERREIRA ANALISTA DO MP LAVRAS - COMARCA; LAVRAS-PJ-04PJ 15.272,02 4.581,61 0,00 0,00 0,00 0,00 0,00 1.550,00 21.403,63 2.988,86 3.768,45 0,00 0,00 6.757,31 14.646,32 31/01/2021
266 316700 ANDREA FRANCISCA DIAS DE SOUZA ASSESSOR BELO HORIZONTE - COMARCA; ASSESSORIA JURIDICA DO PROCON-MG 0,00 0,00 3.076,28 0,00 0,00 0,00 0,00 2.319,39 5.395,67 435,97 206,25 0,00 0,00 642,22 4.753,45 31/01/2021
267 395100 ANDREA LANNA MENDES NOVAIS ANALISTA DO MP BELO HORIZONTE - COMARCA; PROMOT ESTADUAL DE DEF PATRI CULT E TUR DE MG 14.324,23 2.864,85 0,00 0,00 0,00 0,00 0,00 1.550,00 18.739,08 2.562,53 3.100,80 0,00 0,00 5.663,33 13.075,75 31/01/2021
268 67300 ANDREA LEAO MAGALHAES ROQUE ASSESSOR BELO HORIZONTE - COMARCA; COORD ESTADUAL COMBATE CRIMES CIBERNETICOS 0,00 7.278,26 10.397,52 0,00 0,00 0,00 0,00 1.550,00 19.225,78 751,99 4.035,05 0,00 0,00 4.787,04 14.438,74 31/01/2021
269 335700 ANDREA LOPES PEREIRA ANALISTA DO MP GOVERNADOR VALADARES - COMARCA; COORD REG DO MA DA BACIA DO RIO DOCE 16.750,82 5.025,25 0,00 0,00 0,00 0,00 479,07 6.776,26 29.031,40 3.296,45 4.212,54 0,00 0,00 7.508,99 21.522,41 31/01/2021
270 389200 ANDREA TUPINI DOS SANTOS TRISTAO DA ROCHA COORDENADOR/OFICIAL BELO HORIZONTE - COMARCA; BH-13ª PJ JUÍZO DE TÓXICOS-SECRETARIA 0,00 2.363,83 11.819,15 0,00 0,00 2.081,55 0,00 1.550,00 17.814,53 2.081,55 3.030,96 0,00 0,00 5.112,51 12.702,02 31/01/2021
271 419000 ANDREIA BARBOSA DE ALMEIDA ANALISTA DO MP BELO HORIZONTE - COMARCA; GABINETE DE PROCURADOR DE JUSTIÇA - SALA 705 12.601,30 2.520,26 0,00 0,00 0,00 0,00 499,01 6.993,76 22.614,33 2.231,73 2.675,34 0,00 0,00 4.907,07 17.707,26 31/01/2021
272 281501 ANDREIA CARLA COSTA ANALISTA DO MP UBÁ - COMARCA; UBA-PJ-02PJ 13.011,52 2.602,30 0,00 0,00 0,00 0,00 515,26 7.170,98 23.300,06 2.310,49 2.789,06 0,00 0,00 5.099,55 18.200,51 31/01/2021
273 477100 ANDREIA DE ALMEIDA RIBEIRO MELO OFICIAL DO MP CONTAGEM - COMARCA; CONTAGEM-PJ-SECRETARIA 7.663,37 1.532,67 0,00 0,00 0,00 0,00 0,00 1.550,00 10.746,04 1.283,64 1.306,55 0,00 0,00 2.590,19 8.155,85 31/01/2021
274 619000 ANDREIA FERREIRA NORONHA COORDENADOR/OFICIAL BELO HORIZONTE - COMARCA; DIRETORIA DE SERVICO CRIMINAL 0,00 1.343,52 13.435,16 0,00 4.926,23 0,00 541,88 7.461,47 27.708,26 762,96 4.311,42 0,00 102,75 5.177,13 22.531,13 31/01/2021
275 424000 ANDREIA LUCIA COUTO ANALISTA DO MP BELO HORIZONTE - COMARCA; BH-18PJ DIREITOS HUMANOS-SECRETARIA 13.011,52 2.602,30 0,00 0,00 0,00 0,00 0,00 1.550,00 17.163,82 2.310,49 2.789,06 0,00 0,00 5.099,55 12.064,27 31/01/2021
276 370100 ANDREIA MARIA SILVA PINTO OFICIAL DO MP CORONEL FABRICIANO - COMARCA; CORONEL FABRICIANO-PJ-01PJ 9.146,93 1.829,39 0,00 0,00 0,00 0,00 0,00 2.319,39 13.295,71 1.568,49 1.717,79 0,00 0,00 3.286,28 10.009,43 31/01/2021
277 382100 ANDREIA NATALI PEREIRA DE OLIVEIRA OFICIAL DO MP PRADOS - COMARCA; PRADOS-PJ-UNPJ 8.858,43 1.771,69 0,00 0,00 0,00 0,00 0,00 1.550,00 12.180,12 1.513,10 1.637,82 0,00 0,00 3.150,92 9.029,20 31/01/2021
278 275200 ANDREIA RIBEIRO FREITAS OFICIAL DO MP VIÇOSA - COMARCA; VICOSA-PJ-04PJ 10.069,62 3.020,89 0,00 0,00 0,00 0,00 527,98 7.309,82 20.928,31 1.906,76 2.154,03 0,00 0,00 4.060,79 16.867,52 31/01/2021
279 352200 ANDREIA XAVIER PEREIRA OFICIAL DO MP CLÁUDIO - COMARCA; CLAUDIO-PJ-UNPJ 9.752,14 1.950,43 0,00 0,00 0,00 0,00 514,91 7.167,23 19.384,71 1.684,69 1.885,56 0,00 0,00 3.570,25 15.814,46 31/01/2021
280 638500 ANDRESA ALVES FEITOSA CASAGRANDE ANALISTA DO MP LAVRAS - COMARCA; COORD REG DO MA DA BACIA DO RIO GRANDE 8.170,49 817,05 0,00 0,00 0,00 0,00 0,00 1.550,00 10.537,54 841,65 1.370,76 0,00 0,00 2.212,41 8.325,13 31/01/2021
281 383700 ANDRESSA EDUARDO SOUZA ANALISTA DO MP OURO BRANCO - COMARCA; OURO BRANCO-PJ-SECRETARIA 14.324,23 2.864,85 0,00 0,00 5.729,69 0,00 0,00 2.319,39 25.238,16 2.562,53 4.728,61 0,00 0,00 7.291,14 17.947,02 31/01/2021
282 678400 ANDRESSA LUIZA SILVA LOPES ASSESSOR PROMOTOR JUSTICA CARMO DO PARANAÍBA - COMARCA; CARMO DO PARANAIBA-PJ-02PJ 0,00 0,00 7.187,72 0,00 0,00 0,00 0,00 1.550,00 8.737,72 751,99 1.202,97 0,00 0,00 1.954,96 6.782,76 31/01/2021
283 426200 ANDRESSA MENDES CASAL OFICIAL DO MP BELO HORIZONTE - COMARCA; DIR ESTRUTURA E PROCESSOS ORGANIZACIONAIS 7.421,79 1.484,36 0,00 0,00 0,00 0,00 0,00 1.550,00 10.456,15 1.237,26 1.239,58 0,00 0,00 2.476,84 7.979,31 31/01/2021
284 390100 ANDRESSA RIBEIRO PUCCI OFICIAL DO MP UBERABA - COMARCA; UBERABA-PJ-14PJ 6.741,63 1.348,33 0,00 0,00 0,00 0,00 444,95 6.403,98 14.938,89 1.106,67 1.051,04 0,00 0,00 2.157,71 12.781,18 31/01/2021
285 462500 ANDREZA APARECIDA COSTA E SILVA ANALISTA DO MP CONSELHEIRO LAFAIETE - COMARCA; CONSELHEIRO LAFAIETE-PJ-02PJ 10.069,62 2.013,92 0,00 896,19 0,00 0,00 2.324,07 7.350,10 22.653,90 1.745,64 1.973,56 0,00 0,00 3.719,20 18.934,70 31/01/2021
286 677700 ANDREZA DE LOURDES FERREIRA DE PAIVA ASSESSOR PROMOTOR JUSTICA ABRE CAMPO - COMARCA; ABRE CAMPO-PJ-01PJ 0,00 0,00 7.187,72 0,00 0,00 0,00 0,00 1.550,00 8.737,72 751,99 1.202,97 0,00 0,00 1.954,96 6.782,76 31/01/2021
287 537800 ANDREZZA LUZIA DE OLIVEIRA ALVES ANALISTA DO MP PATOS DE MINAS - COMARCA; COORD REG PJ DEF EDU DIR CRI ADO AL PAR NOROE 9.146,93 914,69 0,00 0,00 0,00 0,00 516,50 7.184,51 17.762,63 1.422,14 1.454,36 0,00 0,00 2.876,50 14.886,13 31/01/2021
288 491600 ANE PATRICIA RIBEIRO ANALISTA DO MP SETE LAGOAS - COMARCA; SETE LAGOAS-PJ-11PJ 10.069,62 1.006,96 0,00 0,00 0,00 0,00 0,00 1.550,00 12.626,58 1.584,53 1.688,82 0,00 0,00 3.273,35 9.353,23 31/01/2021
289 465800 ANELISE GAMA ASSESSOR BELO HORIZONTE - COMARCA; BH-18PJ VIOLENCIA DOMESTICA-SECRETARIA 0,00 0,00 8.170,49 0,00 0,00 0,00 0,00 1.550,00 9.720,49 751,99 1.473,23 0,00 0,00 2.225,22 7.495,27 31/01/2021
290 535200 ANELIZE FERNANDA ALVES VILARINHO OFICIAL DO MP CAPINÓPOLIS - COMARCA; CAPINOPOLIS-PJ-UNPJ 5.387,19 538,72 0,00 0,00 1.975,30 0,00 543,21 8.245,30 16.689,72 762,96 1.093,66 0,00 0,00 1.856,62 14.833,10 31/01/2021
291 197200 ANGELA COELHO SALDANHA OFICIAL DO MP PARÁ DE MINAS - COMARCA; PARA DE MINAS-PJ-03PJ 15.272,02 6.108,81 0,00 0,00 0,00 0,00 0,00 1.550,00 22.930,83 3.233,21 4.121,24 0,00 0,00 7.354,45 15.576,38 31/01/2021
292 307400 ANGELA CRISTINA GONCALVES MUNIZ ANALISTA DO MP UBERLÂNDIA - COMARCA; UBERLANDIA-PJ-SEC FAMILIA 17.413,92 6.965,57 0,00 0,00 0,00 0,00 0,00 2.319,39 26.698,88 3.713,00 4.761,79 0,00 0,00 8.474,79 18.224,09 31/01/2021
293 191800 ANGELA MARIA DE OLIVEIRA OFICIAL DO MP GUARANÉSIA - COMARCA; GUARANESIA-PJ-SECRETARIA 15.272,02 10.690,41 0,00 0,00 0,00 0,00 0,00 1.550,00 27.512,43 3.966,27 5.179,58 0,00 0,00 9.145,85 18.366,58 31/01/2021
294 497400 ANGELA MARIA HENRIQUES ANALISTA DO MP BELO HORIZONTE - COMARCA; COORD REG BACIAS RIO VELHAS E PARAOPEBA 10.069,62 1.006,96 0,00 0,00 0,00 0,00 527,98 7.309,82 18.914,38 1.584,53 1.740,95 0,00 0,00 3.325,48 15.588,90 31/01/2021
295 260700 ANGELICA CRISTINA AZEVEDO MOREIRA MOUCO OFICIAL DO MP UBÁ - COMARCA; UBA-PJ-05PJ 12.601,30 3.780,39 0,00 0,00 5.460,56 0,00 540,60 7.447,41 29.830,26 2.433,35 4.468,09 0,00 0,00 6.901,44 22.928,82 31/01/2021
296 334600 ANGELICA PANISSA DE FREITAS GALLATI OFICIAL DO MP GUAXUPÉ - COMARCA; GUAXUPE-PJ-02PJ 10.069,62 3.020,89 0,00 0,00 0,00 0,00 0,00 2.319,39 15.409,90 1.906,76 2.154,03 0,00 0,00 4.060,79 11.349,11 31/01/2021
297 521100 ANGELICA SALES MOREIRA OFICIAL DO MP BELO HORIZONTE - COMARCA; BH-02PJ FAMILIA-SECRETARIA 7.421,79 742,18 0,00 0,00 0,00 0,00 538,82 7.428,06 16.130,85 1.118,51 1.068,14 0,00 0,00 2.186,65 13.944,20 31/01/2021
298 466500 ANGELLO MARQUES AGRELLI ANALISTA DO MP MAR DE ESPANHA - COMARCA; MAR DE ESPANHA-PJ-UNPJ 10.069,62 2.013,92 0,00 896,19 335,65 0,00 1.792,39 1.550,00 16.657,77 1.745,64 1.973,56 0,00 0,00 3.719,20 12.938,57 31/01/2021
299 363300 ANGELO VERDOLIN HENRIQUES ANALISTA DO MP SETE LAGOAS - COMARCA; SETE LAGOAS-PJ-04PJ 15.272,02 6.108,81 0,00 0,00 7.126,94 0,00 548,77 8.306,02 37.362,56 3.233,21 6.081,14 0,00 0,00 9.314,35 28.048,21 31/01/2021
300 250900 ANISIO APARECIDO SANTOS OFICIAL DO MP MARIANA - COMARCA; MARIANA-PJ-02PJ 6.123,79 2.449,52 0,00 0,00 0,00 0,00 534,40 7.379,85 16.487,56 1.184,01 536,13 0,00 0,00 1.720,14 14.767,42 31/01/2021
301 651200 ANITA MARIA SANT ANA DE MATTOS FONTES OFICIAL DO MP ERVÁLIA - COMARCA; ERVALIA-PJ-UNPJ 4.817,57 3.372,30 0,00 0,00 0,00 0,00 0,00 1.550,00 9.739,87 1.122,66 1.021,99 0,00 0,00 2.144,65 7.595,22 31/01/2021
302 698100 ANNA CAROLINA POLICARIO BERTOLIN ASSESSOR PROCURADOR JUSTICA BELO HORIZONTE - COMARCA; PROC. JUSTICA DIR. DIFUSOS E COLETIVOS 0,00 0,00 7.187,72 0,00 0,00 0,00 0,00 1.550,00 8.737,72 751,99 1.202,97 0,00 0,00 1.954,96 6.782,76 31/01/2021
303 253400 ANNA FLAVIA LEHMAN BATTAGLIA ANALISTA DO MP BELO HORIZONTE - COMARCA; CAO-PATRIMONIO PUBLICO 18.103,37 5.431,01 0,00 0,00 0,00 0,00 517,76 7.198,25 31.250,39 3.577,78 4.462,29 0,00 0,00 8.040,07 23.210,32 31/01/2021
304 688800 ANNA LUIZA MATTOS DUARTE ASSESSOR PROCURADOR JUSTICA BELO HORIZONTE - COMARCA; GABINETE DE PROCURADOR DE JUSTIÇA - SALA 305 0,00 0,00 7.187,72 0,00 0,00 0,00 0,00 1.550,00 8.737,72 751,99 1.202,97 0,00 0,00 1.954,96 6.782,76 31/01/2021
305 447600 ANNGELUCE ALCANTARA DE CAMPOS OFICIAL DO MP DIVINÓPOLIS - COMARCA; DIVINOPOLIS-PJ-SECRETARIA 7.421,79 1.484,36 0,00 0,00 0,00 0,00 522,49 7.249,94 16.678,58 1.237,26 1.239,58 0,00 0,00 2.476,84 14.201,74 31/01/2021
306 119600 ANSELMO BORGES PARREIRAS OFICIAL DO MP BONFIM - COMARCA; BONFIM-PJ-UNPJ 7.912,85 6.330,29 0,00 0,00 0,00 2.338,16 0,00 1.550,00 18.131,30 2.091,18 2.995,37 0,00 0,00 5.086,55 13.044,75 31/01/2021
307 630300 ANTONIA GOMES RAMALHO OFICIAL DO MP NOVO CRUZEIRO - COMARCA; NOVO CRUZEIRO-PJ-UNPJ 5.387,19 538,72 0,00 0,00 0,00 0,00 0,00 3.088,78 9.014,69 762,96 550,45 0,00 0,00 1.313,41 7.701,28 31/01/2021
308 332400 ANTONIA MARIA MAMEDE OFICIAL DO MP UBERLÂNDIA - COMARCA; COORD REG PP TRIANGULO MINEIRO UBERLANDIA 9.752,14 2.925,64 0,00 0,00 0,00 2.060,54 0,00 1.550,00 16.288,32 1.840,72 2.617,03 0,00 0,00 4.457,75 11.830,57 31/01/2021
309 401600 ANTONIO CARLOS GUEDES AROUCA ANALISTA DO MP BELO HORIZONTE - COMARCA; COORD EST DEF DIR FAM PESSOAS DEFICI IDOSOS 11.819,15 2.363,83 0,00 0,00 0,00 0,00 0,00 1.550,00 15.732,98 2.081,55 2.458,53 0,00 0,00 4.540,08 11.192,90 31/01/2021
310 333900 ANTONIO GONCALVES DE SOUZA FILHO OFICIAL DO MP BELO HORIZONTE - COMARCA; DIRETORIA DE CONTABILIDADE 9.752,14 2.925,64 0,00 0,00 0,00 0,00 0,00 1.550,00 14.227,78 1.840,72 2.110,83 0,00 0,00 3.951,55 10.276,23 31/01/2021
311 176100 ANTONIO MARCELO CAMPOS CAMPANELLA OFICIAL DO MP BELO HORIZONTE - COMARCA; COORD DE GABINETE DO PGJ 15.272,02 7.636,01 0,00 0,00 0,00 0,00 0,00 1.550,00 24.458,03 3.477,56 4.474,02 0,00 0,00 7.951,58 16.506,45 31/01/2021
312 321001 ANTONIO OLINTO VIEIRA MACHADO ANALISTA DO MP BELO HORIZONTE - COMARCA; CENTRAL DE APOIO TECN-SETOR DE MEIO AMBIENTE 14.324,23 2.864,85 0,00 0,00 0,00 0,00 504,21 7.050,51 24.743,80 2.562,53 3.048,67 0,00 0,00 5.611,20 19.132,60 31/01/2021
313 356200 ANTONIO PAULA DA SILVA OFICIAL DO MP JUIZ DE FORA - COMARCA; JUIZ DE FORA-PJ-20PJ 8.579,10 2.573,73 0,00 0,00 0,00 0,00 531,62 7.349,47 19.033,92 1.596,73 1.758,57 0,00 0,00 3.355,30 15.678,62 31/01/2021
314 119900 ANTONIO RODRIGUES DE PINHO OFICIAL DO MP GUANHÃES - COMARCA; GUANHAES-PJ-01PJ 14.790,66 10.353,46 0,00 0,00 0,00 0,00 460,98 7.348,21 32.953,31 3.835,34 4.886,28 0,00 0,00 8.721,62 24.231,69 31/01/2021
315 373300 ANTONIO SERGIO ANANIAS OFICIAL DO MP AIURUOCA - COMARCA; AIURUOCA-PJ-UNPJ 8.579,10 1.715,82 0,00 0,00 0,00 0,00 0,00 1.550,00 11.844,92 1.459,46 1.456,12 0,00 0,00 2.915,58 8.929,34 31/01/2021
316 608100 ANTONIO SIDINEY VIEIRA LEMOS ANALISTA DO MP PIRAPORA - COMARCA; PIRAPORA-PJ-01PJ 8.436,53 3.374,61 0,00 0,00 0,00 0,00 519,69 7.219,35 19.550,18 1.702,06 1.910,64 0,00 0,00 3.612,70 15.937,48 31/01/2021
317 374700 ANTONIO SILVA NETO OFICIAL DO MP BELO HORIZONTE - COMARCA; GAECO - SECRETARIA 8.858,43 1.771,69 0,00 0,00 0,00 0,00 0,00 1.550,00 12.180,12 1.513,10 1.637,82 0,00 0,00 3.150,92 9.029,20 31/01/2021
318 636700 ANTONIUS VITORIANO FERNANDES OFICIAL DO MP BELO HORIZONTE - COMARCA; ASSESSORIA JURIDICA DO PROCON-MG 4.817,57 481,76 0,00 0,00 0,00 0,00 0,00 1.550,00 6.849,33 665,84 406,41 0,00 0,00 1.072,25 5.777,08 31/01/2021
319 413200 ANY PEREIRA SILVA ANALISTA DO MP TRÊS PONTAS - COMARCA; TRES PONTAS-PJ-01PJ 12.601,30 2.520,26 0,00 0,00 0,00 0,00 499,01 6.993,76 22.614,33 2.231,73 2.675,34 0,00 0,00 4.907,07 17.707,26 31/01/2021
320 151401 APARECIDA DE FATIMA MENDES DE ALMEIDA ASSESSOR JUIZ DE FORA - COMARCA; JUIZ DE FORA-PJ-SECRETARIA 0,00 0,00 5.136,32 0,00 0,00 0,00 0,00 1.550,00 6.686,32 724,37 646,43 0,00 0,00 1.370,80 5.315,52 31/01/2021
321 329300 APARECIDA MARIA MELO DE ASSIS OFICIAL DO MP BELO HORIZONTE - COMARCA; BH-18PJ DIREITOS HUMANOS-SECRETARIA 10.069,62 3.020,89 0,00 0,00 0,00 0,00 0,00 1.550,00 14.640,51 1.906,76 2.206,17 0,00 0,00 4.112,93 10.527,58 31/01/2021
322 475300 APARECIDA MARLENE FREIRE ROSA ANALISTA DO MP BELO HORIZONTE - COMARCA; BH-02PJ FAMILIA-SECRETARIA 12.204,02 10.983,62 0,00 0,00 0,00 4.691,09 0,00 1.550,00 29.428,73 3.522,30 5.507,24 0,00 0,00 9.029,54 20.399,19 31/01/2021
323 653000 APARECIDA ROSA DE LIMA ASSESSOR BELO HORIZONTE - COMARCA; SECRETARIA PROCESSOS DISCIPES ADMINISTRATIVOS 0,00 0,00 8.170,49 0,00 2.723,50 0,00 539,25 7.432,75 18.865,99 751,99 2.222,19 0,00 0,00 2.974,18 15.891,81 31/01/2021
324 354500 APARECIDA VIEIRA DE CARVALHO OFICIAL DO MP BELO HORIZONTE - COMARCA; DIVISÃO DE EDUCAÇÃO PARA O CONSUMO 7.663,37 1.532,67 0,00 0,00 0,00 0,00 539,50 7.435,47 17.171,01 1.283,64 1.306,55 0,00 0,00 2.590,19 14.580,82 31/01/2021
325 551000 ARACELES BICALHO FELIX ANALISTA DO MP MANHUAÇU - COMARCA; MANHUACU-PJ-02PJ 9.146,93 914,69 0,00 0,00 0,00 0,00 0,00 2.319,39 12.381,01 1.422,14 1.506,50 0,00 0,00 2.928,64 9.452,37 31/01/2021
326 286200 ARACELI MEDRADO DOS SANTOS LIMA OFICIAL DO MP PARACATU - COMARCA; PARACATU-PJ-03PJ 6.123,79 1.837,14 0,00 0,00 0,00 0,00 467,04 6.645,00 15.072,97 1.086,03 1.021,24 0,00 0,00 2.107,27 12.965,70 31/01/2021
327 112200 ARAQUEM AUGUSTO DE MATOS AGENTE DO MP BELO HORIZONTE - COMARCA; BH-23PJ CIVEL-SEC EXP CIVEIS 8.858,43 7.086,74 0,00 0,00 5.315,06 4.459,13 0,00 1.550,00 27.269,36 2.363,50 4.820,79 0,00 0,00 7.184,29 20.085,07 31/01/2021
328 280600 ARDUINO FRATTEZI ANALISTA DO MP BELO HORIZONTE - COMARCA; CENTRAL DE APOIO TECNICO-SETOR CONTABIL 17.413,92 5.224,18 0,00 0,00 0,00 0,00 498,04 6.983,14 30.119,28 3.434,37 4.411,67 0,00 0,00 7.846,04 22.273,24 31/01/2021
329 520201 ARIANE DE FATIMA CARVALHO ALMEIDA RODRIGUES ANALISTA DO MP VESPASIANO - COMARCA; VESPASIANO-PJ-04PJ 8.436,53 843,65 0,00 0,00 0,00 0,00 0,00 2.319,39 11.599,57 1.297,11 1.169,57 0,00 0,00 2.466,68 9.132,89 31/01/2021
330 537600 ARIELA FREIRE MONTIJO ANALISTA DO MP ARCOS - COMARCA; ARCOS-PJ-01PJ 9.146,93 914,69 0,00 0,00 3.353,87 0,00 0,00 2.319,39 15.734,88 1.422,14 2.324,54 0,00 0,00 3.746,68 11.988,20 31/01/2021
331 182000 ARILSON ALEXANDRE MARTINS MAGALHAES OFICIAL DO MP JOÃO MONLEVADE - COMARCA; JOAO MONLEVADE-PJ-01PJ 14.790,66 7.395,33 0,00 0,00 0,00 0,00 488,09 8.413,42 31.087,50 3.362,04 4.098,68 0,00 0,00 7.460,72 23.626,78 31/01/2021
332 511000 ARISLANE CAROLINA DA SILVA ANALISTA DO MP CAMPINA VERDE - COMARCA; CAMPINA VERDE-PJ-UNPJ 10.069,62 1.006,96 0,00 0,00 0,00 0,00 0,00 3.088,78 14.165,36 1.584,53 1.740,95 0,00 0,00 3.325,48 10.839,88 31/01/2021
333 170000 ARLEY BRITES DA SILVA ASSESSOR BELO HORIZONTE - COMARCA; BH-14PJ DEFESA CONSUMIDOR-SECRETARIA 0,00 2.054,53 5.136,32 0,00 2.396,95 0,00 527,33 7.302,68 17.417,81 743,55 1.239,15 0,00 0,00 1.982,70 15.435,11 31/01/2021
334 120400 ARLINDO CASSIO DA CRUZ OFICIAL DO MP SÃO GONÇALO DO SAPUCAÍ - COMARCA; SAO GONCALO DO SAPUCAI-PJ-01PJ 18.820,14 15.056,11 0,00 0,00 0,00 5.232,48 0,00 1.550,00 40.658,73 5.232,48 8.342,33 0,00 0,00 13.574,81 27.083,92 31/01/2021
335 243700 ARLINDO MARCIO LACERDA OFICIAL DO MP CONTAGEM - COMARCA; CONTAGEM-PJ-SECRETARIA 12.601,30 5.040,52 0,00 0,00 0,00 0,00 1.445,27 1.550,00 20.637,09 2.634,97 3.654,97 0,00 0,00 6.289,94 14.347,15 31/01/2021
336 392100 ARNALDO DE ANDRADE OFICIAL DO MP DIVINÓPOLIS - COMARCA; DIVINOPOLIS-PJ-02PJ 8.858,43 1.771,69 0,00 0,00 4.025,13 0,00 1.445,27 2.319,39 18.419,91 1.513,10 3.090,04 0,00 0,00 4.603,14 13.816,77 31/01/2021
337 642400 ARTANE INARDE DE SIQUEIRA DAMASCENO ANALISTA DO MP BELO HORIZONTE - COMARCA; PROC JUST RECURSOS ESP E EXTRAORD CRIMINAIS 8.170,49 490,23 0,00 0,00 0,00 0,00 0,00 2.319,39 10.980,11 841,65 1.280,88 0,00 0,00 2.122,53 8.857,58 31/01/2021
338 302100 AUGUSTO ROUSSEAU DE CASTRO ANALISTA DO MP CATAGUASES - COMARCA; CATAGUASES-PJ-02PJ 18.820,14 5.646,04 0,00 0,00 0,00 0,00 538,26 7.421,88 32.426,32 3.726,87 4.833,95 0,00 0,00 8.560,82 23.865,50 31/01/2021
339 540200 AUREA AVELAR BITTENCOURT OFICIAL DO MP BELO HORIZONTE - COMARCA; GRUPO ESP PROM JUST DEF PROB ADM PAT PUB 5.387,19 538,72 0,00 0,00 0,00 0,00 0,00 1.550,00 7.475,91 762,96 446,18 0,00 0,00 1.209,14 6.266,77 31/01/2021
340 183200 AURELIANO MAGELA DE REZENDE COORDENADOR/OFICIAL BELO HORIZONTE - COMARCA; COORD DE GABINETE DO PGJ 15.499,20 6.199,68 2.687,03 0,00 0,00 0,00 536,49 7.402,62 32.325,02 3.284,10 4.933,64 0,00 0,00 8.217,74 24.107,28 31/01/2021
341 629400 AYESKA DA COSTA VAL MOURA DABIEN OFICIAL DO MP BELO HORIZONTE - COMARCA; BH-09PJ AUDITORIA MILITAR-SECRETARIA 5.387,19 538,72 0,00 0,00 0,00 0,00 0,00 1.550,00 7.475,91 762,96 550,45 0,00 0,00 1.313,41 6.162,50 31/01/2021
342 691900 BARBARA COUTINHO REIS ASSESSOR PROCURADOR JUSTICA BELO HORIZONTE - COMARCA; GABINETE DE PROCURADOR DE JUSTIÇA - SALA 912 0,00 0,00 7.187,72 0,00 0,00 0,00 0,00 1.550,00 8.737,72 751,99 1.202,97 0,00 0,00 1.954,96 6.782,76 31/01/2021
343 692200 BARBARA CRISTINA MENDES BANDEIRA DE MELO ASSESSOR PROCURADOR JUSTICA BELO HORIZONTE - COMARCA; GABINETE DE PROCURADOR DE JUSTIÇA - SALA 1009 0,00 0,00 7.187,72 0,00 0,00 0,00 0,00 1.550,00 8.737,72 751,99 1.202,97 0,00 0,00 1.954,96 6.782,76 31/01/2021
344 652800 BARBARA JULIANNE MOREIRA CASTRO ASSESSOR BELO HORIZONTE - COMARCA; ASSESS TECNICO-JUR JUNTO AS PROC. DE JUST 0,00 0,00 8.170,49 0,00 0,00 0,00 0,00 1.550,00 9.720,49 751,99 1.473,23 0,00 0,00 2.225,22 7.495,27 31/01/2021
345 663600 BARBARA REGINA PEREIRA DE PINHO MAGALHAES ASSESSOR BELO HORIZONTE - COMARCA; CAO-DH CONT EXT ATIV POLIC E AP COMUNIT-REC 0,00 0,00 8.170,49 0,00 0,00 0,00 0,00 1.550,00 9.720,49 751,99 1.473,23 0,00 0,00 2.225,22 7.495,27 31/01/2021
346 692400 BARBARA SOUZA OLIVEIRA ASSESSOR PROMOTOR JUSTICA DIVINO - COMARCA; DIVINO-PJ-UNPJ 0,00 0,00 7.187,72 0,00 0,00 0,00 0,00 1.550,00 8.737,72 751,99 1.202,97 0,00 0,00 1.954,96 6.782,76 31/01/2021
347 546500 BARBARA ZACARONI GOULART OFICIAL DO MP BETIM - COMARCA; BETIM-PJ-08PJ 5.387,19 538,72 0,00 0,00 0,00 0,00 0,00 1.550,00 7.475,91 762,96 550,45 0,00 0,00 1.313,41 6.162,50 31/01/2021
348 316500 BEATRIZ ABILVIA DA SILVA ANALISTA DO MP GOVERNADOR VALADARES - COMARCA; GOVERNADOR VALADARES-PJ-07PJ 16.750,82 5.025,25 0,00 0,00 0,00 0,00 479,07 6.776,26 29.031,40 3.296,45 4.212,54 0,00 0,00 7.508,99 21.522,41 31/01/2021
349 311800 BEATRIZ APARECIDA SOARES GANEM OFICIAL DO MP ITAMBACURI - COMARCA; ITAMBACURI-PJ-02PJ 10.069,62 3.020,89 0,00 0,00 0,00 0,00 527,98 7.309,82 20.928,31 1.906,76 2.049,76 0,00 0,00 3.956,52 16.971,79 31/01/2021
350 266800 BEATRIZ AUGUSTA VILACA GOMES DE HUBER OFICIAL DO MP BELO HORIZONTE - COMARCA; BH-05PJ-JUÍZO SUCESSÕES-SEC 9.146,93 2.744,08 0,00 0,00 0,00 0,00 0,00 1.550,00 13.441,01 1.714,84 1.929,09 0,00 0,00 3.643,93 9.797,08 31/01/2021
351 235200 BEATRIZ BOTELHO BATISTA OFICIAL DO MP BELO HORIZONTE - COMARCA; BH-21PJ TUTELA FUNDACOES-SECRETARIA 10.069,62 4.027,85 0,00 0,00 0,00 0,00 0,00 1.550,00 15.647,47 2.067,87 2.438,78 0,00 0,00 4.506,65 11.140,82 31/01/2021
352 182300 BEATRIZ PAULA SOUSA RAMOS OFICIAL DO MP MARIANA - COMARCA; MARIANA-PJ-01PJ 14.790,66 7.395,33 0,00 0,00 0,00 0,00 0,00 1.550,00 23.735,99 3.362,04 4.255,09 0,00 0,00 7.617,13 16.118,86 31/01/2021
353 507000 BELCHIOR FRANKLIN AMARAL LEITE ANALISTA DO MP BELO HORIZONTE - COMARCA; CENTRAL DE APOIO TECNICO 10.069,62 1.006,96 0,00 0,00 0,00 0,00 527,98 8.079,21 19.683,77 1.584,53 1.584,54 0,00 0,00 3.169,07 16.514,70 31/01/2021
354 345100 BENITO ELIAS RODRIGUES ANALISTA DO MP BARBACENA - COMARCA; BARBACENA - SECRETARIA DAS PJS CRIMINAIS 15.272,02 3.054,40 0,00 0,00 0,00 0,00 537,57 7.414,45 26.278,44 2.744,50 3.415,67 0,00 0,00 6.160,17 20.118,27 31/01/2021
355 207300 BENITO VIEIRA DOS SANTOS ANALISTA DO MP BELO HORIZONTE - COMARCA; COMB CRIMES PRAT POR AG POL MUN-ASSESSORIA 18.820,14 7.528,06 0,00 0,00 0,00 4.027,99 483,05 6.819,64 37.678,88 4.027,99 5.167,94 0,00 0,00 9.195,93 28.482,95 31/01/2021
356 480200 BERNADETE NUNES DOS SANTOS ANALISTA DO MP GUANHÃES - COMARCA; GUANHAES-PJ-02PJ 10.069,62 3.020,89 0,00 0,00 4.363,50 0,00 0,00 1.550,00 19.004,01 1.906,76 3.406,13 0,00 0,00 5.312,89 13.691,12 31/01/2021
357 378400 BETANIA FARNESI DE SOUZA E SILVA OFICIAL DO MP SETE LAGOAS - COMARCA; SETE LAGOAS-PJ-SEC CRIMINAIS 8.858,43 3.543,37 0,00 0,00 0,00 0,00 0,00 1.550,00 13.951,80 1.796,57 1.994,94 0,00 0,00 3.791,51 10.160,29 31/01/2021
358 387400 BETANIA MENDONCA DE ASSIS CARVALHO ANALISTA DO MP JUIZ DE FORA - COMARCA; JUIZ DE FORA-PJ-03PJ 14.324,23 2.864,85 0,00 0,00 0,00 0,00 0,00 2.319,39 19.508,47 2.562,53 3.100,80 0,00 0,00 5.663,33 13.845,14 31/01/2021
359 450300 BIANCA OLIVEIRA DE ALBUQUERQUE ANALISTA DO MP BELO HORIZONTE - COMARCA; BH-10PJ EXECUÇÃO PENAL-SECRETARIA 10.069,62 2.013,92 0,00 0,00 0,00 0,00 0,00 1.550,00 13.633,54 1.745,64 1.973,56 0,00 0,00 3.719,20 9.914,34 31/01/2021
360 535400 BIANCA SALOTO ROSSI ANALISTA DO MP SANTOS DUMONT - COMARCA; SANTOS DUMONT-PJ-01PJ 9.146,93 914,69 0,00 0,00 0,00 0,00 0,00 2.319,39 12.381,01 1.422,14 1.506,50 0,00 0,00 2.928,64 9.452,37 31/01/2021
361 120800 BRAS MARQUES DE SOUZA ANALISTA DO MP BELO HORIZONTE - COMARCA; SUPERINTENDENCIA DE GESTAO ADMINISTRATIVA 23.757,25 19.005,81 0,00 0,00 0,00 5.486,23 520,11 7.223,96 55.993,36 5.486,23 8.778,48 7.300,84 0,00 21.565,55 34.427,81 31/01/2021
362 460900 BRENO CRISTIANO DE SOUZA REZENDE ANALISTA DO MP ITAÚNA - COMARCA; ITAUNA-PJ-02PJ 9.752,14 1.950,43 0,00 867,94 0,00 0,00 2.050,72 1.550,00 16.171,23 1.684,69 1.885,56 0,00 0,00 3.570,25 12.600,98 31/01/2021
363 239000 BRENO VENANCIO ROMANINI OFICIAL DO MP BELO HORIZONTE - COMARCA; BH-20PJ ORD ECON TRIBUTARIA-SECRETARIA 10.069,62 3.020,89 0,00 0,00 0,00 0,00 0,00 1.550,00 14.640,51 1.906,76 2.206,17 0,00 0,00 4.112,93 10.527,58 31/01/2021
364 202201 BRIGITTE AMARALINA DE CALDAS LIMA OFICIAL DO MP NANUQUE - COMARCA; NANUQUE-PJ-03PJ 10.069,62 4.027,85 0,00 0,00 0,00 0,00 516,91 7.188,99 21.803,37 2.067,87 2.178,09 0,00 0,00 4.245,96 17.557,41 31/01/2021
365 642300 BRUNA IZABELITA DE FATIMA OLIVEIRA COSTA OFICIAL DO MP BELO HORIZONTE - COMARCA; BH-02PJ FAMILIA-SECRETARIA 5.217,34 521,73 0,00 185,73 1.913,02 0,00 834,76 1.550,00 10.222,58 734,31 1.033,03 0,00 0,00 1.767,34 8.455,24 31/01/2021
366 513600 BRUNA KARLA MARTINS CARVALHO ANALISTA DO MP GOVERNADOR VALADARES - COMARCA; GOVERNADOR VALADARES-PJ-14PJ 10.069,62 1.006,96 0,00 0,00 0,00 0,00 527,98 7.309,82 18.914,38 1.584,53 1.740,95 0,00 0,00 3.325,48 15.588,90 31/01/2021
367 415100 BRUNA MARIA SOARES OLIVEIRA COSTA RAMOS ANALISTA DO MP UBÁ - COMARCA; COORD REG BACIA DO RIO PARAIBA DO SUL 13.011,52 2.602,30 0,00 0,00 0,00 0,00 0,00 1.550,00 17.163,82 2.310,49 2.789,06 0,00 0,00 5.099,55 12.064,27 31/01/2021
368 692900 BRUNA MENDES COELHO ASSESSOR PROCURADOR JUSTICA BELO HORIZONTE - COMARCA; GABINETE DE PROCURADOR DE JUSTIÇA - SALA 801 0,00 0,00 7.187,72 0,00 0,00 0,00 0,00 1.550,00 8.737,72 751,99 1.202,97 0,00 0,00 1.954,96 6.782,76 31/01/2021
369 470000 BRUNA MORAES ANALISTA DO MP TOMBOS - COMARCA; TOMBOS-PJ-UNPJ 12.204,02 2.440,80 0,00 1.086,16 406,80 0,00 2.977,78 7.407,93 26.523,49 2.155,45 2.408,81 0,00 0,00 4.564,26 21.959,23 31/01/2021
370 614700 BRUNA NATTANY DE LIMA OFICIAL DO MP MANTENA - COMARCA; MANTENA-PJ-01PJ 5.387,19 538,72 0,00 0,00 0,00 0,00 543,21 7.475,91 13.945,03 762,96 550,45 0,00 0,00 1.313,41 12.631,62 31/01/2021
371 693300 BRUNA RAMONY ROCHA DA CRUZ ASSESSOR PROMOTOR JUSTICA JAIBA - COMARCA; JAIBA-PJ-UNPJ 0,00 0,00 7.187,72 0,00 0,00 0,00 0,00 1.550,00 8.737,72 751,99 1.202,97 0,00 0,00 1.954,96 6.782,76 31/01/2021
372 631800 BRUNA RAPOSO JORGE OFICIAL DO MP JUIZ DE FORA - COMARCA; JUIZ DE FORA-PJ-06PJ 5.387,19 538,72 0,00 0,00 0,00 0,00 282,47 4.631,47 10.839,85 762,96 550,45 0,00 0,00 1.313,41 9.526,44 31/01/2021
373 697400 BRUNA SILVA SANTOS ASSESSOR PROMOTOR JUSTICA TIMÓTEO - COMARCA; TIMOTEO-PJ-04PJ 0,00 0,00 7.187,72 0,00 0,00 0,00 0,00 1.550,00 8.737,72 751,99 1.202,97 0,00 0,00 1.954,96 6.782,76 31/01/2021
374 699300 BRUNA URSINE TIMO ASSESSOR PROCURADOR JUSTICA BELO HORIZONTE - COMARCA; COMB CRIMES PRAT POR AG POL MUN-ASSESSORIA 0,00 0,00 7.187,72 0,00 0,00 0,00 0,00 1.550,00 8.737,72 751,99 1.202,97 0,00 0,00 1.954,96 6.782,76 31/01/2021
375 463800 BRUNO ALVES TEIXEIRA ANALISTA DO MP UBERLÂNDIA - COMARCA; UBERLANDIA-PJ-04PJ 10.069,62 2.013,92 0,00 896,19 335,65 0,00 2.324,07 7.350,10 22.989,55 1.745,64 1.973,56 0,00 0,00 3.719,20 19.270,35 31/01/2021
376 538500 BRUNO AUGUSTO DA SILVA OFICIAL DO MP SANTA LUZIA - COMARCA; SANTA LUZIA-PJ-03PJ 5.930,75 593,08 0,00 0,00 0,00 0,00 0,00 1.550,00 8.073,83 856,09 689,27 0,00 0,00 1.545,36 6.528,47 31/01/2021
377 318200 BRUNO BARROS DE SOUZA OFICIAL DO MP UBÁ - COMARCA; UBA-PJ-04PJ 10.069,62 3.020,89 0,00 0,00 0,00 0,00 527,98 7.309,82 20.928,31 1.906,76 1.727,27 0,00 0,00 3.634,03 17.294,28 31/01/2021
378 459600 BRUNO CASTELAR LUGAO MENDES OFICIAL DO MP GOVERNADOR VALADARES - COMARCA; GOVERNADOR VALADARES-PJ-01PJ 7.912,85 1.582,57 0,00 704,25 263,76 0,00 2.896,12 7.247,25 20.606,80 1.331,54 1.375,71 0,00 0,00 2.707,25 17.899,55 31/01/2021
379 427400 BRUNO CESAR RIBEIRO DE PAIVA ANALISTA DO MP BELO HORIZONTE - COMARCA; ASSESS JUR DO CONS SUPERIOR DO MINISTERIO PUB 13.011,52 2.602,30 0,00 0,00 0,00 0,00 0,00 1.550,00 17.163,82 2.310,49 2.789,06 0,00 0,00 5.099,55 12.064,27 31/01/2021
380 380900 BRUNO CIRILO ANTUNES OFICIAL DO MP VARGINHA - COMARCA; VARGINHA-PJ-05PJ 8.579,10 1.715,82 0,00 0,00 0,00 0,00 528,47 7.315,16 18.138,55 1.459,46 1.560,39 0,00 0,00 3.019,85 15.118,70 31/01/2021
381 329000 BRUNO DE MELO REIS ANALISTA DO MP PATROCÍNIO - COMARCA; PATROCINIO-PJ-02PJ 16.750,82 5.025,25 0,00 0,00 0,00 0,00 479,07 8.315,04 30.570,18 3.296,45 4.108,26 0,00 0,00 7.404,71 23.165,47 31/01/2021
382 697800 BRUNO GAZZOLA BEZERRA FALCAO ASSESSOR PROCURADOR JUSTICA BELO HORIZONTE - COMARCA; GABINETE DE PROCURADOR DE JUSTIÇA - SALA 908 0,00 0,00 7.187,72 0,00 0,00 0,00 0,00 1.550,00 8.737,72 751,99 1.202,97 0,00 0,00 1.954,96 6.782,76 31/01/2021
383 378300 BRUNO HERDY LOPES DE OLIVEIRA ANALISTA DO MP GOVERNADOR VALADARES - COMARCA; GOVERNADOR VALADARES-PJ-03PJ 14.324,23 2.864,85 0,00 0,00 0,00 0,00 0,00 1.550,00 18.739,08 2.562,53 3.152,94 0,00 0,00 5.715,47 13.023,61 31/01/2021
384 529700 BRUNO JOSE BUENO DIAS OFICIAL DO MP SÃO SEBASTIÃO DO PARAÍSO - COMARCA; SAO SEBASTIAO DO PARAISO-PJ-02PJ 5.930,75 593,08 0,00 0,00 0,00 0,00 526,26 7.290,97 14.341,06 856,09 637,13 0,00 0,00 1.493,22 12.847,84 31/01/2021
385 691600 BRUNO JOSE RIBEIRO ASSESSOR PROMOTOR JUSTICA CLÁUDIO - COMARCA; CLAUDIO-PJ-UNPJ 0,00 0,00 7.187,72 0,00 0,00 0,00 0,00 1.550,00 8.737,72 751,99 1.202,97 0,00 0,00 1.954,96 6.782,76 31/01/2021
386 350100 BRUNO LAUD SERRANO DOS REIS OFICIAL DO MP UBÁ - COMARCA; UBA-PJ-02PJ 9.444,70 2.833,41 0,00 0,00 0,00 0,00 540,24 7.443,49 20.261,84 1.776,77 1.966,37 0,00 0,00 3.743,14 16.518,70 31/01/2021
387 373800 BRUNO MARTINO DE ALBUQUERQUE ANALISTA DO MP PONTE NOVA - COMARCA; PONTE NOVA-PJ-03PJ 14.324,23 2.864,85 0,00 0,00 0,00 0,00 504,21 7.050,51 24.743,80 2.562,53 3.048,67 0,00 0,00 5.611,20 19.132,60 31/01/2021
388 470400 BRUNO NOVAIS CABRAL ANALISTA DO MP MUTUM - COMARCA; MUTUM-PJ-UNPJ 10.069,62 2.013,92 0,00 896,19 335,65 0,00 1.427,87 8.119,49 22.862,74 1.745,64 1.869,29 0,00 0,00 3.614,93 19.247,81 31/01/2021
389 648600 BRUNO RIBEIRO E MELO ASSESSOR BELO HORIZONTE - COMARCA; CENTRO CERIMONIAL 0,00 0,00 8.170,49 0,00 0,00 0,00 539,25 7.432,75 16.142,49 751,99 1.473,23 0,00 0,00 2.225,22 13.917,27 31/01/2021
390 369200 BRUNO ROBERTO DIAS DE OLIVEIRA OFICIAL DO MP BELO HORIZONTE - COMARCA; BH-22PJ PES COM DEF E IDOSOS-SECRETARIA 9.146,93 1.829,39 0,00 0,00 0,00 0,00 523,20 7.257,69 18.757,21 1.568,49 1.717,79 0,00 0,00 3.286,28 15.470,93 31/01/2021
391 547700 BRUNO ROBERTO SOUZA GONCALVES ANALISTA DO MP PARACATU - COMARCA; PARACATU-PJ-03PJ 9.146,93 914,69 0,00 0,00 0,00 0,00 516,50 8.723,29 19.301,41 1.422,14 1.506,50 0,00 0,00 2.928,64 16.372,77 31/01/2021
392 546100 BRUNO SA VIEIRA ANALISTA DO MP CORONEL FABRICIANO - COMARCA; CORONEL FABRICIANO-PJ-03PJ 9.146,93 914,69 0,00 0,00 0,00 0,00 0,00 1.550,00 11.611,62 1.422,14 1.454,36 0,00 0,00 2.876,50 8.735,12 31/01/2021
393 438200 BRUNO SALES PEREIRA ANALISTA DO MP BELO HORIZONTE - COMARCA; CENTRAL DE APOIO TECNICO-SETOR CONTABIL 12.204,02 2.440,80 0,00 0,00 4.881,61 0,00 536,98 8.177,32 28.240,73 2.155,45 3.855,52 0,00 0,00 6.010,97 22.229,76 31/01/2021
394 537400 BRUNO SANT'ANA CESAR ANALISTA DO MP CONTAGEM - COMARCA; CONTAGEM-PJ-21PJ 9.146,93 914,69 0,00 0,00 0,00 0,00 516,50 7.184,51 17.762,63 1.422,14 1.506,50 0,00 0,00 2.928,64 14.833,99 31/01/2021
395 679000 BRUNO WILLIANS PAULINO DE MELLO ASSESSOR PROCURADOR JUSTICA BELO HORIZONTE - COMARCA; GABINETE DE PROCURADOR DE JUSTIÇA - SALA 1006 0,00 0,00 7.187,72 0,00 0,00 0,00 0,00 1.550,00 8.737,72 751,99 1.202,97 0,00 0,00 1.954,96 6.782,76 31/01/2021
396 405800 CAIO FERNANDO RODRIGUES DE OLIVEIRA ANALISTA DO MP BELO HORIZONTE - COMARCA; GABINETE DE PROCURADOR DE JUSTIÇA - SALA 805 13.011,52 2.602,30 0,00 0,00 0,00 0,00 515,26 7.170,98 23.300,06 2.310,49 2.789,06 0,00 0,00 5.099,55 18.200,51 31/01/2021
397 530000 CAIO GUEDES DE OLIVEIRA ANALISTA DO MP DIAMANTINA - COMARCA; DIAMANTINA-PJ-02PJ 10.069,62 1.006,96 0,00 0,00 0,00 0,00 0,00 2.319,39 13.395,97 1.584,53 1.688,82 0,00 0,00 3.273,35 10.122,62 31/01/2021
398 491400 CAIO MIRANDA JUNQUEIRA ANALISTA DO MP BUENO BRANDAO - COMARCA; BUENO BRANDAO-PJ-UNPJ 10.069,62 1.006,96 0,00 0,00 0,00 0,00 0,00 2.319,39 13.395,97 1.584,53 1.636,68 0,00 0,00 3.221,21 10.174,76 31/01/2021
399 415800 CAMILA ALVES DA SILVA ANALISTA DO MP CAETÉ - COMARCA; CAETE-PJ-01PJ 13.011,52 2.602,30 0,00 0,00 0,00 0,00 0,00 1.550,00 17.163,82 2.310,49 2.789,06 0,00 0,00 5.099,55 12.064,27 31/01/2021
400 555800 CAMILA CAROLINE ROCHA CHAVES OFICIAL DO MP SALINAS - COMARCA; SALINAS-PJ-01PJ 5.930,75 593,08 0,00 0,00 0,00 0,00 263,13 4.420,49 11.207,45 856,09 689,27 0,00 0,00 1.545,36 9.662,09 31/01/2021
401 445200 CAMILA CONDE ROCHA ANALISTA DO MP CONTAGEM - COMARCA; CONTAGEM-PJ-08PJ 10.069,62 2.013,92 0,00 0,00 0,00 0,00 531,68 8.119,49 20.734,71 1.745,64 1.973,56 0,00 0,00 3.719,20 17.015,51 31/01/2021
402 419900 CAMILA CUNNINGHAM PIMENTA DE PADUA ANALISTA DO MP BELO HORIZONTE - COMARCA; ASSESSORIA PSICOSSOCIAL 13.011,52 2.602,30 0,00 0,00 0,00 0,00 0,00 1.550,00 17.163,82 2.310,49 2.789,06 0,00 0,00 5.099,55 12.064,27 31/01/2021
403 507700 CAMILA ELIZABETH RODRIGUES ANALISTA DO MP BELO HORIZONTE - COMARCA; BH-02PJ FAMILIA-SECRETARIA 10.736,08 1.073,61 0,00 0,00 0,00 0,00 519,63 7.218,65 19.547,97 1.701,83 1.910,30 0,00 0,00 3.612,13 15.935,84 31/01/2021
404 372700 CAMILA FONSECA LIMONGE ANALISTA DO MP BETIM - COMARCA; BETIM-PJ-01PJ 14.324,23 2.864,85 0,00 0,00 0,00 0,00 504,21 7.819,90 25.513,19 2.562,53 3.152,94 0,00 0,00 5.715,47 19.797,72 31/01/2021
405 621300 CAMILA GOLFETO DE SOUSA VALENTE OFICIAL DO MP ESPERA FELIZ - COMARCA; ESPERA FELIZ-PJ-UNPJ 5.387,19 538,72 0,00 0,00 0,00 0,00 325,93 6.259,09 12.510,93 762,96 397,56 0,00 0,00 1.160,52 11.350,41 31/01/2021
406 409800 CAMILA GONCALVES COSTA RIBEIRO ANALISTA DO MP INHAPIM - COMARCA; INHAPIM-PJ-02PJ 10.069,62 2.013,92 0,00 0,00 0,00 0,00 531,68 8.119,49 20.734,71 1.745,64 1.921,43 0,00 0,00 3.667,07 17.067,64 31/01/2021
407 335000 CAMILA GONTIJO DE PAIVA ANALISTA DO MP BELO HORIZONTE - COMARCA; COORD DE CONTROLE DA CONSTITUCIONALIDADE 16.112,82 4.833,85 0,00 1.434,04 0,00 0,00 9.667,68 1.550,00 33.598,39 3.163,74 3.968,81 0,00 0,00 7.132,55 26.465,84 31/01/2021
408 693400 CAMILA HECKSHER MONTEIRO ASSESSOR PROCURADOR JUSTICA BELO HORIZONTE - COMARCA; GABINETE DE PROCURADOR DE JUSTIÇA - SALA 613 0,00 0,00 7.187,72 0,00 0,00 0,00 0,00 1.550,00 8.737,72 751,99 1.202,97 0,00 0,00 1.954,96 6.782,76 31/01/2021
409 696000 CAMILA IMACULADA OLIVEIRA ASSESSOR PROCURADOR JUSTICA BELO HORIZONTE - COMARCA; GABINETE DE PROCURADOR DE JUSTIÇA - SALA 804 0,00 0,00 7.187,72 0,00 0,00 0,00 0,00 1.550,00 8.737,72 751,99 1.202,97 0,00 0,00 1.954,96 6.782,76 31/01/2021
410 547800 CAMILA MATTARELLI DE ABREU E SILVA ANALISTA DO MP BELO HORIZONTE - COMARCA; CAO-VIOLENCIA DOMESTICA E FAMILIAR 9.146,93 914,69 0,00 0,00 3.353,87 0,00 0,00 1.550,00 14.965,49 1.422,14 2.428,81 0,00 0,00 3.850,95 11.114,54 31/01/2021
411 430000 CANDIDA MARINA COSTA ANALISTA DO MP BELO HORIZONTE - COMARCA; DIVISAO DE DOCUMENTACAO JURIDICA 13.011,52 2.602,30 0,00 0,00 0,00 0,00 0,00 1.550,00 17.163,82 2.310,49 2.789,06 0,00 0,00 5.099,55 12.064,27 31/01/2021
412 614300 CARINA CORTIELHA OFICIAL DO MP BELO HORIZONTE - COMARCA; BH-23PJ CIVEL-SEC EXP CIVEIS 4.974,42 497,44 0,00 0,00 0,00 0,00 501,59 7.021,86 12.995,31 694,23 444,49 0,00 0,00 1.138,72 11.856,59 31/01/2021
413 380400 CARINA DIAS FACANHA DE SOUZA ANALISTA DO MP SANTA RITA DO SAPUCAÍ - COMARCA; SANTA RITA DO SAPUCAI-PJ-SECRETARIA 14.324,23 2.864,85 0,00 0,00 0,00 0,00 0,00 1.550,00 18.739,08 2.562,53 3.152,94 0,00 0,00 5.715,47 13.023,61 31/01/2021
414 698300 CARINA ESTEPHANY FAVATO FERREIRA JUSTE ASSESSOR PROCURADOR JUSTICA BELO HORIZONTE - COMARCA; PROC. JUSTICA DIR. DIFUSOS E COLETIVOS 0,00 0,00 7.187,72 0,00 0,00 0,00 0,00 1.550,00 8.737,72 751,99 1.202,97 0,00 0,00 1.954,96 6.782,76 31/01/2021
415 255000 CARLA ADRIANA DE MENEZES OFICIAL DO MP BELO HORIZONTE - COMARCA; CENT DE APOIO TEC-SETOR DEF,IDOSO E INFANC 10.069,62 3.020,89 0,00 0,00 0,00 0,00 527,98 7.309,82 20.928,31 1.906,76 2.206,17 0,00 0,00 4.112,93 16.815,38 31/01/2021
416 425100 CARLA ADRIANA DINIZ AMARAL OFICIAL DO MP CONTAGEM - COMARCA; CONTAGEM-PJ-SECRETARIA 8.579,10 1.715,82 0,00 0,00 0,00 0,00 528,47 7.315,16 18.138,55 1.459,46 1.560,39 0,00 0,00 3.019,85 15.118,70 31/01/2021
417 508100 CARLA ALESSANDRA FONSECA ANALISTA DO MP BELO HORIZONTE - COMARCA; CAO-ORDEM ECONOMICA E TRIBUTARIA-SECRETARIA 10.069,62 1.006,96 0,00 0,00 3.692,19 0,00 527,98 7.309,82 22.606,57 1.584,53 2.756,31 0,00 0,00 4.340,84 18.265,73 31/01/2021
418 607100 CARLA ANGELICA DIAS MIRANDA OFICIAL DO MP JABOTICATUBAS - COMARCA; JABOTICATUBAS-PJ-UNPJ 5.930,75 593,08 0,00 0,00 0,00 0,00 0,00 1.550,00 8.073,83 856,09 532,86 0,00 0,00 1.388,95 6.684,88 31/01/2021
419 351500 CARLA APARECIDA MENDES RAMIRIO OFICIAL DO MP PASSOS - COMARCA; PASSOS-PJ-01PJ 9.146,93 1.829,39 0,00 0,00 3.658,77 0,00 523,20 7.257,69 22.415,98 1.568,49 2.671,82 0,00 0,00 4.240,31 18.175,67 31/01/2021
420 442800 CARLA GONCALVES COSTA SOALHEIRO ANALISTA DO MP GOVERNADOR VALADARES - COMARCA; GOVERNADOR VALADARES-PJ-11PJ 10.069,62 2.013,92 0,00 0,00 0,00 0,00 531,68 8.119,49 20.734,71 1.745,64 1.921,43 0,00 0,00 3.667,07 17.067,64 31/01/2021
421 321500 CARLA GONCALVES MASSOTE OFICIAL DO MP CAMPO BELO - COMARCA; CAMPO BELO-PJ-01PJ 10.069,62 3.020,89 0,00 0,00 0,00 0,00 0,00 1.550,00 14.640,51 1.906,76 2.206,17 0,00 0,00 4.112,93 10.527,58 31/01/2021
422 429200 CARLA HAUTEQUESTT BECHARA COORDENADOR/ANALISTA BELO HORIZONTE - COMARCA; DIRET DE INFORMACAO E CONHECIMENTO-DINC/CEAF 13.011,52 2.602,30 2.687,03 0,00 0,00 0,00 0,00 1.550,00 19.850,85 2.310,49 3.527,99 0,00 0,00 5.838,48 14.012,37 31/01/2021
423 247500 CARLA MATILDE GUIMARAES DE OLIVEIRA OFICIAL DO MP ITAJUBA - COMARCA; ITAJUBA-PJ-SECRETARIA 10.069,62 4.027,85 0,00 0,00 0,00 0,00 0,00 1.550,00 15.647,47 2.067,87 2.386,64 0,00 0,00 4.454,51 11.192,96 31/01/2021
424 226100 CARLA MERLI DA CONCEICAO ANALISTA DO MP BELO HORIZONTE - COMARCA; CENTRAL DE APOIO TECNICO-SETOR CONTABIL 18.820,14 5.646,04 0,00 0,00 0,00 0,00 538,26 7.421,88 32.426,32 3.726,87 4.781,81 0,00 0,00 8.508,68 23.917,64 31/01/2021
425 181401 CARLO MICHEL GAUDENSI COELHO ANALISTA DO MP BELO HORIZONTE - COMARCA; BH-08PJ JUIZADO ESPECIAL-SECRETARIA 12.601,30 5.040,52 0,00 0,00 0,00 0,00 517,49 7.195,38 25.354,69 2.634,97 3.257,52 0,00 0,00 5.892,49 19.462,20 31/01/2021
426 634000 CARLOS ALBERTO AMORMINO TRIGUEIRO ANALISTA DO MP BELO HORIZONTE - COMARCA; DIRET DE APOIO AS PROCURADORIAS DE JUSTICA 8.170,49 817,05 0,00 0,00 0,00 0,00 0,00 2.319,39 11.306,93 1.250,28 1.206,25 0,00 0,00 2.456,53 8.850,40 31/01/2021
427 637900 CARLOS ALBERTO DE MOURA OFICIAL DO MP SETE LAGOAS - COMARCA; SETE LAGOAS-PJ-07PJ 5.217,34 521,73 0,00 0,00 0,00 0,00 0,00 1.550,00 7.289,07 734,00 454,90 0,00 0,00 1.188,90 6.100,17 31/01/2021
428 638700 CARLOS ALBERTO FERREIRA BRAGA ANALISTA DO MP MATOZINHOS - COMARCA; MATOZINHOS-PJ-01PJ 8.170,49 817,05 0,00 0,00 0,00 0,00 527,27 7.302,03 16.816,84 841,65 1.266,49 0,00 0,00 2.108,14 14.708,70 31/01/2021
429 375801 CARLOS ALBERTO ROCHA ANALISTA DO MP VARGINHA - COMARCA; GAECO REGIONAL DE VARGINHA 10.069,62 1.006,96 0,00 0,00 0,00 0,00 0,00 1.550,00 12.626,58 1.584,53 1.740,95 0,00 0,00 3.325,48 9.301,10 31/01/2021
430 462800 CARLOS ANDREI SOARES FAGUNDES ANALISTA DO MP MONTES CLAROS - COMARCA; MONTES CLAROS-PJ-09PJ 10.069,62 2.013,92 0,00 896,19 335,65 0,00 2.324,07 8.119,49 23.758,94 1.745,64 1.921,43 0,00 0,00 3.667,07 20.091,87 31/01/2021
431 370300 CARLOS AUGUSTO BUENO DIAS ASSESSOR BELO HORIZONTE - COMARCA; SUPERINTENDÊNCIA DE ENGENHARIA E ARQUITETURA 0,00 0,00 10.397,52 0,00 0,00 0,00 533,74 7.372,61 18.303,87 751,99 1.437,01 0,00 0,00 2.189,00 16.114,87 31/01/2021
432 505100 CARLOS CEZAR CARVALHO ANALISTA DO MP RIBEIRÃO DAS NEVES - COMARCA; RIBEIRAO DAS NEVES-PJ-04PJ 10.069,62 4.027,85 0,00 0,00 0,00 0,00 516,91 7.188,99 21.803,37 2.067,87 2.334,51 0,00 0,00 4.402,38 17.400,99 31/01/2021
433 195900 CARLOS DE SOUZA FERREIRA OFICIAL DO MP COROMANDEL - COMARCA; COROMANDEL-PJ-UNPJ 10.069,62 8.055,69 0,00 0,00 0,00 0,00 0,00 1.550,00 19.675,31 2.712,33 3.369,21 0,00 0,00 6.081,54 13.593,77 31/01/2021
434 196800 CARLOS EDUARDO DE OLIVEIRA MARINHO OFICIAL DO MP ALPINÓPOLIS - COMARCA; ALPINOPOLIS-PJ-UNPJ 15.272,02 10.690,41 0,00 0,00 8.654,14 0,00 475,98 6.742,49 41.835,04 3.966,27 7.507,34 0,00 0,00 11.473,61 30.361,43 31/01/2021
435 650800 CARLOS EDUARDO NIZA DA SILVA OFICIAL DO MP IGARAPÉ - COMARCA; IGARAPE-PJ-01PJ 4.376,03 262,56 0,00 0,00 1.546,20 0,00 425,20 6.188,59 12.798,58 563,43 572,24 0,00 0,00 1.135,67 11.662,91 31/01/2021
436 491800 CARLOS EDUARDO ROMAN OFICIAL DO MP BARBACENA - COMARCA; BARBACENA-PJ-09PJ 7.663,37 1.532,67 0,00 0,00 0,00 0,00 539,50 7.435,47 17.171,01 1.283,64 1.306,55 0,00 0,00 2.590,19 14.580,82 31/01/2021
437 299300 CARLOS HENRIQUE BICALHO ANALISTA DO MP BELO HORIZONTE - COMARCA; BH-17PJ PATRIMONIO PUBLICO-SECRETARIA 17.413,92 6.965,57 0,00 0,00 0,00 0,00 536,35 8.170,47 33.086,31 3.713,00 4.813,92 0,00 0,00 8.526,92 24.559,39 31/01/2021
438 205100 CARLOS HENRIQUE ESTEVES OFICIAL DO MP ITAMBACURI - COMARCA; ITAMBACURI-PJ-01PJ 15.272,02 6.108,81 0,00 0,00 0,00 0,00 548,77 7.536,63 29.466,23 3.233,21 4.069,10 0,00 0,00 7.302,31 22.163,92 31/01/2021
439 351600 CARLOS HENRIQUE FELICIO DA FONSECA OFICIAL DO MP JUIZ DE FORA - COMARCA; JUIZ DE FORA-PJ-21PJ 9.752,14 2.925,64 0,00 0,00 0,00 0,00 511,34 7.128,22 20.317,34 1.840,72 2.058,69 0,00 0,00 3.899,41 16.417,93 31/01/2021
440 85400 CARLOS JOSE VIEIRA OFICIAL DO MP BELO HORIZONTE - COMARCA; DIRETORIA DO COLEGIO E DA CAMARA DE PJ 23.757,25 19.005,81 0,00 0,00 0,00 0,00 0,00 1.550,00 44.313,06 5.486,23 7.374,04 7.300,84 0,00 20.161,11 24.151,95 31/01/2021
441 229100 CARLOS MERCES DE OLIVEIRA ANALISTA DO MP BELO HORIZONTE - COMARCA; CENTRAL DE APOIO TECN-SETOR DE MEIO AMBIENTE 18.820,14 7.528,06 0,00 0,00 0,00 0,00 0,00 1.550,00 27.898,20 4.027,99 4.124,54 0,00 0,00 8.152,53 19.745,67 31/01/2021
442 538300 CARLOS RANGEL SILVA DE MELO ANALISTA DO MP BELO HORIZONTE - COMARCA; DIVISAO DE CONTROLE IMOBILIARIO 9.146,93 2.744,08 0,00 0,00 0,00 0,00 0,00 2.319,39 14.210,40 1.714,84 1.929,09 0,00 0,00 3.643,93 10.566,47 31/01/2021
443 265100 CARLOS REIFF MIRANDA ANALISTA DO MP BELO HORIZONTE - COMARCA; BH-19PJ SAUDE-SECRETARIA 150PJ 18.820,14 5.646,04 0,00 0,00 0,00 0,00 0,00 1.550,00 26.016,18 3.726,87 4.833,95 0,00 0,00 8.560,82 17.455,36 31/01/2021
444 305400 CARLOS ROCHA DE SOUZA OFICIAL DO MP MONTALVÂNIA - COMARCA; MONTALVANIA-PJ-SECRETARIA 6.123,79 1.837,14 0,00 0,00 0,00 0,00 525,42 7.742,85 16.229,20 1.086,03 812,69 0,00 0,00 1.898,72 14.330,48 31/01/2021
445 365100 CARLOS WAGNER SANDER MORAIS COORDENADOR/OFICIAL BELO HORIZONTE - COMARCA; DIRETORIA DE ADMINISTRACAO FINANCEIRA 0,00 2.687,03 13.435,16 0,00 0,00 2.594,73 532,03 7.353,99 26.602,94 2.391,83 3.564,24 0,00 202,90 6.158,97 20.443,97 31/01/2021
446 399900 CARMELITA EVANGELISTA DE SOUZA OFICIAL DO MP JOÃO PINHEIRO - COMARCA; JOAO PINHEIRO-PJ-01PJ 7.912,85 1.582,57 0,00 0,00 0,00 0,00 522,25 7.247,25 17.264,92 1.331,54 1.375,71 0,00 0,00 2.707,25 14.557,67 31/01/2021
447 202000 CARMEN LUCIA MARIZ DE MACEDO OFICIAL DO MP BELO HORIZONTE - COMARCA; DIRETORIA GESTAO COMPRAS LICITACOES 14.790,66 10.353,47 0,00 0,00 0,00 0,00 0,00 1.550,00 26.694,13 3.835,34 4.886,28 0,00 0,00 8.721,62 17.972,51 31/01/2021
448 228500 CAROLINA CHIARELLA DOS SANTOS RIBEIRO ASSESSOR/OFICIAL BELO HORIZONTE - COMARCA; PROCURADORIA-GERAL ADJUNTA INSTITUCIONAL 0,00 3.119,26 10.397,52 0,00 0,00 0,00 0,00 1.550,00 15.066,78 1.567,08 2.312,53 0,00 0,00 3.879,61 11.187,17 31/01/2021
449 446500 CAROLINA COSTA VAL RODRIGUES ANALISTA DO MP CONTAGEM - COMARCA; CONTAGEM-PJ-05PJ 12.601,30 2.520,26 0,00 0,00 5.040,52 0,00 499,01 6.993,76 27.654,85 2.231,73 4.061,49 0,00 0,00 6.293,22 21.361,63 31/01/2021
450 603501 CAROLINA DOMINGOS BRANDAO RABELLO ANALISTA DO MP BARROSO - COMARCA; BARROSO-PJ-01PJ 9.146,93 914,69 0,00 0,00 0,00 0,00 0,00 1.550,00 11.611,62 1.422,14 1.506,50 0,00 0,00 2.928,64 8.682,98 31/01/2021
451 404300 CAROLINA DOS SANTOS VIEIRA ANALISTA DO MP BELO HORIZONTE - COMARCA; BH-08PJ JUIZADO ESPECIAL-SECRETARIA 14.324,23 2.864,85 0,00 0,00 0,00 0,00 504,21 7.050,51 24.743,80 2.562,53 3.048,67 0,00 0,00 5.611,20 19.132,60 31/01/2021
452 551200 CAROLINA LOPES ARANTES MASCARENHAS ANALISTA DO MP BELO HORIZONTE - COMARCA; COORD EST DEF DIR FAM PESSOAS DEFICI IDOSOS 9.146,93 914,69 0,00 0,00 0,00 0,00 0,00 2.319,39 12.381,01 1.422,14 1.402,22 0,00 0,00 2.824,36 9.556,65 31/01/2021
453 622600 CAROLINA LOREDO LOPES CATIZANI OFICIAL DO MP RIBEIRÃO DAS NEVES - COMARCA; RIBEIRAO DAS NEVES-PJ-12PJ 4.974,42 497,44 0,00 0,00 0,00 0,00 0,00 1.550,00 7.021,86 694,23 444,49 0,00 0,00 1.138,72 5.883,14 31/01/2021
454 382200 CAROLINA MENDES CHAVES LIN ANALISTA DO MP BELO HORIZONTE - COMARCA; BH-12PJ JUIZO CRIMINAL-GAB 088PJ 10.069,62 2.013,92 0,00 0,00 0,00 0,00 0,00 2.319,39 14.402,93 1.745,64 1.921,43 0,00 0,00 3.667,07 10.735,86 31/01/2021
455 461900 CAROLINA MURTA TEIXEIRA DIAS ASSESSOR/ANALISTA BELO HORIZONTE - COMARCA; PROCURADOR-GERAL DE JUSTIÇA 0,00 2.520,26 12.601,30 1.121,52 5.040,52 0,00 2.742,04 6.993,76 31.019,40 1.745,64 4.195,16 0,00 0,00 5.940,80 25.078,60 31/01/2021
456 509600 CAROLINA PINTO DE OLIVEIRA SOUZA ANALISTA DO MP MURIAÉ - COMARCA; MURIAE-PJ-01PJ 10.069,62 1.006,96 0,00 0,00 0,00 0,00 0,00 2.319,39 13.395,97 1.584,53 1.584,54 0,00 0,00 3.169,07 10.226,90 31/01/2021
457 629100 CAROLINA RODRIGUES AMARAL ANALISTA DO MP BELO HORIZONTE - COMARCA; PROC. JUSTICA DIR. DIFUSOS E COLETIVOS-SEC 8.436,53 843,65 0,00 0,00 3.093,39 0,00 0,00 1.550,00 13.923,57 1.297,11 2.176,67 0,00 0,00 3.473,78 10.449,79 31/01/2021
458 502600 CAROLINA RODRIGUES RUBEN ANALISTA DO MP BELO HORIZONTE - COMARCA; BH-18PJ VIOLENCIA DOMESTICA-SECRETARIA 10.069,62 1.006,96 0,00 0,00 0,00 0,00 527,98 8.848,60 20.453,16 1.584,53 1.636,68 0,00 0,00 3.221,21 17.231,95 31/01/2021
459 529600 CAROLINA VAZ DE MELO MAMBRINI ANALISTA DO MP BELO HORIZONTE - COMARCA; DIVISAO DE MATERIAIS 9.146,93 914,69 0,00 0,00 0,00 0,00 0,00 1.550,00 11.611,62 1.422,14 1.506,50 0,00 0,00 2.928,64 8.682,98 31/01/2021
460 619100 CAROLINA ZAKHIA NARDELLI RODRIGUES ANALISTA DO MP NEPOMUCENO - COMARCA; NEPOMUCENO-PJ-UNPJ 8.436,53 843,65 0,00 0,00 0,00 0,00 0,00 2.319,39 11.599,57 1.297,11 1.325,98 0,00 0,00 2.623,09 8.976,48 31/01/2021
461 517600 CAROLINE ALVES DE OLIVEIRA MULLER ANALISTA DO MP VISCONDE DO RIO BRANCO - COMARCA; VISCONDE DO RIO BRANCO-PJ-01PJ 10.069,62 1.006,96 0,00 0,00 3.692,19 0,00 527,98 8.079,21 23.375,96 1.584,53 2.704,17 0,00 0,00 4.288,70 19.087,26 31/01/2021
462 373200 CAROLINE ANTUNES RIBEIRO OFICIAL DO MP JACUI - COMARCA; JACUI-PJ-UNPJ 8.858,43 1.771,69 0,00 0,00 0,00 0,00 545,68 7.502,87 18.678,67 1.513,10 1.481,41 0,00 0,00 2.994,51 15.684,16 31/01/2021
463 556800 CAROLINE DE SOUZA CARDOSO DOMINGUES OFICIAL DO MP BRASÍLIA DE MINAS - COMARCA; BRASILIA DE MINAS-PJ-02PJ 5.930,75 593,08 0,00 0,00 0,00 0,00 526,26 7.290,97 14.341,06 856,09 689,27 0,00 0,00 1.545,36 12.795,70 31/01/2021
464 499400 CAROLINE MARQUES DE LOURDES MARZULLO OFICIAL DO MP JUIZ DE FORA - COMARCA; JUIZ DE FORA-PJ-08PJ 7.663,37 766,34 0,00 0,00 0,00 0,00 0,00 2.703,54 11.133,25 1.161,03 1.129,53 0,00 0,00 2.290,56 8.842,69 31/01/2021
465 616800 CAROLINE MONTEIRO DE BARROS ANALISTA DO MP CONTAGEM - COMARCA; CONTAGEM-PJ-11PJ 8.436,53 843,65 0,00 0,00 3.093,39 0,00 0,00 1.550,00 13.923,57 1.297,11 2.176,67 0,00 0,00 3.473,78 10.449,79 31/01/2021
466 618100 CAROLINE VASCONCELOS COSTA LANZA ANALISTA DO MP PARAOPEBA - COMARCA; PARAOPEBA-PJ-UNPJ 8.436,53 843,65 0,00 0,00 0,00 0,00 544,44 10.566,88 20.391,50 1.297,11 1.325,98 0,00 0,00 2.623,09 17.768,41 31/01/2021
467 699000 CAROLLINA RODRIGUES SOUTO AMARAL ASSESSOR PROCURADOR JUSTICA BELO HORIZONTE - COMARCA; GABINETE DE PROCURADOR DE JUSTIÇA - SALA 405 0,00 0,00 7.187,72 0,00 0,00 0,00 0,00 1.550,00 8.737,72 751,99 1.202,97 0,00 0,00 1.954,96 6.782,76 31/01/2021
468 604000 CASSIA APARECIDA DA SILVA OFICIAL DO MP PARACATU - COMARCA; PARACATU-PJ-01PJ 5.930,75 593,08 0,00 0,00 0,00 0,00 0,00 1.550,00 8.073,83 856,09 689,27 0,00 0,00 1.545,36 6.528,47 31/01/2021
469 268800 CASSIA BEATRIZ TEIXEIRA OFICIAL DO MP BELO HORIZONTE - COMARCA; COMB CRIMES PRAT POR AG POL MUN-SECRETARIA 12.601,30 3.780,39 0,00 0,00 0,00 0,00 540,60 7.447,41 24.369,70 2.433,35 2.966,43 0,00 0,00 5.399,78 18.969,92 31/01/2021
470 500000 CASSIA DE OLIVEIRA COSTA VIANA ANALISTA DO MP SETE LAGOAS - COMARCA; SETE LAGOAS-PJ-09PJ 10.069,62 5.034,81 0,00 0,00 0,00 0,00 0,00 1.550,00 16.654,43 2.228,99 2.671,39 0,00 0,00 4.900,38 11.754,05 31/01/2021
471 368800 CASSIA LUISA BATISTA MENDONCA WEBER OFICIAL DO MP BELO HORIZONTE - COMARCA; DIVISÃO DE EDUCAÇÃO PARA O CONSUMO 7.663,37 1.532,67 0,00 0,00 0,00 0,00 0,00 1.550,00 10.746,04 1.283,64 1.293,26 0,00 0,00 2.576,90 8.169,14 31/01/2021
472 622200 CASSIA VAZ DE AZEVEDO LISBOA MARZANO ASSESSOR BELO HORIZONTE - COMARCA; CGMP-SECRETARIA DA CORREGEDORIA-GERAL DO MP 0,00 0,00 3.076,28 0,00 0,00 0,00 138,43 4.165,16 7.379,87 493,39 112,32 0,00 0,00 605,71 6.774,16 31/01/2021
473 121000 CASSIO HENRIQUE AFONSO DA SILVA OFICIAL DO MP BELO HORIZONTE - COMARCA; ASSESS TECNICA DA CORREGEDORIA-GERAL DO MP 18.820,14 13.174,10 0,00 0,00 0,00 0,00 469,25 6.669,08 39.132,57 4.931,36 6.468,66 0,00 0,00 11.400,02 27.732,55 31/01/2021
474 512001 CATARINA NATALINO CALIXTO COORDENADOR/ANALISTA BELO HORIZONTE - COMARCA; DIRETORIA GESTAO TRANSPORTES 0,00 1.343,52 13.435,16 0,00 0,00 0,00 0,00 1.550,00 16.328,68 1.297,11 2.793,81 0,00 160,95 4.251,87 12.076,81 31/01/2021
475 606200 CATARINE DE SIQUEIRA DE QUADROS ANALISTA DO MP RIBEIRÃO DAS NEVES - COMARCA; RIBEIRAO DAS NEVES-PJ-02PJ 9.146,93 914,69 0,00 0,00 0,00 0,00 0,00 1.550,00 11.611,62 1.422,14 1.454,36 0,00 0,00 2.876,50 8.735,12 31/01/2021
476 622300 CECILIA APARECIDA PEREIRA ASSUNCAO OFICIAL DO MP TRÊS PONTAS - COMARCA; TRES PONTAS-PJ-SECRETARIA 5.387,19 538,72 0,00 0,00 0,00 0,00 543,21 9.014,69 15.483,81 762,96 498,31 0,00 0,00 1.261,27 14.222,54 31/01/2021
477 538000 CECILIA FONTES DE MATOS PIMENTEL ANALISTA DO MP PALMA - COMARCA; PALMA-PJ-UNPJ 9.146,93 914,69 0,00 0,00 0,00 0,00 516,50 8.774,59 19.352,71 1.422,14 1.506,50 0,00 0,00 2.928,64 16.424,07 31/01/2021
478 261300 CECILIO ANTONIO CAMPOS DOS REIS ANALISTA DO MP BELO HORIZONTE - COMARCA; AUDITORIA INTERNA 18.103,37 5.431,01 0,00 0,00 0,00 0,00 517,76 7.198,25 31.250,39 3.577,78 4.618,71 0,00 0,00 8.196,49 23.053,90 31/01/2021
479 386400 CEFAS AMORELI DE FIGUEIREDO OFICIAL DO MP CABO VERDE - COMARCA; CABO VERDE-PJ-SECRETARIA 6.123,79 1.224,76 0,00 0,00 2.449,52 0,00 0,00 1.550,00 11.348,07 988,05 1.553,40 0,00 0,00 2.541,45 8.806,62 31/01/2021
480 149000 CELIA MAGALHAES CLAROS SOSSI OFICIAL DO MP GOVERNADOR VALADARES - COMARCA; GAECO REGIONAL DE GOVERNADOR VALADARES 16.750,82 11.725,57 0,00 0,00 9.492,13 5.751,18 522,07 7.245,28 51.487,05 4.368,50 9.571,98 0,00 0,00 13.940,48 37.546,57 31/01/2021
481 421000 CELINA BENEDITA DE SOUZA ALMEIDA OFICIAL DO MP CAMBUÍ - COMARCA; CAMBUI-PJ-01PJ 8.579,10 4.289,55 0,00 0,00 0,00 0,00 519,04 7.212,21 20.599,90 1.871,26 2.102,79 0,00 0,00 3.974,05 16.625,85 31/01/2021
482 252900 CELIO DE MELO CASTOR ANALISTA DO MP BELO HORIZONTE - COMARCA; BH-02PJ FAMILIA-SECRETARIA 18.103,37 5.431,01 0,00 0,00 0,00 0,00 0,00 1.550,00 25.084,38 3.577,78 4.618,71 0,00 0,00 8.196,49 16.887,89 31/01/2021
483 395700 CELIO FERREIRA LIMA OFICIAL DO MP CONTAGEM - COMARCA; CONTAGEM-PJ-SECRETARIA 8.579,10 1.715,82 0,00 0,00 0,00 0,00 0,00 2.319,39 12.614,31 1.459,46 1.508,25 0,00 0,00 2.967,71 9.646,60 31/01/2021
484 281300 CELMA REGINA PEREIRA SANTOS ANALISTA DO MP BELO HORIZONTE - COMARCA; SUPERINTENDENCIA DE RECURSOS HUMANOS 18.820,14 5.646,04 0,00 0,00 0,00 0,00 0,00 1.550,00 26.016,18 3.726,87 4.833,95 0,00 0,00 8.560,82 17.455,36 31/01/2021
485 535600 CELSO MEDEIROS DE PAIVA OFICIAL DO MP RIO PRETO - COMARCA; RIO PRETO-PJ-SECRETARIA 5.387,19 538,72 0,00 0,00 0,00 0,00 543,21 7.475,91 13.945,03 762,96 498,31 0,00 0,00 1.261,27 12.683,76 31/01/2021
486 367000 CESAR NARVAES DE AVELAR COORDENADOR/OFICIAL BELO HORIZONTE - COMARCA; DIVISAO DE MEMORIA INSTITUCIONAL 0,00 2.363,83 11.819,15 0,00 0,00 0,00 0,00 1.550,00 15.732,98 1.568,49 2.547,26 0,00 190,40 4.306,15 11.426,83 31/01/2021
487 226500 CESAR SILVEIRA BARROUIN OFICIAL DO MP BELO HORIZONTE - COMARCA; DIRETORIA DE ADMINISTRACAO FINANCEIRA 12.601,30 5.040,52 0,00 0,00 0,00 0,00 517,49 7.195,38 25.354,69 2.634,97 3.257,52 0,00 0,00 5.892,49 19.462,20 31/01/2021
488 121400 CEZAR MORENO CONCEICAO TAVARES OFICIAL DO MP BELO HORIZONTE - COMARCA; COORD EST DEF DIR FAM PESSOAS DEFICI IDOSOS 16.750,82 11.725,57 0,00 0,00 0,00 0,00 522,07 8.014,67 37.013,13 4.368,50 5.656,04 0,00 0,00 10.024,54 26.988,59 31/01/2021
489 243800 CHARLES MARTINS MUNIZ OFICIAL DO MP BELO HORIZONTE - COMARCA; LAB TECNOLOGIA CONTRA LAVAGEM DINHEIRO 12.601,30 5.040,52 0,00 0,00 0,00 0,00 517,49 6.745,38 24.904,69 2.634,97 3.257,52 0,00 0,00 5.892,49 19.012,20 31/01/2021
490 193500 CHARLIN CESAR KOURLY OFICIAL DO MP ARAGUARI - COMARCA; ARAGUARI-PJ-07PJ 15.272,02 6.108,81 0,00 0,00 7.126,94 0,00 548,77 7.536,63 36.593,17 3.233,21 6.081,14 0,00 0,00 9.314,35 27.278,82 31/01/2021
491 385500 CHILLEN PEIXOTO DE MOURA OFICIAL DO MP BELO HORIZONTE - COMARCA; DIVISÃO DE FISCALIZAÇÃO DAS RELAÇÕES DE CONSU 8.579,10 1.715,82 0,00 0,00 0,00 0,00 0,00 2.319,39 12.614,31 1.459,46 1.560,39 0,00 0,00 3.019,85 9.594,46 31/01/2021
492 534500 CHRISTIAN DOUGLAS BRITO RUAS OFICIAL DO MP SÃO JOÃO DA PONTE - COMARCA; SAO JOAO DA PONTE-PJ-SECRETARIA 5.930,75 593,08 0,00 0,00 0,00 0,00 526,26 7.290,97 14.341,06 856,09 689,27 0,00 0,00 1.545,36 12.795,70 31/01/2021
493 370600 CHRISTIAN KARINE FELIX PRATES ASSESSOR BELO HORIZONTE - COMARCA; SUPRIN DE PLANEJAMENTO E COORDENACAO 0,00 0,00 10.397,52 0,00 0,00 0,00 0,00 1.550,00 11.947,52 751,99 2.085,66 0,00 0,00 2.837,65 9.109,87 31/01/2021
494 435800 CHRISTIANA BAHIA ANDRADE PINA ANALISTA DO MP BELO HORIZONTE - COMARCA; LABORATORIO TECNOLOGIA INTELIGENCIA 13.011,52 2.602,30 0,00 0,00 0,00 0,00 0,00 2.319,39 17.933,21 2.310,49 2.789,06 0,00 0,00 5.099,55 12.833,66 31/01/2021
495 516800 CHRISTIANE FERREIRA DO NASCIMENTO ANALISTA DO MP POUSO ALEGRE - COMARCA; POUSO ALEGRE-PJ-08PJ 10.069,62 1.006,96 0,00 0,00 0,00 0,00 0,00 1.550,00 12.626,58 1.584,53 1.740,95 0,00 0,00 3.325,48 9.301,10 31/01/2021
496 176000 CHRISTIANE JUNQUEIRA PULITI ANDRADE DE BARROS ASSESSOR BELO HORIZONTE - COMARCA; CAO-VIOLENCIA DOMESTICA E FAMILIAR 0,00 9.157,17 11.446,46 0,00 6.867,88 3.108,86 528,83 7.319,02 38.428,22 3.108,86 6.685,31 0,00 0,00 9.794,17 28.634,05 31/01/2021
497 319200 CHRISTIANE MARIA DE ASSIS RUSSO OFICIAL DO MP BELO HORIZONTE - COMARCA; CAO-ORDEM ECONOMICA E TRIBUTARIA-SECRETARIA 11.085,56 3.325,67 0,00 0,00 0,00 0,00 0,00 2.319,39 16.730,62 2.118,07 2.459,12 0,00 0,00 4.577,19 12.153,43 31/01/2021
498 510300 CHRISTIANE MARY DE CARVALHO FERREIRA ANALISTA DO MP BELO HORIZONTE - COMARCA; DIRETORIA DE SISTEMAS DE INFORMACAO 10.069,62 1.006,96 0,00 0,00 0,00 0,00 0,00 1.550,00 12.626,58 1.584,53 1.688,82 0,00 0,00 3.273,35 9.353,23 31/01/2021
499 424900 CHRISTIANE PEREIRA TURNER DE ARAUJO OFICIAL DO MP BELO HORIZONTE - COMARCA; CAO-PATRIMONIO PUBLICO 8.579,10 1.715,82 0,00 0,00 0,00 0,00 528,47 8.084,55 18.907,94 1.459,46 1.456,12 0,00 0,00 2.915,58 15.992,36 31/01/2021
500 513700 CHRISTIANE VIEIRA SOARES PEDERSOLI ASSESSOR/ANALISTA BELO HORIZONTE - COMARCA; ASSESSORIA JURIDICA DO PROCON-MG 0,00 1.144,65 11.446,46 0,00 0,00 0,00 507,84 7.859,48 20.958,43 1.584,53 2.157,45 0,00 0,00 3.741,98 17.216,45 31/01/2021
501 412300 CHRYSTIAN MACHADO RIBEIRO ANALISTA DO MP VARGINHA - COMARCA; VARGINHA-PJ-04PJ 13.011,52 2.602,30 0,00 0,00 0,00 0,00 0,00 1.550,00 17.163,82 2.310,49 2.789,06 0,00 0,00 5.099,55 12.064,27 31/01/2021
502 513800 CHRYSTIANE DO NASCIMENTO DE MAGALHAES OFICIAL DO MP UBERLÂNDIA - COMARCA; UBERLANDIA-PJ-10PJ 7.421,79 742,18 0,00 0,00 2.721,32 0,00 538,82 8.197,45 19.621,56 1.118,51 1.712,23 0,00 0,00 2.830,74 16.790,82 31/01/2021
503 497900 CIBELE DE FREITAS SANCHES DIAS ANALISTA DO MP SABARÁ - COMARCA; SABARA-PJ-03PJ 10.069,62 1.006,96 0,00 0,00 0,00 0,00 0,00 1.550,00 12.626,58 1.584,53 1.688,82 0,00 0,00 3.273,35 9.353,23 31/01/2021
504 500900 CIBELLE SILVA PRADO ALVARENGA ANALISTA DO MP ITANHANDU - COMARCA; ITANHANDU-PJ-UNPJ 10.069,62 1.006,96 0,00 0,00 0,00 0,00 527,98 8.848,60 20.453,16 1.584,53 1.740,95 0,00 0,00 3.325,48 17.127,68 31/01/2021
505 296400 CINTIA APARECIDA MOREIRA NAVES E RODRIGUES ANALISTA DO MP CAMPO BELO - COMARCA; CAMPO BELO-PJ-02PJ 17.413,92 5.224,18 0,00 0,00 0,00 0,00 498,04 6.983,14 30.119,28 3.434,37 4.411,67 0,00 0,00 7.846,04 22.273,24 31/01/2021
506 407900 CINTIA NETO COMELLI ANALISTA DO MP BELO HORIZONTE - COMARCA; CENTRAL DE APOIO TECNICO-SETOR CONTABIL 13.011,52 2.602,30 0,00 0,00 0,00 0,00 343,50 6.066,71 22.024,03 2.310,49 2.736,92 0,00 0,00 5.047,41 16.976,62 31/01/2021
507 304700 CINTIA QUEIROZ OFICIAL DO MP BELO HORIZONTE - COMARCA; OUVIDORIA DO MPMG 10.069,62 3.020,89 0,00 0,00 0,00 0,00 0,00 1.550,00 14.640,51 1.906,76 2.206,17 0,00 0,00 4.112,93 10.527,58 31/01/2021
508 286100 CIRO CANGUSSU CORDEIRO OFICIAL DO MP IPATINGA - COMARCA; IPATINGA-PJ-09PJ 7.663,37 2.299,01 0,00 0,00 0,00 0,00 0,00 1.703,88 11.666,26 1.406,26 1.379,30 0,00 0,00 2.785,56 8.880,70 31/01/2021
509 689900 CISSA NOGUEIRA NUNES ASSESSOR PROCURADOR JUSTICA BELO HORIZONTE - COMARCA; GABINETE DE PROCURADOR DE JUSTIÇA - SALA 608 0,00 0,00 7.187,72 0,00 0,00 0,00 0,00 1.550,00 8.737,72 751,99 1.202,97 0,00 0,00 1.954,96 6.782,76 31/01/2021
510 681700 CLARA FERREIRA ALKIMIM ASSESSOR PROMOTOR JUSTICA ARAÇUAÍ - COMARCA; ARACUAI-PJ-01PJ 0,00 0,00 7.187,72 0,00 0,00 0,00 0,00 1.550,00 8.737,72 751,99 1.202,97 0,00 0,00 1.954,96 6.782,76 31/01/2021
511 695500 CLARA RODRIGUES BLACH ASSESSOR PROCURADOR JUSTICA BELO HORIZONTE - COMARCA; GABINETE DE PROCURADOR DE JUSTIÇA - SALA 1003 0,00 0,00 7.187,72 0,00 0,00 0,00 0,00 1.550,00 8.737,72 751,99 1.202,97 0,00 0,00 1.954,96 6.782,76 31/01/2021
512 412500 CLARICE GOMES MAROTTA ANALISTA DO MP BELO HORIZONTE - COMARCA; COORD ESTADUAL DE DEFESA DOS ANIMAIS 13.011,52 3.903,46 0,00 0,00 0,00 0,00 496,17 6.962,79 24.373,94 2.518,67 3.089,63 0,00 0,00 5.608,30 18.765,64 31/01/2021
513 605300 CLARISSA AZEVEDO ROCHA OFICIAL DO MP BELO HORIZONTE - COMARCA; DIRET DE DESENV DE RECURSOS HUMANOS-DDRH 5.930,75 593,08 0,00 0,00 0,00 0,00 0,00 1.550,00 8.073,83 856,09 689,27 0,00 0,00 1.545,36 6.528,47 31/01/2021
514 308100 CLARISSA DUARTE BELLONI DIRETOR/ANALISTA BELO HORIZONTE - COMARCA; DIRETORIA-GERAL 0,00 7.409,35 24.697,83 0,00 0,00 0,00 470,91 8.994,23 41.572,32 3.434,37 6.833,15 0,00 474,10 10.741,62 30.830,70 31/01/2021
515 497100 CLARISSA ROCHA GUIDI ANALISTA DO MP BELO HORIZONTE - COMARCA; BH-02PJ FAMILIA-SECRETARIA 10.736,08 1.073,61 0,00 0,00 0,00 0,00 519,63 7.988,04 20.317,36 1.701,83 1.858,16 0,00 0,00 3.559,99 16.757,37 31/01/2021
516 641800 CLARISSE TAVARES GONCALVES OFICIAL DO MP BELO HORIZONTE - COMARCA; BH-07PJ 01 TRIBUNAL JURI-SECRETARIA 5.217,34 521,73 0,00 208,69 69,56 0,00 1.043,45 1.550,00 8.610,77 756,96 507,03 0,00 0,00 1.263,99 7.346,78 31/01/2021
517 463700 CLAUDIA ADRIANA FERRAO DIAS ANALISTA DO MP SETE LAGOAS - COMARCA; SETE LAGOAS-PJ-06PJ 10.069,62 2.013,92 0,00 896,19 0,00 0,00 1.792,39 1.550,00 16.322,12 1.745,64 1.973,56 0,00 0,00 3.719,20 12.602,92 31/01/2021
518 415400 CLAUDIA ALMEIDA DE VASCONCELLOS BARROS ASSESSOR/OFICIAL BELO HORIZONTE - COMARCA; DIVISAO DE SERVICOS 0,00 2.079,50 10.397,52 0,00 0,00 0,00 548,99 7.538,97 20.564,98 1.808,60 2.019,18 0,00 164,65 3.992,43 16.572,55 31/01/2021
519 207000 CLAUDIA APARECIDA VILELA MACHADO ANALISTA DO MP BELO HORIZONTE - COMARCA; CENTRAL DE APOIO TECNICO-SETOR CONTABIL 18.820,14 7.528,06 0,00 0,00 0,00 0,00 483,05 6.819,64 33.650,89 4.027,99 5.112,29 0,00 0,00 9.140,28 24.510,61 31/01/2021
520 365700 CLAUDIA BREGUEZ CUNHA ANALISTA DO MP VARGINHA - COMARCA; VARGINHA-PJ-07PJ 14.790,66 2.958,13 0,00 0,00 0,00 0,00 520,63 7.229,61 25.499,03 2.652,08 3.282,24 0,00 0,00 5.934,32 19.564,71 31/01/2021
521 430500 CLAUDIA CECILIA SANTANA VENCESLAU OFICIAL DO MP BELO HORIZONTE - COMARCA; DIR ANALISES TECNOLOGIA INTELIGENCIA 8.579,10 1.715,82 0,00 0,00 3.431,64 0,00 0,00 1.550,00 15.276,56 1.459,46 2.451,96 0,00 0,00 3.911,42 11.365,14 31/01/2021
522 112400 CLAUDIA CRISTINA FIUZA DE AVELAR AGENTE DO MP BELO HORIZONTE - COMARCA; SERVICO MEDICO-DEPTO PERIC MEDICA SAUDE OCUP 10.069,62 7.048,73 0,00 0,00 0,00 0,00 0,00 1.550,00 18.668,35 2.551,21 3.136,60 0,00 0,00 5.687,81 12.980,54 31/01/2021
523 480400 CLAUDIA GOULART DE SOUZA OFICIAL DO MP PASSOS - COMARCA; PASSOS-PJ-06PJ 7.663,37 1.532,67 0,00 0,00 0,00 0,00 539,50 7.435,47 17.171,01 1.283,64 1.306,55 0,00 0,00 2.590,19 14.580,82 31/01/2021
524 519800 CLAUDIA HELENA CORREA DE ALMEIDA ANALISTA DO MP BELO HORIZONTE - COMARCA; BH-12PJ JUIZO CRIMINAL-GAB 096PJ 10.069,62 1.006,96 0,00 0,00 0,00 0,00 527,98 7.309,82 18.914,38 1.584,53 1.740,95 0,00 0,00 3.325,48 15.588,90 31/01/2021
525 422100 CLAUDIA IACOMINI CABRAL ANALISTA DO MP BELO HORIZONTE - COMARCA; CENT DE APOIO TEC-SETOR DEF,IDOSO E INFANC 13.011,52 9.108,06 0,00 0,00 0,00 0,00 486,63 6.858,70 29.464,91 3.351,41 4.291,89 0,00 0,00 7.643,30 21.821,61 31/01/2021
526 258200 CLAUDIA LAGE MICHALAROS ANALISTA DO MP BELO HORIZONTE - COMARCA; CENTRAL DE APOIO TECN-SETOR DE MEIO AMBIENTE 18.103,37 12.672,36 0,00 0,00 0,00 5.381,03 0,00 1.550,00 37.706,76 4.736,39 7.541,83 0,00 0,00 12.278,22 25.428,54 31/01/2021
527 284600 CLAUDIA LENI DE FREITAS OFICIAL DO MP CONTAGEM - COMARCA; CONTAGEM-PJ-SECRETARIA 6.123,79 2.449,52 0,00 0,00 0,00 0,00 0,00 1.550,00 10.123,31 1.184,01 1.162,70 0,00 0,00 2.346,71 7.776,60 31/01/2021
528 433600 CLAUDIA LUIZA SANTIAGO FELICIO ANALISTA DO MP BELO HORIZONTE - COMARCA; CENT DE APOIO TEC-SETOR DEF,IDOSO E INFANC 13.011,52 2.602,30 0,00 0,00 0,00 0,00 0,00 1.550,00 17.163,82 2.310,49 2.684,78 0,00 0,00 4.995,27 12.168,55 31/01/2021
529 317000 CLAUDIA MACHADO ALVES ASSESSOR/OFICIAL BELO HORIZONTE - COMARCA; DIR GOVERNANCA TECNOLOGIA INFORMACAO 0,00 3.119,26 10.397,52 0,00 0,00 0,00 545,18 7.497,38 21.559,34 1.596,73 2.277,66 0,00 476,35 4.350,74 17.208,60 31/01/2021
530 155300 CLAUDIA MACIEL MIRANDA OFICIAL DO MP CONGONHAS - COMARCA; CONGONHAS-PJ-02PJ 16.750,82 8.375,41 0,00 0,00 0,00 0,00 0,00 1.550,00 26.676,23 3.832,47 4.882,15 0,00 0,00 8.714,62 17.961,61 31/01/2021
531 242200 CLAUDIA MICHELLE DIAS MUNIZ BALEEIRO OFICIAL DO MP MONTE AZUL - COMARCA; MONTE AZUL-PJ-SECRETARIA 12.601,30 5.040,52 0,00 0,00 0,00 0,00 517,49 7.195,38 25.354,69 2.634,97 3.205,39 0,00 0,00 5.840,36 19.514,33 31/01/2021
532 623000 CLAUDIA PATRICIA SILVA RODRIGUES RAPOSEIRAS OFICIAL DO MP PARÁ DE MINAS - COMARCA; PARA DE MINAS-PJ-02PJ 5.387,19 538,72 0,00 0,00 0,00 0,00 0,00 2.319,39 8.245,30 762,96 498,31 0,00 0,00 1.261,27 6.984,03 31/01/2021
533 418400 CLAUDIA REGINA MARTINS BONIFACIO OFICIAL DO MP ITUIUTABA - COMARCA; ITUIUTABA-PJ-06PJ 8.579,10 1.715,82 0,00 0,00 3.431,64 0,00 528,47 7.315,16 21.570,19 1.459,46 2.399,82 0,00 0,00 3.859,28 17.710,91 31/01/2021
534 498300 CLAUDIA SOUTO FARIAS BRAUN OFICIAL DO MP TEÓFILO OTONI - COMARCA; TEOFILO OTONI-PJ-SECRETARIA 6.123,79 612,38 0,00 0,00 0,00 0,00 543,38 7.477,83 14.757,38 890,06 634,05 0,00 0,00 1.524,11 13.233,27 31/01/2021
535 206500 CLAUDIA VALERIA FONSECA ANDRADE ANALISTA DO MP BELO HORIZONTE - COMARCA; BH-23PJ INF-FISC MED SOC FEC 18.820,14 9.410,07 0,00 0,00 9.410,07 4.329,11 0,00 1.550,00 43.519,39 4.329,11 9.481,72 0,00 0,00 13.810,83 29.708,56 31/01/2021
536 277500 CLAUDIO ANTONIO BORGES BRUNSWICK ALVARES OFICIAL DO MP BELO HORIZONTE - COMARCA; BH-15PJ M AMB 16PJ HAB URB-SECRETARIA 10.069,62 3.020,89 0,00 0,00 0,00 0,00 0,00 1.550,00 14.640,51 1.906,76 2.206,17 0,00 0,00 4.112,93 10.527,58 31/01/2021
537 444800 CLAUDIO ARESIO DO CARMO ANALISTA DO MP SETE LAGOAS - COMARCA; SETE LAGOAS-PJ-01PJ 10.069,62 4.027,85 0,00 0,00 0,00 0,00 516,91 7.188,99 21.803,37 2.067,87 2.386,64 0,00 0,00 4.454,51 17.348,86 31/01/2021
538 545100 CLAUDIO HENRIQUE MACEDO DE SOUZA FRANSOZO ANALISTA DO MP OURO PRETO - COMARCA; OURO PRETO-PJ-03PJ 9.146,93 914,69 0,00 0,00 0,00 0,00 0,00 2.319,39 12.381,01 1.422,14 1.506,50 0,00 0,00 2.928,64 9.452,37 31/01/2021
539 353500 CLAUDIO HENRIQUE PEDRO DA ROCHA OFICIAL DO MP BELO HORIZONTE - COMARCA; DIVISAO TRANSPORTES 9.752,14 1.950,43 0,00 0,00 0,00 0,00 514,91 7.167,23 19.384,71 1.684,69 1.781,28 0,00 0,00 3.465,97 15.918,74 31/01/2021
540 265800 CLAUDIO KUPIDLOWSKY FERNANDES OFICIAL DO MP BELO HORIZONTE - COMARCA; SECRETARIA DO PROCON-MG 10.069,62 3.020,89 0,00 0,00 4.363,50 0,00 527,98 7.309,82 25.291,81 1.906,76 1.872,87 0,00 0,00 3.779,63 21.512,18 31/01/2021
541 193600 CLAUDIO LEITE FONTES OFICIAL DO MP ITUIUTABA - COMARCA; ITUIUTABA-PJ-02PJ 9.146,93 3.658,77 0,00 0,00 4.268,57 0,00 516,50 7.184,51 24.775,28 1.861,19 3.011,74 0,00 0,00 4.872,93 19.902,35 31/01/2021
542 329400 CLAUDIO MARCIO BERNARDES OFICIAL DO MP ITAÚNA - COMARCA; ITAUNA-PJ-03PJ 10.069,62 7.048,73 0,00 0,00 0,00 0,00 502,14 7.797,26 25.417,75 2.551,21 3.084,47 0,00 0,00 5.635,68 19.782,07 31/01/2021
543 270200 CLAUDIO RABELO ALVES OFICIAL DO MP FORMIGA - COMARCA; FORMIGA-PJ-03PJ 10.736,08 3.220,82 0,00 0,00 4.652,30 0,00 511,75 7.132,76 26.253,71 2.045,38 3.529,28 0,00 0,00 5.574,66 20.679,05 31/01/2021
544 264700 CLAUDIO ROBERTO KFURI DE ARAUJO ANALISTA DO MP BELO HORIZONTE - COMARCA; CENTRAL DE APOIO TECNICO-SETOR DE INFORMATICA 18.103,37 5.431,01 0,00 0,00 0,00 0,00 0,00 1.550,00 25.084,38 3.577,78 4.514,43 0,00 0,00 8.092,21 16.992,17 31/01/2021
545 188600 CLAUDIO SALES OFICIAL DO MP NEPOMUCENO - COMARCA; NEPOMUCENO-PJ-SECRETARIA 14.790,66 11.832,53 0,00 0,00 0,00 0,00 0,00 1.550,00 28.173,19 4.071,99 5.332,22 0,00 0,00 9.404,21 18.768,98 31/01/2021
546 543300 CLAUDIO SILVA DE CARVALHO ANALISTA DO MP CAMPO BELO - COMARCA; CAMPO BELO-PJ-03PJ 8.436,53 843,65 0,00 0,00 3.093,39 0,00 544,44 7.489,32 20.407,33 1.297,11 2.124,53 0,00 0,00 3.421,64 16.985,69 31/01/2021
547 160700 CLAUDIO VICENTE HESS ASSESSOR BELO HORIZONTE - COMARCA; CENTRAL DE APOIO TECNICO-SETOR DE INFORMATICA 0,00 6.717,58 13.435,16 0,00 0,00 0,00 517,25 7.192,77 27.862,76 751,99 4.664,07 0,00 0,00 5.416,06 22.446,70 31/01/2021
548 312900 CLAUDIO VIEIRA FIRPE OFICIAL DO MP BELO HORIZONTE - COMARCA; CENTRO CERIMONIAL 10.069,62 3.020,89 0,00 0,00 0,00 0,00 527,98 7.309,82 20.928,31 1.906,76 2.206,17 0,00 0,00 4.112,93 16.815,38 31/01/2021
549 634100 CLEA CRISTINA GUERRA DE FREITAS COSTA OFICIAL DO MP BELO HORIZONTE - COMARCA; BH-18PJ VIOLENCIA DOMESTICA-SECRETARIA 5.217,34 521,73 0,00 0,00 1.913,02 0,00 526,08 8.058,46 16.236,63 734,31 980,89 0,00 0,00 1.715,20 14.521,43 31/01/2021
550 653100 CLEBER SOUZA SCALIONI ASSESSOR BELO HORIZONTE - COMARCA; CENTRAL DE APOIO TECNICO-SETOR CONTABIL 0,00 0,00 8.170,49 0,00 0,00 0,00 0,00 1.550,00 9.720,49 751,99 1.473,23 0,00 0,00 2.225,22 7.495,27 31/01/2021
551 459200 CLEIA ZILLE PEREIRA ANALISTA DO MP BELO HORIZONTE - COMARCA; BH-07PJ 01 TRIBUNAL JURI-SECRETARIA 10.069,62 2.013,92 0,00 896,19 0,00 0,00 3.220,26 7.350,10 23.550,09 1.745,64 1.973,56 0,00 0,00 3.719,20 19.830,89 31/01/2021
552 481800 CLEIDE CARDOSO DA SILVA ANALISTA DO MP MANHUAÇU - COMARCA; MANHUACU-PJ-04PJ 10.069,62 1.006,96 0,00 0,00 0,00 0,00 0,00 1.550,00 12.626,58 1.584,53 1.636,68 0,00 0,00 3.221,21 9.405,37 31/01/2021
553 347600 CLEIDIMAR DE OLIVEIRA SILVA OFICIAL DO MP PATOS DE MINAS - COMARCA; PATOS DE MINAS-PJ-03PJ 9.444,70 2.833,41 0,00 0,00 0,00 0,00 540,24 7.443,49 20.261,84 1.776,77 1.809,96 0,00 0,00 3.586,73 16.675,11 31/01/2021
554 396500 CLEIDISON BATISTA DE ANDRADE OFICIAL DO MP RESPLENDOR - COMARCA; RESPLENDOR-PJ-UNPJ 8.170,49 1.634,10 0,00 0,00 0,00 0,00 539,25 8.202,14 18.545,98 1.381,01 1.342,85 0,00 0,00 2.723,86 15.822,12 31/01/2021
555 535100 CLEISON ALVES DA SILVA ANALISTA DO MP BOA ESPERANÇA - COMARCA; BOA ESPERANCA-PJ-01PJ 9.146,93 914,69 0,00 0,00 0,00 0,00 516,50 7.184,51 17.762,63 1.422,14 1.402,22 0,00 0,00 2.824,36 14.938,27 31/01/2021
556 298100 CLEONICE AUGUSTA BARROS DE OLIVEIRA ANALISTA DO MP JUIZ DE FORA - COMARCA; JUIZ DE FORA-PJ-08PJ 18.820,14 5.646,04 0,00 0,00 0,00 0,00 0,00 1.550,00 26.016,18 3.726,87 4.833,95 0,00 0,00 8.560,82 17.455,36 31/01/2021
557 114300 CLERES PEREIRA DA SILVA JUNIOR ASSESSOR BELO HORIZONTE - COMARCA; BH-22PJ PES COM DEF E IDOSOS-SECRETARIA 0,00 2.568,16 5.136,32 0,00 0,00 0,00 0,00 1.550,00 9.254,48 751,99 855,01 0,00 0,00 1.607,00 7.647,48 31/01/2021
558 264100 CLETO HENRIQUE ANDRADE SILVA ANALISTA DO MP BELO HORIZONTE - COMARCA; DIRETORIA DE SISTEMAS DE INFORMACAO 18.103,37 5.431,01 0,00 0,00 0,00 0,00 0,00 1.550,00 25.084,38 3.577,78 4.514,43 0,00 0,00 8.092,21 16.992,17 31/01/2021
559 334400 CLEUBA DE OLIVEIRA BARCELOS GONCALVES OFICIAL DO MP DIVINÓPOLIS - COMARCA; COORD REG SAUDE MACRORREGIAO SANITARIA OESTE 10.069,62 3.020,89 0,00 0,00 4.363,50 0,00 3.657,18 7.309,82 28.421,01 1.906,76 4.162,39 0,00 0,00 6.069,15 22.351,86 31/01/2021
560 347500 CLEUSA CORDEIRO DA MATA PIMENTA OFICIAL DO MP CAMPO BELO - COMARCA; CAMPO BELO-PJ-02PJ 10.069,62 8.055,69 0,00 0,00 0,00 3.625,80 531,68 7.350,10 29.632,89 2.712,33 4.010,83 0,00 0,00 6.723,16 22.909,73 31/01/2021
561 510200 CLEZIO SALES SILVA OFICIAL DO MP BRASÓPOLIS - COMARCA; BRASOPOLIS-PJ-UNPJ 6.123,79 612,38 0,00 0,00 2.245,39 0,00 543,38 9.360,23 18.885,17 890,06 1.355,80 0,00 0,00 2.245,86 16.639,31 31/01/2021
562 323000 CLOTILDE DE PADUA VIEIRA OFICIAL DO MP BELO HORIZONTE - COMARCA; BH-19PJ SAUDE-SECRETARIA 129PJ 7.421,79 2.226,54 0,00 0,00 0,00 0,00 0,00 1.550,00 11.198,33 1.356,01 1.411,03 0,00 0,00 2.767,04 8.431,29 31/01/2021
563 285200 CLOVIS ANDRE LUDTKE OFICIAL DO MP BELO HORIZONTE - COMARCA; DIVISAO DE MANUTENCAO PREDIAL 10.069,62 3.020,89 0,00 0,00 0,00 0,00 527,98 7.309,82 20.928,31 1.906,76 2.206,17 0,00 0,00 4.112,93 16.815,38 31/01/2021
564 381100 CONCEICAO APARECIDA TEIXEIRA ARANTES ANALISTA DO MP BELO HORIZONTE - COMARCA; BH-23PJ INFRACIONAL-ASS JURIDICA 13.872,60 2.774,52 0,00 0,00 0,00 0,00 4.281,00 2.319,39 23.247,51 3.160,78 3.964,52 0,00 0,00 7.125,30 16.122,21 31/01/2021
565 249900 CONSTANTINO CEZAR GOMES MOTA OFICIAL DO MP MONTES CLAROS - COMARCA; COORD REG BACIA RIOS VERDE GRANDE E PARDO 9.444,70 2.833,41 0,00 0,00 0,00 0,00 540,24 8.212,88 21.031,23 1.776,77 1.914,23 0,00 0,00 3.691,00 17.340,23 31/01/2021
566 481000 CRISHMA ANALIA LOMBELLO ANALISTA DO MP JUIZ DE FORA - COMARCA; JUIZ DE FORA-PJ-13PJ 10.069,62 2.013,92 0,00 896,19 4.027,85 0,00 1.006,96 1.550,00 19.564,54 1.906,76 3.261,69 0,00 0,00 5.168,45 14.396,09 31/01/2021
567 523900 CRISTHYANE BAZOLI COSTA GUEDES COUTO OFICIAL DO MP BELO HORIZONTE - COMARCA; BH-04PJ JUIZO REG PÚBLICOS-SECRETARIA 7.421,79 742,18 0,00 0,00 2.721,32 0,00 538,82 7.428,06 18.852,17 1.118,51 1.816,50 0,00 0,00 2.935,01 15.917,16 31/01/2021
568 187000 CRISTIAN DAYVSON EVANGELISTA OFICIAL DO MP JUIZ DE FORA - COMARCA; JUIZ DE FORA-PJ-13PJ 14.790,66 5.916,26 0,00 0,00 0,00 0,00 531,48 7.347,94 28.586,34 3.125,38 3.913,43 0,00 0,00 7.038,81 21.547,53 31/01/2021
569 682100 CRISTIAN TRISTAO DE ANDRADE ASSESSOR PROMOTOR JUSTICA TRÊS CORACOES - COMARCA; TRES CORACOES-PJ-04PJ 0,00 0,00 7.187,72 0,00 0,00 0,00 0,00 1.550,00 8.737,72 751,99 1.202,97 0,00 0,00 1.954,96 6.782,76 31/01/2021
570 319800 CRISTIANA GONCALVES DOS SANTOS GUSMAO OFICIAL DO MP PARAOPEBA - COMARCA; PARAOPEBA-PJ-UNPJ 10.069,62 3.020,89 0,00 0,00 0,00 0,00 0,00 1.550,00 14.640,51 1.906,76 2.206,17 0,00 0,00 4.112,93 10.527,58 31/01/2021
571 520600 CRISTIANA JANAINA BARBOZA JUVENCIO DOS SANTOS ANALISTA DO MP BELO HORIZONTE - COMARCA; BH-02PJ FAMILIA-SECRETARIA 10.069,62 1.006,96 0,00 0,00 0,00 0,00 527,98 7.309,82 18.914,38 1.584,53 1.740,95 0,00 0,00 3.325,48 15.588,90 31/01/2021
572 195600 CRISTIANA SOARES HALABI OFICIAL DO MP UBERABA - COMARCA; UBERABA-PJ-01PJ 15.499,20 6.199,68 0,00 0,00 0,00 0,00 477,38 6.757,73 28.933,99 3.284,10 4.194,70 0,00 0,00 7.478,80 21.455,19 31/01/2021
573 218900 CRISTIANE ALVES BELLES OFICIAL DO MP JUIZ DE FORA - COMARCA; JUIZ DE FORA-PJ-10PJ 6.123,79 1.837,14 0,00 0,00 2.653,64 0,00 525,42 8.435,41 19.575,40 1.086,03 1.646,71 0,00 0,00 2.732,74 16.842,66 31/01/2021
574 263600 CRISTIANE CARVALHO COUTINHO OFICIAL DO MP BELO HORIZONTE - COMARCA; BH-23PJ INFRACIONAL-SEC EXP 10.069,62 3.020,89 0,00 0,00 0,00 0,00 0,00 1.550,00 14.640,51 1.906,76 2.154,03 0,00 0,00 4.060,79 10.579,72 31/01/2021
575 541000 CRISTIANE COELHO ALVES OFICIAL DO MP ITABIRA - COMARCA; ITABIRA-PJ-03PJ 5.387,19 538,72 0,00 0,00 0,00 0,00 543,21 7.475,91 13.945,03 762,96 498,31 0,00 0,00 1.261,27 12.683,76 31/01/2021
576 441700 CRISTIANE CORRADO DE ANDRADE ANALISTA DO MP BELO HORIZONTE - COMARCA; DIRETORIA DE SISTEMAS DE INFORMACAO 13.011,52 2.602,30 0,00 0,00 5.204,61 0,00 515,26 7.170,98 28.504,67 2.310,49 4.220,32 0,00 0,00 6.530,81 21.973,86 31/01/2021
577 375100 CRISTIANE DAS DORES ERCIO DE LIMA OFICIAL DO MP GOVERNADOR VALADARES - COMARCA; COOR REG INCLUSAO MOBILIZ VALE DO RIO DOCE 8.436,53 1.687,31 0,00 0,00 0,00 0,00 0,00 1.550,00 11.673,84 1.432,09 1.520,87 0,00 0,00 2.952,96 8.720,88 31/01/2021
578 178800 CRISTIANE DE LIMA HOSKEN OFICIAL DO MP BELO HORIZONTE - COMARCA; BH-14PJ DEFESA CONSUMIDOR-GAB 110PJ 15.272,02 6.108,81 0,00 0,00 0,00 0,00 0,00 1.550,00 22.930,83 3.233,21 4.016,96 0,00 0,00 7.250,17 15.680,66 31/01/2021
579 494000 CRISTIANE DE MELO MARQUEZ OLIVEIRA ANALISTA DO MP UBERLÂNDIA - COMARCA; UBERLANDIA-PJ-06PJ 11.085,56 1.108,56 0,00 0,00 0,00 0,00 536,54 8.941,96 21.672,62 1.763,34 1.999,10 0,00 0,00 3.762,44 17.910,18 31/01/2021
580 266100 CRISTIANE DE OLIVEIRA CASTRO OFICIAL DO MP BELO HORIZONTE - COMARCA; BH-14PJ DEFESA CONSUMIDOR-SECRETARIA 12.601,30 3.780,39 0,00 0,00 5.942,32 0,00 1.445,27 1.550,00 25.319,28 2.433,35 4.893,75 0,00 0,00 7.327,10 17.992,18 31/01/2021
581 329500 CRISTIANE DOS REIS SILVA OFICIAL DO MP ARAXÁ - COMARCA; ARAXA-PJ-04PJ 9.444,70 2.833,41 0,00 0,00 0,00 0,00 540,24 7.443,49 20.261,84 1.776,77 1.914,23 0,00 0,00 3.691,00 16.570,84 31/01/2021
582 301600 CRISTIANE GODINHO PIRES ANALISTA DO MP BETIM - COMARCA; BETIM-PJ-07PJ 16.750,82 5.025,25 0,00 0,00 0,00 0,00 0,00 1.550,00 23.326,07 3.296,45 4.212,54 0,00 0,00 7.508,99 15.817,08 31/01/2021
583 406100 CRISTIANE GONCALVES CHAVES ANALISTA DO MP BELO HORIZONTE - COMARCA; BH-14PJ DEFESA CONSUMIDOR-GAB 112PJ 14.324,23 4.297,27 0,00 0,00 0,00 0,00 0,00 1.550,00 20.171,50 2.791,72 3.483,83 0,00 0,00 6.275,55 13.895,95 31/01/2021
584 487600 CRISTIANE LOPES DE OLIVEIRA OFICIAL DO MP DIVINÓPOLIS - COMARCA; DIVINOPOLIS-PJ-03PJ 6.123,79 612,38 0,00 0,00 0,00 0,00 543,38 7.477,83 14.757,38 890,06 738,32 0,00 0,00 1.628,38 13.129,00 31/01/2021
585 502500 CRISTIANE MACIEL DE OLIVEIRA GOMES ANALISTA DO MP JUIZ DE FORA - COMARCA; JUIZ DE FORA-PJ-05PJ 10.069,62 1.006,96 0,00 0,00 0,00 0,00 527,98 8.079,21 19.683,77 1.584,53 1.740,95 0,00 0,00 3.325,48 16.358,29 31/01/2021
586 285500 CRISTIANE MAGALHAES LOURENCO ANALISTA DO MP BELO HORIZONTE - COMARCA; CENTRAL DE APOIO TECNICO-SETOR CONTABIL 17.413,92 5.224,18 0,00 0,00 0,00 0,00 498,04 6.983,14 30.119,28 3.434,37 4.359,53 0,00 0,00 7.793,90 22.325,38 31/01/2021
587 536500 CRISTIANE MICHELE DE SOUZA ANALISTA DO MP BARÃO DE COCAIS - COMARCA; BARAO DE COCAIS-PJ-UNPJ 9.146,93 914,69 0,00 0,00 0,00 0,00 0,00 2.319,39 12.381,01 1.422,14 1.402,22 0,00 0,00 2.824,36 9.556,65 31/01/2021
588 346600 CRISTIANE NOGUEIRA ANDRADE ANALISTA DO MP BELO HORIZONTE - COMARCA; CENTRAL DE APOIO TECNICO-SETOR CONTABIL 15.272,02 3.054,40 0,00 0,00 0,00 0,00 0,00 1.550,00 19.876,42 2.744,50 3.415,67 0,00 0,00 6.160,17 13.716,25 31/01/2021
589 234000 CRISTIANE OLIVEIRA TOSTES OFICIAL DO MP JUIZ DE FORA - COMARCA; JUIZ DE FORA-PJ-08PJ 14.324,23 4.297,27 0,00 0,00 0,00 0,00 546,23 8.278,27 27.446,00 2.791,72 3.483,83 0,00 0,00 6.275,55 21.170,45 31/01/2021
590 445800 CRISTIANE ORZIL COSTA OFICIAL DO MP SANTA LUZIA - COMARCA; SANTA LUZIA-PJ-05PJ 6.123,79 1.224,76 0,00 0,00 0,00 0,00 269,45 5.258,81 12.876,81 988,05 879,78 0,00 0,00 1.867,83 11.008,98 31/01/2021
591 616100 CRISTIANE PAES RODRIGUES MARCICANO ANALISTA DO MP CATAGUASES - COMARCA; CATAGUASES-PJ-05PJ 7.663,37 766,34 0,00 0,00 0,00 0,00 525,45 8.820,98 17.776,14 1.161,03 1.129,53 0,00 0,00 2.290,56 15.485,58 31/01/2021
592 612300 CRISTIANE RIBEIRO DOS REIS ARCANJO OFICIAL DO MP BELO HORIZONTE - COMARCA; DIRETORIA DE PAGAMENTO DE PESSOAL-DPAG 5.387,19 538,72 0,00 0,00 0,00 0,00 0,00 0,00 5.925,91 762,96 446,18 0,00 0,00 1.209,14 4.716,77 31/01/2021
593 257700 CRISTIANE RODRIGUES PAES NUNES ANALISTA DO MP BELO HORIZONTE - COMARCA; BH-22PJ PES COM DEF E IDOSOS-ORIENTACAO PSIC 18.820,14 5.646,04 0,00 0,00 8.155,39 0,00 538,26 8.191,27 41.351,10 3.726,87 7.024,55 0,00 0,00 10.751,42 30.599,68 31/01/2021
594 510800 CRISTIANE SANTOS FERNANDES ORNELES ANALISTA DO MP BELO HORIZONTE - COMARCA; COORD ESTADUAL DAS PJS DE HAB. E URBANISMO 10.069,62 1.006,96 0,00 0,00 0,00 0,00 0,00 1.550,00 12.626,58 1.584,53 1.740,95 0,00 0,00 3.325,48 9.301,10 31/01/2021
595 535701 CRISTIANE SANTOS MIRANDA ANALISTA DO MP BETIM - COMARCA; BETIM-PJ-12PJ 7.421,79 445,31 0,00 0,00 2.622,37 0,00 548,08 7.529,00 18.566,55 1.071,01 1.668,58 0,00 0,00 2.739,59 15.826,96 31/01/2021
596 536200 CRISTIANO DE OLIVEIRA ANALISTA DO MP CONCEIÇÃO DO MATO DENTRO - COMARCA; CONCEICAO DO MATO DENTRO-PJ-UNPJ 10.069,62 1.006,96 0,00 0,00 0,00 0,00 527,98 8.079,21 19.683,77 1.584,53 1.688,82 0,00 0,00 3.273,35 16.410,42 31/01/2021
597 477400 CRISTIANO SOARES ELEUTERIO ANALISTA DO MP BELO HORIZONTE - COMARCA; BH-17PJ PATRIMONIO PUBLICO-SECRETARIA 11.085,56 2.217,11 0,00 986,62 369,52 0,00 1.645,10 7.403,17 23.707,08 1.940,70 2.255,18 0,00 0,00 4.195,88 19.511,20 31/01/2021
598 449400 CRISTIANO TEIXEIRA RODRIGUES LANA ANALISTA DO MP BELO HORIZONTE - COMARCA; COORD EST DEF DIR FAM PESSOAS DEFICI IDOSOS 10.069,62 2.013,92 0,00 0,00 0,00 0,00 531,68 7.350,10 19.965,32 1.745,64 1.973,56 0,00 0,00 3.719,20 16.246,12 31/01/2021
599 239400 CRISTINA DE FATIMA CRUZ E SILVA OFICIAL DO MP MONTE SANTO DE MINAS - COMARCA; MONTE SANTO DE MINAS-PJ-SECRETARIA 12.601,30 3.780,39 0,00 0,00 0,00 0,00 0,00 1.550,00 17.931,69 2.433,35 2.966,43 0,00 0,00 5.399,78 12.531,91 31/01/2021
600 544000 CRISTINA DE OLIVEIRA TERRA ANALISTA DO MP SANTA LUZIA - COMARCA; SANTA LUZIA-PJ-07PJ 9.146,93 914,69 0,00 0,00 0,00 0,00 516,50 7.184,51 17.762,63 1.422,14 1.506,50 0,00 0,00 2.928,64 14.833,99 31/01/2021
601 356800 CRISTINA DE PINHO BARROSO OFICIAL DO MP SABINÓPOLIS - COMARCA; SABINOPOLIS-PJ-UNPJ 8.170,49 2.451,15 0,00 0,00 3.540,55 0,00 545,24 8.267,51 22.974,94 1.511,74 2.505,24 0,00 0,00 4.016,98 18.957,96 31/01/2021
602 649500 CRISTINA DO DIVINO ESPIRITO SANTOS OFICIAL DO MP DIVINÓPOLIS - COMARCA; DIVINOPOLIS-PJ-12PJ 4.817,57 289,05 0,00 0,00 1.702,21 0,00 468,11 6.656,62 13.933,56 639,44 775,09 0,00 0,00 1.414,53 12.519,03 31/01/2021
603 348201 CRISTINA MARIA DA SILVA ANALISTA DO MP ARAXÁ - COMARCA; ARAXA-PJ-06PJ 10.069,62 2.013,92 0,00 0,00 0,00 0,00 1.538,64 8.119,49 21.741,67 1.906,76 2.206,17 0,00 0,00 4.112,93 17.628,74 31/01/2021
604 434900 CRISTINA MELO DE MADUREIRA ANALISTA DO MP BELO HORIZONTE - COMARCA; BH-07PJ 01 TRIBUNAL JURI-SECRETARIA 13.011,52 2.602,30 0,00 0,00 5.204,61 0,00 0,00 1.550,00 22.368,43 2.310,49 4.220,32 0,00 0,00 6.530,81 15.837,62 31/01/2021
605 307700 CRISTINA TEIXEIRA MARQUES OFICIAL DO MP BELO HORIZONTE - COMARCA; CENTRAL DE APOIO TECNICO-SETOR CONTABIL 8.858,43 2.657,53 0,00 0,00 0,00 0,00 548,93 7.538,30 19.603,19 1.654,83 1.842,45 0,00 0,00 3.497,28 16.105,91 31/01/2021
606 265300 CRISTOVAO SANCHES DE MEDEIROS ANALISTA DO MP BELO HORIZONTE - COMARCA; DIRETORIA DE CONTABILIDADE 16.750,82 5.025,25 0,00 0,00 7.258,69 0,00 0,00 1.550,00 30.584,76 3.296,45 6.208,68 0,00 0,00 9.505,13 21.079,63 31/01/2021
607 349800 CROZEIR LUIZ DA SILVA OFICIAL DO MP UNAÍ - COMARCA; UNAI-PJ-SECRETARIA 9.444,70 1.888,94 0,00 0,00 0,00 0,00 540,24 8.859,47 20.733,35 1.625,66 1.748,20 0,00 0,00 3.373,86 17.359,49 31/01/2021
608 490500 CYNTHIA CRISTINA DE SOUZA OLIVEIRA VALENTE ANALISTA DO MP BELO HORIZONTE - COMARCA; BH-09PJ AUDITORIA MILITAR-SECRETARIA 10.069,62 1.006,96 0,00 0,00 0,00 0,00 527,98 7.309,82 18.914,38 1.584,53 1.740,95 0,00 0,00 3.325,48 15.588,90 31/01/2021
609 389800 CYNTHIA GARIGLIO DOS SANTOS OFICIAL DO MP PERDIZES - COMARCA; PERDIZES-PJ-SECRETARIA 6.529,10 1.305,82 0,00 0,00 2.611,64 0,00 545,83 8.273,93 19.266,32 1.065,86 1.553,92 0,00 0,00 2.619,78 16.646,54 31/01/2021
610 335101 CYNTHIA GONTIJO D ASSUNCAO ANALISTA DO MP BELO HORIZONTE - COMARCA; PROC. JUSTICA DIR. DIFUSOS E COLETIVOS-SEC 10.069,62 2.013,92 0,00 896,19 0,00 0,00 896,19 2.319,39 16.195,31 1.745,64 1.973,56 0,00 0,00 3.719,20 12.476,11 31/01/2021
611 269700 CYNTIA ROCHA CAVALCANTI OFICIAL DO MP UBERLÂNDIA - COMARCA; UBERLANDIA-PJ-06PJ 12.601,30 3.780,39 0,00 0,00 0,00 0,00 540,60 8.216,80 25.139,09 2.433,35 2.966,43 0,00 0,00 5.399,78 19.739,31 31/01/2021
612 278000 DAIRTON LOPES MARTINS FILHO COORDENADOR/ANALISTA BELO HORIZONTE - COMARCA; DIRETORIA DE SISTEMAS DE INFORMACAO 0,00 4.030,55 13.435,16 0,00 0,00 0,00 512,33 7.139,03 25.117,07 1.906,76 3.409,35 0,00 0,00 5.316,11 19.800,96 31/01/2021
613 392700 DALIANA CHAVES IBRAIM MARINHO OFICIAL DO MP ITAÚNA - COMARCA; ITAUNA-PJ-04PJ 7.187,72 1.437,54 0,00 0,00 0,00 0,00 537,64 7.415,18 16.578,08 1.192,32 1.174,70 0,00 0,00 2.367,02 14.211,06 31/01/2021
614 558101 DALLEY TASSIA SILVA ANALISTA DO MP MORADA NOVA DE MINAS - COMARCA; MORADA NOVA DE MINAS-PJ-UNPJ 8.436,53 843,65 0,00 0,00 0,00 0,00 0,00 3.088,78 12.368,96 1.297,11 1.221,71 0,00 0,00 2.518,82 9.850,14 31/01/2021
615 476700 DALTON DAUD ANALISTA DO MP ARAGUARI - COMARCA; ARAGUARI-PJ-05PJ 10.069,62 2.013,92 0,00 896,19 335,65 0,00 1.427,87 7.350,10 22.093,35 1.745,64 1.869,29 0,00 0,00 3.614,93 18.478,42 31/01/2021
616 426900 DANIEL ALVES DA SILVA OFICIAL DO MP BELO HORIZONTE - COMARCA; DIVISAO TRANSPORTES 6.123,79 1.224,76 0,00 0,00 0,00 0,00 0,00 1.550,00 8.898,55 988,05 775,50 0,00 0,00 1.763,55 7.135,00 31/01/2021
617 122000 DANIEL ANTONIO VIEIRA OFICIAL DO MP ENTRE-RIOS DE MINAS - COMARCA; ENTRE RIOS DE MINAS-PJ-SECRETARIA 10.069,62 8.055,69 0,00 0,00 0,00 0,00 0,00 1.550,00 19.675,31 2.712,33 3.160,66 0,00 0,00 5.872,99 13.802,32 31/01/2021
618 411000 DANIEL FERREIRA DA SILVA ANALISTA DO MP GOVERNADOR VALADARES - COMARCA; GOVERNADOR VALADARES-PJ-15PJ 12.601,30 3.780,39 0,00 0,00 0,00 0,00 0,00 3.088,78 19.470,47 2.433,35 2.757,88 0,00 0,00 5.191,23 14.279,24 31/01/2021
619 309000 DANIEL GOMES DOS SANTOS ANALISTA DO MP POÇOS DE CALDAS - COMARCA; POCOS DE CALDAS-PJ-03PJ 17.413,92 5.224,18 0,00 0,00 0,00 0,00 498,04 6.983,14 30.119,28 3.434,37 4.411,67 0,00 0,00 7.846,04 22.273,24 31/01/2021
620 554500 DANIEL GOMES PEREIRA OFICIAL DO MP NANUQUE - COMARCA; NANUQUE-PJ-02PJ 5.930,75 593,08 0,00 0,00 2.174,61 0,00 526,26 7.290,97 16.515,67 856,09 1.287,29 0,00 0,00 2.143,38 14.372,29 31/01/2021
621 453000 DANIEL GONCALVES PEREIRA ANALISTA DO MP UNAÍ - COMARCA; UNAI-PJ-02PJ 10.069,62 2.013,92 0,00 0,00 0,00 0,00 531,68 9.273,03 21.888,25 1.745,64 1.973,56 0,00 0,00 3.719,20 18.169,05 31/01/2021
622 495500 DANIEL GUIMARAES CABRAL OFICIAL DO MP BELO HORIZONTE - COMARCA; BH-17PJ PATRIMONIO PUBLICO-SECRETARIA 6.123,79 612,38 0,00 0,00 0,00 0,00 0,00 1.550,00 8.286,17 890,06 738,32 0,00 0,00 1.628,38 6.657,79 31/01/2021
623 442900 DANIEL GUIMARAES GONCALVES ANALISTA DO MP UBERLÂNDIA - COMARCA; UBERLANDIA-PJ-03PJ 12.601,30 2.520,26 0,00 0,00 0,00 0,00 499,01 6.993,76 22.614,33 2.231,73 2.675,34 0,00 0,00 4.907,07 17.707,26 31/01/2021
624 655900 DANIEL LUIZ DA SILVA ASSESSOR BELO HORIZONTE - COMARCA; DIV FISCAL ADM CONT TERCEIRIZACAO 0,00 0,00 4.724,31 0,00 1.538,14 0,00 535,79 7.394,93 14.193,17 751,99 948,52 0,00 0,00 1.700,51 12.492,66 31/01/2021
625 464600 DANIEL PIACENTINI STIVANIN ANALISTA DO MP ANDRADAS - COMARCA; ANDRADAS-PJ-02PJ 10.069,62 2.013,92 0,00 896,19 0,00 0,00 1.792,39 1.550,00 16.322,12 1.745,64 1.973,56 0,00 0,00 3.719,20 12.602,92 31/01/2021
626 417000 DANIEL QUEIROZ FERREIRA ANALISTA DO MP SÃO SEBASTIÃO DO PARAÍSO - COMARCA; SAO SEBASTIAO DO PARAISO-PJ-05PJ 12.601,30 2.520,26 0,00 0,00 0,00 0,00 499,01 6.993,76 22.614,33 2.231,73 2.675,34 0,00 0,00 4.907,07 17.707,26 31/01/2021
627 396700 DANIEL SILVA CARNEVALLI DIRETOR/ANALISTA BELO HORIZONTE - COMARCA; SUPERINTENDENCIA DE TECNOLOGIA DA INFORMACAO 0,00 3.482,78 17.413,92 0,00 0,00 0,00 536,35 8.170,47 29.603,52 2.562,53 3.934,28 0,00 866,40 7.363,21 22.240,31 31/01/2021
628 489300 DANIEL TABOZA ROCHA ANALISTA DO MP IPATINGA - COMARCA; IPATINGA-PJ-08PJ 10.069,62 1.006,96 0,00 0,00 0,00 0,00 0,00 2.319,39 13.395,97 1.584,53 1.740,95 0,00 0,00 3.325,48 10.070,49 31/01/2021
629 414100 DANIEL TARDELI VALADAO ANALISTA DO MP TRÊS CORACOES - COMARCA; TRES CORACOES-PJ-02PJ 12.601,30 2.520,26 0,00 0,00 0,00 0,00 0,00 3.088,78 18.210,34 2.231,73 2.466,79 0,00 0,00 4.698,52 13.511,82 31/01/2021
630 446601 DANIEL VIEIRA BUENO ANALISTA DO MP SÃO DOMINGOS DO PRATA - COMARCA; SAO DOMINGOS DO PRATA-PJ-UNPJ 8.858,43 885,84 0,00 315,36 0,00 0,00 2.126,04 2.319,39 14.505,06 1.371,36 1.381,05 0,00 0,00 2.752,41 11.752,65 31/01/2021
631 253200 DANIELA BATISTA LIMA BARBOSA ASSESSOR BELO HORIZONTE - COMARCA; CENTRAL DE APOIO TECN-SETOR DE MEIO AMBIENTE 0,00 1.540,90 5.136,32 0,00 0,00 0,00 0,00 1.550,00 8.227,22 751,99 1.062,58 0,00 0,00 1.814,57 6.412,65 31/01/2021
632 505800 DANIELA BORGES DE MATTOS RESENDE ANALISTA DO MP JUIZ DE FORA - COMARCA; JUIZ DE FORA-PJ-20PJ 10.069,62 1.006,96 0,00 0,00 0,00 0,00 527,98 8.079,21 19.683,77 1.584,53 1.740,95 0,00 0,00 3.325,48 16.358,29 31/01/2021
633 478000 DANIELA CARVALHO SOARES ANALISTA DO MP SÃO JOÃO DEL REI - COMARCA; SAO JOAO DEL REI-PJ-01PJ 10.069,62 2.013,92 0,00 896,19 0,00 0,00 896,19 1.550,00 15.425,92 1.745,64 1.973,56 0,00 0,00 3.719,20 11.706,72 31/01/2021
634 275900 DANIELA CHAGAS SODRE ANALISTA DO MP BELO HORIZONTE - COMARCA; CENTRAL DE APOIO TECNICO-SETOR CONTABIL 17.413,92 5.224,18 0,00 0,00 0,00 0,00 0,00 1.550,00 24.188,10 3.434,37 4.359,53 0,00 0,00 7.793,90 16.394,20 31/01/2021
635 234301 DANIELA CRUZ SOARES ANALISTA DO MP BELO HORIZONTE - COMARCA; LABORATORIO TECNOLOGIA INTELIGENCIA 18.103,37 5.431,01 0,00 0,00 7.844,79 0,00 0,00 1.550,00 32.929,17 3.577,78 6.776,02 0,00 0,00 10.353,80 22.575,37 31/01/2021
636 638000 DANIELA DE ALMEIDA BATISTA ANALISTA DO MP ANDRELÂNDIA - COMARCA; ANDRELANDIA-PJ-UNPJ 8.170,49 817,05 0,00 0,00 0,00 0,00 329,54 5.914,41 15.231,49 841,65 1.370,76 0,00 0,00 2.212,41 13.019,08 31/01/2021
637 301000 DANIELA DE ALMEIDA E OLIVEIRA ANALISTA DO MP BELO HORIZONTE - COMARCA; DIRETORIA DE SISTEMAS DE INFORMACAO 17.413,92 5.224,18 0,00 0,00 0,00 0,00 0,00 1.550,00 24.188,10 3.434,37 4.411,67 0,00 0,00 7.846,04 16.342,06 31/01/2021
638 296000 DANIELA DE AZEVEDO SILVA ANALISTA DO MP BRASÓPOLIS - COMARCA; BRASOPOLIS-PJ-UNPJ 16.750,82 5.025,25 0,00 0,00 7.258,69 0,00 479,07 6.776,26 36.290,09 3.296,45 6.208,68 0,00 0,00 9.505,13 26.784,96 31/01/2021
639 453500 DANIELA DE CASTRO SOUSA BARBOSA ANALISTA DO MP BELO HORIZONTE - COMARCA; BH-08PJ JUIZADO ESPECIAL-SECRETARIA 10.069,62 2.013,92 0,00 0,00 0,00 0,00 531,68 7.350,10 19.965,32 1.745,64 1.973,56 0,00 0,00 3.719,20 16.246,12 31/01/2021
640 506000 DANIELA DE OLIVEIRA CAVALIERI ANALISTA DO MP BELO HORIZONTE - COMARCA; BH-14PJ DEFESA CONSUMIDOR-GAB 005PJ 10.069,62 1.006,96 0,00 0,00 3.692,19 0,00 527,98 7.309,82 22.606,57 1.584,53 2.756,31 0,00 0,00 4.340,84 18.265,73 31/01/2021
641 546200 DANIELA DE VILHENA LEMES GONCALVES OFICIAL DO MP TRÊS CORACOES - COMARCA; TRES CORACOES-PJ-05PJ 5.387,19 538,72 0,00 0,00 0,00 0,00 0,00 1.550,00 7.475,91 762,96 446,18 0,00 0,00 1.209,14 6.266,77 31/01/2021
642 356400 DANIELA LEAL FERRAZ ANALISTA DO MP MONTES CLAROS - COMARCA; COORD REG PJ DEF EDUC DIR CRIANCA ADOL NORTE 14.790,66 2.958,13 0,00 0,00 0,00 0,00 520,63 7.229,61 25.499,03 2.652,08 3.282,24 0,00 0,00 5.934,32 19.564,71 31/01/2021
643 501000 DANIELA LOURENCO SANTOS DA SILVA GUIMARAES ANALISTA DO MP BELO HORIZONTE - COMARCA; BH-12PJ JUIZO CRIMINAL-GAB 095PJ 10.069,62 1.006,96 0,00 0,00 0,00 0,00 0,00 1.550,00 12.626,58 1.584,53 1.688,82 0,00 0,00 3.273,35 9.353,23 31/01/2021
644 195801 DANIELA MARIA DE OLIVEIRA QUEIROZ ANALISTA DO MP ARAGUARI - COMARCA; ARAGUARI-PJ-06PJ 13.011,52 5.204,61 0,00 0,00 0,00 0,00 0,00 1.550,00 19.766,13 2.726,86 3.390,19 0,00 0,00 6.117,05 13.649,08 31/01/2021
645 511400 DANIELA MARIA LARA DE OLIVEIRA ANALISTA DO MP BOA ESPERANÇA - COMARCA; BOA ESPERANCA-PJ-02PJ 10.069,62 1.006,96 0,00 0,00 0,00 0,00 527,98 8.079,21 19.683,77 1.584,53 1.688,82 0,00 0,00 3.273,35 16.410,42 31/01/2021
646 252101 DANIELA PAULA ALVES PENA ANALISTA DO MP CONTAGEM - COMARCA; CONTAGEM-PJ-APO TECNICO 14.324,23 5.729,69 0,00 0,00 6.684,64 0,00 514,72 7.165,10 34.418,38 3.020,90 5.653,00 0,00 0,00 8.673,90 25.744,48 31/01/2021
647 604700 DANIELA PEIXOTO NOGUEIRA COORDENADOR/OFICIAL BELO HORIZONTE - COMARCA; DIRET DE FORMACAO, APERFEIC. E POS-GRADUACAO 0,00 1.181,92 11.819,15 0,00 0,00 0,00 524,38 8.039,86 21.565,31 856,09 2.380,08 0,00 328,85 3.565,02 18.000,29 31/01/2021
648 429600 DANIELA PIMENTA NUNES MACHADO ANALISTA DO MP BELO HORIZONTE - COMARCA; BH-05PJ-JUÍZO SUCESSÕES-SEC 13.011,52 2.602,30 0,00 0,00 0,00 0,00 515,26 7.940,37 24.069,45 2.310,49 2.736,92 0,00 0,00 5.047,41 19.022,04 31/01/2021
649 662000 DANIELA RIBAS DE AVILA ASSESSOR I BELO HORIZONTE - COMARCA; DIRETORIA DE SEGURANCA 0,00 0,00 8.170,49 0,00 2.723,50 0,00 0,00 1.550,00 12.443,99 751,99 2.222,19 0,00 0,00 2.974,18 9.469,81 31/01/2021
650 462000 DANIELA SOUSA GOMES DO AMARAL ANALISTA DO MP BETIM - COMARCA; BETIM-PJ-04PJ 10.069,62 2.013,92 0,00 896,19 0,00 0,00 1.792,39 1.550,00 16.322,12 1.745,64 1.973,56 0,00 0,00 3.719,20 12.602,92 31/01/2021
651 427000 DANIELA TEIXEIRA DINIZ ANDRADE ANALISTA DO MP BELO HORIZONTE - COMARCA; DIRETORIA DE PROJETOS DE EDIFICACOES 10.069,62 2.013,92 0,00 0,00 0,00 0,00 0,00 1.550,00 13.633,54 1.745,64 1.921,43 0,00 0,00 3.667,07 9.966,47 31/01/2021
652 337200 DANIELA TOLEDO SENIUK ANALISTA DO MP BELO HORIZONTE - COMARCA; GABINETE DE PROCURADOR DE JUSTIÇA - SALA 412 13.435,16 4.030,55 0,00 0,00 0,00 0,00 0,00 1.550,00 19.015,71 2.606,79 3.216,84 0,00 0,00 5.823,63 13.192,08 31/01/2021
653 605600 DANIELE ALZIRA SILVA CABRAL MOREIRA OFICIAL DO MP BELO HORIZONTE - COMARCA; BH-10PJ EXECUÇÃO PENAL-SECRETARIA 5.930,75 593,08 0,00 0,00 0,00 0,00 0,00 2.319,39 8.843,22 856,09 689,27 0,00 0,00 1.545,36 7.297,86 31/01/2021
654 195500 DANIELE CHAVES FONSECA OFICIAL DO MP BELO HORIZONTE - COMARCA; ASSESSORIA ESPECIAL DO PGJ 15.499,20 6.199,68 0,00 0,00 0,00 0,00 477,38 6.757,73 28.933,99 3.284,10 4.194,70 0,00 0,00 7.478,80 21.455,19 31/01/2021
655 323400 DANIELE MEGALE SANTINI OFICIAL DO MP BELO HORIZONTE - COMARCA; CGMP-DIVIS DE APOIO FISC ORIENTACAO FUNCIONAL 10.069,62 3.020,89 0,00 0,00 4.363,50 0,00 527,98 7.309,82 25.291,81 1.906,76 3.354,00 0,00 0,00 5.260,76 20.031,05 31/01/2021
656 357900 DANIELE REJANE PINTO VERSIEUX OFICIAL DO MP PEDRO LEOPOLDO - COMARCA; PEDRO LEOPOLDO-PJ-03PJ 9.146,93 1.829,39 0,00 0,00 0,00 0,00 523,20 7.257,69 18.757,21 1.568,49 1.717,79 0,00 0,00 3.286,28 15.470,93 31/01/2021
657 389500 DANIELE VASCONCELOS AMORIM PRADO OFICIAL DO MP SÃO SEBASTIÃO DO PARAÍSO - COMARCA; SAO SEBASTIAO DO PARAISO-PJ-04PJ 8.858,43 1.771,69 0,00 0,00 0,00 0,00 0,00 1.550,00 12.180,12 1.513,10 1.637,82 0,00 0,00 3.150,92 9.029,20 31/01/2021
658 629700 DANIELLA BASTOS MARTINS BICALHO OFICIAL DO MP GOVERNADOR VALADARES - COMARCA; GOVERNADOR VALADARES-PJ-16PJ 5.387,19 538,72 0,00 0,00 0,00 0,00 543,21 7.475,91 13.945,03 762,96 550,45 0,00 0,00 1.313,41 12.631,62 31/01/2021
659 265000 DANIELLE CASTANHEIRA SCALABRINI OFICIAL DO MP BELO HORIZONTE - COMARCA; JUNTA RECURSAL DO PROCON ESTADUAL 10.069,62 3.020,89 0,00 0,00 0,00 0,00 527,98 7.309,82 20.928,31 1.906,76 2.101,90 0,00 0,00 4.008,66 16.919,65 31/01/2021
660 490100 DANIELLE DE AVILA SILVA LOPES ANALISTA DO MP BELO HORIZONTE - COMARCA; PROC. JUSTICA DIR. DIFUSOS E COLETIVOS-SEC 10.069,62 3.020,89 0,00 0,00 0,00 0,00 0,00 3.088,78 16.179,29 1.906,76 2.206,17 0,00 0,00 4.112,93 12.066,36 31/01/2021
661 549600 DANIELLE GOMES LOPES RODRIGUES OFICIAL DO MP VESPASIANO - COMARCA; VESPASIANO-PJ-02PJ 5.930,75 593,08 0,00 0,00 0,00 0,00 0,00 1.550,00 8.073,83 856,09 689,27 0,00 0,00 1.545,36 6.528,47 31/01/2021
662 613000 DANIELLE SILVA OLIVEIRA FRANKLIN ASSESSOR/OFICIAL BELO HORIZONTE - COMARCA; DIRETORIA DE ORCAMENTO-DIOR/SPC 0,00 1.039,75 10.397,52 0,00 0,00 0,00 0,00 3.088,78 14.526,05 762,96 2.037,82 0,00 102,75 2.903,53 11.622,52 31/01/2021
663 380800 DANILLO RIBEIRO ANTUNES ANALISTA DO MP MONTES CLAROS - COMARCA; MONTES CLAROS-PJ-SECRETARIA 14.324,23 2.864,85 0,00 0,00 0,00 0,00 0,00 1.550,00 18.739,08 2.562,53 3.100,80 0,00 0,00 5.663,33 13.075,75 31/01/2021
664 453700 DANILO BOTELHO DE CARVALHO ASSESSOR/ANALISTA BELO HORIZONTE - COMARCA; SUPERINTENDENCIA DE FINANCAS 0,00 4.939,57 24.697,83 0,00 0,00 0,00 543,35 8.246,87 38.427,62 2.231,73 6.595,09 0,00 262,20 9.089,02 29.338,60 31/01/2021
665 391200 DANILO D'AVILA MENDES ANALISTA DO MP MONTES CLAROS - COMARCA; GAECO REGIONAL DE MONTES CLAROS 14.324,23 2.864,85 0,00 0,00 0,00 0,00 504,21 7.819,90 25.513,19 2.562,53 3.152,94 0,00 0,00 5.715,47 19.797,72 31/01/2021
666 494900 DANILO GAVIAO AVELINO DE MELLO ANALISTA DO MP POUSO ALEGRE - COMARCA; GAECO REGIONAL DE POUSO ALEGRE 10.069,62 1.006,96 0,00 0,00 0,00 0,00 527,98 8.079,21 19.683,77 1.584,53 1.740,95 0,00 0,00 3.325,48 16.358,29 31/01/2021
667 604300 DANILO NASCIMENTO SALGADO ANALISTA DO MP JANAÚBA - COMARCA; JANAUBA-PJ-01PJ 9.146,93 914,69 0,00 0,00 0,00 0,00 368,93 5.574,65 16.005,20 1.422,14 1.506,50 0,00 0,00 2.928,64 13.076,56 31/01/2021
668 298300 DANUZA MONICA DE SOUZA DINIZ ANALISTA DO MP BELO HORIZONTE - COMARCA; CAO-FUNDACOES 13.872,60 4.161,78 0,00 0,00 0,00 0,00 529,01 7.321,00 25.884,39 2.697,78 3.296,07 0,00 0,00 5.993,85 19.890,54 31/01/2021
669 398700 DARCY LUIZ MILEO GREGATTI OFICIAL DO MP LAMBARI - COMARCA; LAMBARI-PJ-SECRETARIA 8.579,10 1.715,82 0,00 0,00 0,00 0,00 528,47 7.315,16 18.138,55 1.459,46 1.560,39 0,00 0,00 3.019,85 15.118,70 31/01/2021
670 406200 DARIANA AUGUSTA DE TOLEDO PATROCINIO RUIZ COORDENADOR/OFICIAL BELO HORIZONTE - COMARCA; DIRETORIA GESTAO COMPRAS LICITACOES 0,00 2.687,03 13.435,16 0,00 0,00 0,00 532,03 7.353,99 24.008,21 1.513,10 3.097,44 0,00 184,35 4.794,89 19.213,32 31/01/2021
671 586901 DARIO VITORINO DE CARVALHO SILVA ASSESSOR BELO HORIZONTE - COMARCA; DIRETORIA DE SEGURANCA 0,00 0,00 17.413,92 0,00 0,00 0,00 510,81 7.122,45 25.047,18 751,99 3.963,03 0,00 0,00 4.715,02 20.332,16 31/01/2021
672 305000 DARLI LEITE DE OLIVEIRA OFICIAL DO MP ARAÇUAÍ - COMARCA; ARACUAI-PJ-01PJ 6.123,79 1.837,14 0,00 0,00 0,00 0,00 525,42 7.281,87 15.768,22 1.086,03 864,83 0,00 0,00 1.950,86 13.817,36 31/01/2021
673 122200 DAVID RIBEIRO DOS SANTOS ANALISTA DO MP BORDA DA MATA - COMARCA; BORDA DA MATA-PJ-UNPJ 18.820,14 15.056,11 0,00 0,00 0,00 5.232,48 496,85 6.970,20 46.575,78 5.232,48 8.446,61 0,00 0,00 13.679,09 32.896,69 31/01/2021
674 389400 DAWSON CANEDO MARQUES OFICIAL DO MP TRÊS CORACOES - COMARCA; TRES CORACOES-PJ-01PJ 8.858,43 1.771,69 0,00 0,00 0,00 0,00 545,68 7.502,87 18.678,67 1.513,10 911,82 0,00 0,00 2.424,92 16.253,75 31/01/2021
675 537200 DAYANE TEIXEIRA DE OLIVEIRA CASELLI ANALISTA DO MP BELO HORIZONTE - COMARCA; GABINETE DE PROCURADOR DE JUSTIÇA - SALA 705 7.421,79 445,31 0,00 0,00 2.622,37 0,00 0,00 1.550,00 12.039,47 1.071,01 1.720,72 0,00 0,00 2.791,73 9.247,74 31/01/2021
676 256100 DAYSE ROSALY PEREIRA BATISTA OFICIAL DO MP BELO HORIZONTE - COMARCA; BH-08PJ JUIZADO ESPECIAL-SECRETARIA 10.069,62 3.020,89 0,00 0,00 0,00 0,00 0,00 1.550,00 14.640,51 1.906,76 2.206,17 0,00 0,00 4.112,93 10.527,58 31/01/2021
677 311901 DEBORA APARECIDA DA SILVA ASSESSOR BELO HORIZONTE - COMARCA; BH-23PJ CIVEL-SETOR ATEND PUB 0,00 0,00 3.076,28 0,00 1.025,43 0,00 0,00 1.550,00 5.651,71 435,97 441,22 0,00 0,00 877,19 4.774,52 31/01/2021
678 194301 DEBORA APARECIDA DOS SANTOS ANALISTA DO MP UBERLÂNDIA - COMARCA; UBERLANDIA-PJ-SEC FAMILIA 18.820,14 7.528,06 0,00 0,00 0,00 0,00 483,05 6.819,64 33.650,89 4.027,99 5.216,56 0,00 0,00 9.244,55 24.406,34 31/01/2021
679 518800 DEBORA CARVALHO FIORATTO COORDENADOR/OFICIAL BELO HORIZONTE - COMARCA; DIRETORIA MATERIAIS E SERVICOS 0,00 1.343,52 13.435,16 0,00 0,00 0,00 0,00 2.319,39 17.098,07 1.118,51 2.774,02 0,00 411,50 4.304,03 12.794,04 31/01/2021
680 444900 DEBORA CLAUDIA PEREIRA ALVES ANALISTA DO MP BELO HORIZONTE - COMARCA; BH-08PJ JUIZADO ESPECIAL-SECRETARIA 10.069,62 2.013,92 0,00 0,00 0,00 0,00 531,68 7.350,10 19.965,32 1.745,64 1.973,56 0,00 0,00 3.719,20 16.246,12 31/01/2021
681 617700 DEBORA COMANDUCI SCHREIDER ANALISTA DO MP BICAS - COMARCA; BICAS-PJ-UNPJ 8.436,53 843,65 0,00 0,00 0,00 0,00 306,25 4.890,86 14.477,29 1.297,11 1.273,85 0,00 0,00 2.570,96 11.906,33 31/01/2021
682 555700 DEBORA CRISTINA BUITRAGO PEREIRA ANALISTA DO MP BELO HORIZONTE - COMARCA; DIRETORIA GESTAO CONTRATOS CONVENIOS 9.146,93 914,69 0,00 0,00 0,00 0,00 0,00 3.088,78 13.150,40 1.422,14 1.506,50 0,00 0,00 2.928,64 10.221,76 31/01/2021
683 513100 DEBORA CRISTINA PEREIRA DE OLIVEIRA ANALISTA DO MP BELO HORIZONTE - COMARCA; BH-23PJ CIVEL-SETOR JURIDICO 10.069,62 1.006,96 0,00 0,00 0,00 0,00 527,98 8.079,21 19.683,77 1.584,53 1.740,95 0,00 0,00 3.325,48 16.358,29 31/01/2021
684 612100 DEBORA DUARTE SILVA DE SOUZA OFICIAL DO MP RIBEIRÃO DAS NEVES - COMARCA; RIBEIRAO DAS NEVES-PJ-06PJ 5.387,19 1.616,16 0,00 0,00 2.334,45 0,00 539,26 7.432,81 17.309,87 932,81 1.337,74 0,00 0,00 2.270,55 15.039,32 31/01/2021
685 539700 DEBORA SALES CARVALHO ANALISTA DO MP PATOS DE MINAS - COMARCA; COORD REG PJ DEF EDU DIR CRI ADO AL PAR NOROE 9.146,93 914,69 0,00 0,00 0,00 0,00 0,00 1.550,00 11.611,62 1.422,14 1.506,50 0,00 0,00 2.928,64 8.682,98 31/01/2021
686 424100 DEBORA SANTOS E ALVES ANALISTA DO MP JANUÁRIA - COMARCA; JANUARIA-PJ-01PJ 13.011,52 2.602,30 0,00 0,00 0,00 0,00 515,26 8.709,76 24.838,84 2.310,49 2.789,06 0,00 0,00 5.099,55 19.739,29 31/01/2021
687 426301 DEBORA SCUCATO MACHADO SOARES OFICIAL DO MP ITABIRITO - COMARCA; ITABIRITO-PJ-01PJ 5.930,75 1.186,15 0,00 0,00 0,00 0,00 548,00 8.297,59 15.962,49 950,98 826,27 0,00 0,00 1.777,25 14.185,24 31/01/2021
688 678100 DEBORA SOUZA COSTA ASSESSOR PROMOTOR JUSTICA BOTELHOS - COMARCA; BOTELHOS-PJ-UNPJ 0,00 0,00 7.187,72 0,00 0,00 0,00 0,00 1.550,00 8.737,72 751,99 1.150,83 0,00 0,00 1.902,82 6.834,90 31/01/2021
689 550200 DEBORA TRINDADE LEITE ANALISTA DO MP MANHUAÇU - COMARCA; MANHUACU-PJ-05PJ 9.146,93 914,69 0,00 0,00 3.353,87 0,00 0,00 1.550,00 14.965,49 1.422,14 2.324,54 0,00 0,00 3.746,68 11.218,81 31/01/2021
690 438000 DEBORAH COSTA LAGE ANALISTA DO MP BELO HORIZONTE - COMARCA; PROC JUST RECURSOS ESP E EXTRAORD CRIMINAIS 13.011,52 2.602,30 0,00 0,00 0,00 0,00 515,26 7.170,98 23.300,06 2.310,49 2.789,06 0,00 0,00 5.099,55 18.200,51 31/01/2021
691 475700 DEBORAH LOBAO LACERDA ASSESSOR/OFICIAL BELO HORIZONTE - COMARCA; BH-17PJ PATRIMONIO PUBLICO-SECRETARIA 0,00 1.634,10 8.170,49 727,17 0,00 0,00 727,17 1.550,00 12.808,93 988,05 1.555,19 0,00 0,00 2.543,24 10.265,69 31/01/2021
692 678500 DEBORAH PESSOA DA SILVA GUEDES ASSESSOR PROCURADOR JUSTICA BELO HORIZONTE - COMARCA; GABINETE DE PROCURADOR DE JUSTIÇA - SALA 703 0,00 0,00 7.187,72 0,00 0,00 0,00 0,00 1.550,00 8.737,72 751,99 1.202,97 0,00 0,00 1.954,96 6.782,76 31/01/2021
693 613700 DEISER MARIA FERREIRA ROSCOE OFICIAL DO MP BELO HORIZONTE - COMARCA; DIVISAO FROTA 5.387,19 538,72 0,00 0,00 0,00 0,00 543,21 7.475,91 13.945,03 762,96 550,45 0,00 0,00 1.313,41 12.631,62 31/01/2021
694 551900 DEISY ROCHA DA SILVA ANALISTA DO MP CARMO DO PARANAÍBA - COMARCA; CARMO DO PARANAIBA-PJ-01PJ 9.146,93 914,69 0,00 0,00 0,00 0,00 0,00 1.550,00 11.611,62 1.422,14 1.506,50 0,00 0,00 2.928,64 8.682,98 31/01/2021
695 501900 DELI RAQUEL RODRIGUES ANALISTA DO MP ITUIUTABA - COMARCA; ITUIUTABA-PJ-04PJ 10.069,62 1.006,96 0,00 0,00 0,00 0,00 527,98 7.309,82 18.914,38 1.584,53 1.740,95 0,00 0,00 3.325,48 15.588,90 31/01/2021
696 378600 DELIANE LOPES VIEIRA BREIJAO ANALISTA DO MP JUIZ DE FORA - COMARCA; JUIZ DE FORA-PJ-12PJ 14.324,23 2.864,85 0,00 0,00 0,00 0,00 504,21 7.050,51 24.743,80 2.562,53 3.100,80 0,00 0,00 5.663,33 19.080,47 31/01/2021
697 487700 DENIA FERREIRA MAIA SILVA OFICIAL DO MP TRÊS CORACOES - COMARCA; TRES CORACOES-PJ-04PJ 6.123,79 612,38 0,00 0,00 0,00 0,00 0,00 2.319,39 9.055,56 890,06 634,05 0,00 0,00 1.524,11 7.531,45 31/01/2021
698 424800 DENIS APARECIDO CAMPOS DELFINO ANALISTA DO MP LUZ - COMARCA; LUZ-PJ-UNPJ 12.601,30 2.520,26 0,00 0,00 0,00 0,00 499,01 7.763,15 23.383,72 2.231,73 2.466,79 0,00 0,00 4.698,52 18.685,20 31/01/2021
699 381400 DENISE ANGELICA MELLO DE PAULA OFICIAL DO MP BELO HORIZONTE - COMARCA; BH-18PJ DIREITOS HUMANOS-SECRETARIA 8.858,43 1.771,69 0,00 0,00 0,00 0,00 0,00 2.319,39 12.949,51 1.513,10 1.637,82 0,00 0,00 3.150,92 9.798,59 31/01/2021
700 196300 DENISE DE ALMEIDA VILELA FURTADO OFICIAL DO MP BELO HORIZONTE - COMARCA; CENTRAL DE APOIO TECNICO-SECRETARIA 12.204,02 4.881,61 0,00 0,00 0,00 0,00 501,18 8.170,94 25.757,75 2.545,98 3.129,04 0,00 0,00 5.675,02 20.082,73 31/01/2021
701 336900 DENISE DE SOUSA MORAES SILVA OFICIAL DO MP MATEUS LEME - COMARCA; MATEUS LEME-PJ-02PJ 6.123,79 1.837,14 0,00 612,38 0,00 1.490,20 3.795,53 7.281,87 21.140,91 1.086,03 1.319,90 0,00 0,00 2.405,93 18.734,98 31/01/2021
702 271100 DENISE ELOY PEIXOTO OFICIAL DO MP BELO HORIZONTE - COMARCA; DIRETORIA DE INTELIGENCIA 12.601,30 3.780,39 0,00 0,00 0,00 0,00 540,60 7.447,41 24.369,70 2.433,35 2.966,43 0,00 0,00 5.399,78 18.969,92 31/01/2021
703 385400 DENISE FREITAS DE ASSIS ASSESSOR/OFICIAL CARATINGA - COMARCA; CARATINGA-PJ-SECRETARIA 0,00 2.079,50 10.397,52 0,00 0,00 0,00 548,99 7.538,97 20.564,98 1.459,46 2.112,10 0,00 175,90 3.747,46 16.817,52 31/01/2021
704 437100 DENISE NOGUEIRA MAGRI MENDES ANALISTA DO MP BELO HORIZONTE - COMARCA; LAB TECNOLOGIA CONTRA LAVAGEM DINHEIRO 13.011,52 3.903,46 0,00 0,00 0,00 0,00 0,00 1.550,00 18.464,98 2.518,67 2.933,21 0,00 0,00 5.451,88 13.013,10 31/01/2021
705 524700 DENISE RAMOS GUIMARAES OFICIAL DO MP BELO HORIZONTE - COMARCA; BH-07PJ 01 TRIBUNAL JURI-SECRETARIA 6.123,79 612,38 0,00 0,00 0,00 0,00 0,00 1.550,00 8.286,17 890,06 738,32 0,00 0,00 1.628,38 6.657,79 31/01/2021
706 239100 DENISE RIBEIRO DOS SANTOS CAETANO OFICIAL DO MP ITANHANDU - COMARCA; ITANHANDU-PJ-SECRETARIA 12.601,30 3.780,39 0,00 0,00 0,00 0,00 540,60 7.447,41 24.369,70 2.433,35 2.914,30 0,00 0,00 5.347,65 19.022,05 31/01/2021
707 325500 DENISE ROSA TORRES OFICIAL DO MP BELO HORIZONTE - COMARCA; DIRETORIA DE PESSOAL ADMINISTRATIVO - DPAD 10.069,62 3.020,89 0,00 0,00 0,00 0,00 527,98 7.375,45 20.993,94 1.906,76 2.206,17 0,00 0,00 4.112,93 16.881,01 31/01/2021
708 437200 DENISE VIVIANE DOS SANTOS ANALISTA DO MP BELO HORIZONTE - COMARCA; ASSESS TECNICA DA CORREGEDORIA-GERAL DO MP 11.085,56 2.217,11 0,00 0,00 0,00 0,00 487,76 8.024,61 21.815,04 1.940,70 2.150,91 0,00 0,00 4.091,61 17.723,43 31/01/2021
709 267900 DENISIA DE ALMEIDA SALES OFICIAL DO MP BELO HORIZONTE - COMARCA; BH-18PJ DIREITOS HUMANOS-SECRETARIA 9.444,70 2.833,41 0,00 0,00 4.092,70 0,00 0,00 1.550,00 17.920,81 1.776,77 3.091,86 0,00 0,00 4.868,63 13.052,18 31/01/2021
710 480300 DESIREE ARANTES FERREIRA GOUVEA OFICIAL DO MP PRATÁPOLIS - COMARCA; PRATAPOLIS-PJ-UNPJ 6.123,79 1.224,76 0,00 545,02 0,00 0,00 612,38 1.550,00 10.055,95 1.086,03 1.021,24 0,00 0,00 2.107,27 7.948,68 31/01/2021
711 355300 DEYSE CRISTINA MORAIS OFICIAL DO MP PASSOS - COMARCA; PASSOS-PJ-02PJ 9.444,70 1.888,94 0,00 0,00 0,00 0,00 540,24 7.443,49 19.317,37 1.625,66 1.800,33 0,00 0,00 3.425,99 15.891,38 31/01/2021
712 523700 DIANA CAMPOS RESENDE OFICIAL DO MP SÃO JOÃO DEL REI - COMARCA; SAO JOAO DEL REI-PJ-04PJ 7.421,79 3.710,90 0,00 0,00 0,00 0,00 0,00 1.550,00 12.682,69 1.593,51 1.701,78 0,00 0,00 3.295,29 9.387,40 31/01/2021
713 241900 DIANA CARDOSO MARTINS OFICIAL DO MP BELO HORIZONTE - COMARCA; CAO-CRIMINAL 9.146,93 2.744,08 0,00 0,00 0,00 0,00 0,00 1.550,00 13.441,01 1.714,84 1.929,09 0,00 0,00 3.643,93 9.797,08 31/01/2021
714 410100 DIANA GORDILHO SILVEIRA SENA ANALISTA DO MP BELO HORIZONTE - COMARCA; BH-06PJ JUIZO CIVEL-SECRETARIA 13.011,52 2.602,30 0,00 0,00 0,00 0,00 515,26 7.170,98 23.300,06 2.310,49 2.789,06 0,00 0,00 5.099,55 18.200,51 31/01/2021
715 553000 DIANA MARIA MARQUES ANALISTA DO MP BETIM - COMARCA; BETIM-PJ-13PJ 9.146,93 914,69 0,00 0,00 0,00 0,00 516,50 7.184,51 17.762,63 1.422,14 1.454,36 0,00 0,00 2.876,50 14.886,13 31/01/2021
716 520000 DIARLE TOSTE DOS SANTOS ANALISTA DO MP RIO POMBA - COMARCA; RIO POMBA-PJ-UNPJ 10.069,62 1.006,96 0,00 0,00 0,00 0,00 527,98 7.309,82 18.914,38 1.584,53 1.083,82 0,00 0,00 2.668,35 16.246,03 31/01/2021
717 539800 DIEGO CAMARGOS RODRIGUES OFICIAL DO MP CONTAGEM - COMARCA; CONTAGEM-PJ-19PJ 5.930,75 593,08 0,00 0,00 0,00 0,00 0,00 1.550,00 8.073,83 856,09 689,27 0,00 0,00 1.545,36 6.528,47 31/01/2021
718 607300 DIEGO CERVEIRA DE SOUZA ANALISTA DO MP PATOS DE MINAS - COMARCA; COORD REG BACIAS PARACATU,URUCUIA E ABAETE 10.069,62 1.006,96 0,00 0,00 0,00 0,00 0,00 1.550,00 12.626,58 1.584,53 1.740,95 0,00 0,00 3.325,48 9.301,10 31/01/2021
719 669300 DIEGO DA CUNHA SOARES ASSESSOR ADMINISTRATIVO I BELO HORIZONTE - COMARCA; DIRET DE INFORMACAO E EXPEDICAO DE PROCESSOS 0,00 0,00 3.076,28 0,00 0,00 0,00 169,20 3.395,77 6.641,25 349,83 224,82 0,00 0,00 574,65 6.066,60 31/01/2021
720 446900 DIEGO DE FREITAS OFICIAL DO MP UBERABA - COMARCA; UBERABA-PJ-06PJ 8.170,49 1.634,10 0,00 0,00 0,00 0,00 539,25 7.432,75 17.776,59 1.381,01 1.447,12 0,00 0,00 2.828,13 14.948,46 31/01/2021
721 288800 DILENE NEPOMUCENO ALVES OFICIAL DO MP BELO HORIZONTE - COMARCA; DIRETORIA DE PESSOAL ADMINISTRATIVO - DPAD 10.069,62 3.020,89 0,00 0,00 0,00 0,00 527,98 7.309,82 20.928,31 1.906,76 2.206,17 0,00 0,00 4.112,93 16.815,38 31/01/2021
722 681200 DILLIANY PAULA LOPES SERRANO ASSESSOR PROMOTOR JUSTICA RESPLENDOR - COMARCA; RESPLENDOR-PJ-UNPJ 0,00 0,00 7.187,72 0,00 0,00 0,00 0,00 1.550,00 8.737,72 751,99 1.202,97 0,00 0,00 1.954,96 6.782,76 31/01/2021
723 270101 DILSON DO AMARAL ANALISTA DO MP RIO CASCA - COMARCA; RIO CASCA-PJ-UNPJ 9.146,93 914,69 0,00 0,00 0,00 0,00 0,00 1.550,00 11.611,62 1.422,14 1.506,50 0,00 0,00 2.928,64 8.682,98 31/01/2021
724 466000 DIMITRI GUDE MARCIAL ANALISTA DO MP NANUQUE - COMARCA; NANUQUE-PJ-02PJ 10.069,62 1.006,96 0,00 0,00 3.692,19 0,00 527,98 8.079,21 23.375,96 1.584,53 2.652,03 0,00 0,00 4.236,56 19.139,40 31/01/2021
725 516300 DINORA APARECIDA MACEDO BRANDAO ANALISTA DO MP BELO HORIZONTE - COMARCA; BH-19PJ SAUDE-SECRETARIA 150PJ 9.444,70 944,47 0,00 0,00 0,00 0,00 533,31 7.367,94 18.290,42 1.474,54 1.582,16 0,00 0,00 3.056,70 15.233,72 31/01/2021
726 511700 DIOGENES HENRIQUES PEREIRA LOURENCO ANALISTA DO MP CONTAGEM - COMARCA; CONTAGEM-PJ-25PJ 10.069,62 1.006,96 0,00 0,00 0,00 0,00 527,98 7.309,82 18.914,38 1.584,53 1.740,95 0,00 0,00 3.325,48 15.588,90 31/01/2021
727 604100 DIOGO CESAR DE OLIVEIRA HONORIO ASSESSOR PIUMHI - COMARCA; PIUMHI-PJ-02PJ 0,00 0,00 5.136,32 0,00 0,00 0,00 470,83 6.686,32 12.293,47 751,99 638,83 0,00 0,00 1.390,82 10.902,65 31/01/2021
728 387800 DIOGO FELIX DA SILVA OFICIAL DO MP CONSELHEIRO PENA - COMARCA; CONSELHEIRO PENA-PJ-01PJ 8.170,49 1.634,10 0,00 0,00 0,00 0,00 539,25 7.432,75 17.776,59 1.381,01 1.447,12 0,00 0,00 2.828,13 14.948,46 31/01/2021
729 259600 DIOGO MESQUITA MAIA ANALISTA DO MP BELO HORIZONTE - COMARCA; DIRET DE APOIO AS PROCURADORIAS DE JUSTICA 16.750,82 13.400,66 0,00 0,00 0,00 6.100,52 0,00 1.550,00 37.802,00 4.636,51 7.370,16 0,00 0,00 12.006,67 25.795,33 31/01/2021
730 386700 DIRCIMAR FERNANDES CARNEIRO OFICIAL DO MP VISCONDE DO RIO BRANCO - COMARCA; VISCONDE DO RIO BRANCO-PJ-03PJ 8.858,43 6.200,90 0,00 0,00 0,00 0,00 496,96 6.997,92 22.554,21 2.221,77 2.660,97 0,00 0,00 4.882,74 17.671,47 31/01/2021
731 113800 DIRSON APARECIDO GUIMARAES ASSESSOR BELO HORIZONTE - COMARCA; DIVISAO DE MANUTENCAO PREDIAL 0,00 4.622,69 5.136,32 0,00 0,00 0,00 0,00 1.550,00 11.309,01 751,99 1.910,07 0,00 0,00 2.662,06 8.646,95 31/01/2021
732 216700 DOMICIO VALDETE PEREIRA OFICIAL DO MP TEÓFILO OTONI - COMARCA; COORD REG PJ DEF EDU DIR CRIAN ADOL JEQUI MUC 14.790,66 5.916,26 0,00 0,00 0,00 0,00 531,48 7.347,94 28.586,34 3.125,38 3.861,29 0,00 0,00 6.986,67 21.599,67 31/01/2021
733 192701 DONIZETTI APARECIDO AMORIM ANALISTA DO MP PRATÁPOLIS - COMARCA; PRATAPOLIS-PJ-UNPJ 9.752,14 3.900,86 0,00 0,00 0,00 0,00 0,00 1.550,00 15.203,00 1.996,76 2.283,97 0,00 0,00 4.280,73 10.922,27 31/01/2021
734 558700 DORCILIA FATIMA DE OLIVEIRA OFICIAL DO MP DIVINÓPOLIS - COMARCA; DIVINOPOLIS-PJ-02PJ 5.930,75 593,08 0,00 0,00 0,00 0,00 526,26 7.290,97 14.341,06 856,09 637,13 0,00 0,00 1.493,22 12.847,84 31/01/2021
735 555300 DOUGLAS CUNHA DE SOUZA ANALISTA DO MP VARZEA DA PALMA - COMARCA; VARZEA DA PALMA-PJ-01PJ 9.146,93 914,69 0,00 0,00 0,00 0,00 0,00 1.550,00 11.611,62 1.422,14 1.506,50 0,00 0,00 2.928,64 8.682,98 31/01/2021
736 265900 DOUGLAS GOMES MOREIRA ANALISTA DO MP BELO HORIZONTE - COMARCA; CENTRAL DE APOIO TECNICO-SETOR DE ENGENHARIA 18.820,14 5.646,04 0,00 0,00 0,00 0,00 0,00 1.550,00 26.016,18 3.726,87 4.833,95 0,00 0,00 8.560,82 17.455,36 31/01/2021
737 241000 DOUGLAS MEIRELLES DE CASTRO OFICIAL DO MP CONCEIÇÃO DO RIO VERDE - COMARCA; CONCEICAO DO RIO VERDE-PJ-UNPJ 12.601,30 5.040,52 0,00 0,00 0,00 0,00 517,49 7.195,38 25.354,69 2.634,97 3.153,25 0,00 0,00 5.788,22 19.566,47 31/01/2021
738 534900 DOUGLAS SILVA E SOUZA ANALISTA DO MP CAMPOS GERAIS - COMARCA; CAMPOS GERAIS-PJ-UNPJ 9.146,93 914,69 0,00 0,00 0,00 0,00 516,50 7.184,51 17.762,63 1.422,14 1.454,36 0,00 0,00 2.876,50 14.886,13 31/01/2021
739 638900 DOUGLAS WALLAS CONCEICAO NEVES OFICIAL DO MP RIBEIRÃO DAS NEVES - COMARCA; RIBEIRAO DAS NEVES-PJ-SEC CIVEL 4.817,57 481,76 0,00 0,00 0,00 0,00 0,00 1.550,00 6.849,33 665,84 406,41 0,00 0,00 1.072,25 5.777,08 31/01/2021
740 146800 DUCINALVA AMARAL LOPES REIS OFICIAL DO MP PARAISÓPOLIS - COMARCA; PARAISOPOLIS-PJ-UNPJ 18.820,14 13.174,10 0,00 0,00 0,00 6.866,17 0,00 1.550,00 40.410,41 4.931,36 7.824,78 0,00 0,00 12.756,14 27.654,27 31/01/2021
741 122500 DUILIO CARLOS FERREIRA UTSCH OFICIAL DO MP CONCEIÇÃO DO MATO DENTRO - COMARCA; CONCEICAO DO MATO DENTRO-PJ-UNPJ 14.790,66 11.832,53 0,00 0,00 8.874,40 4.533,75 0,00 1.550,00 41.581,34 4.071,99 8.892,48 0,00 0,00 12.964,47 28.616,87 31/01/2021
742 201800 DULCINEIA ANDRE DE SOUZA OFICIAL DO MP JEQUITINHONHA - COMARCA; JEQUITINHONHA-PJ-SECRETARIA 14.790,66 5.916,26 0,00 0,00 0,00 0,00 531,48 7.347,94 28.586,34 3.125,38 3.757,01 0,00 0,00 6.882,39 21.703,95 31/01/2021
743 395800 DUVIDIER MEDIRCIO JUNIOR ANALISTA DO MP BELO HORIZONTE - COMARCA; CENTRAL DE APOIO TECNICO-SETOR DE ENGENHARIA 14.324,23 2.864,85 0,00 0,00 0,00 0,00 504,21 7.050,51 24.743,80 2.562,53 3.152,94 0,00 0,00 5.715,47 19.028,33 31/01/2021
744 604800 ECIA RAMILIS ISSA DE ABREU ANALISTA DO MP BRASÍLIA DE MINAS - COMARCA; BRASILIA DE MINAS-PJ-01PJ 9.146,93 914,69 0,00 0,00 0,00 0,00 0,00 1.550,00 11.611,62 1.422,14 1.506,50 0,00 0,00 2.928,64 8.682,98 31/01/2021
745 273000 EDELFINA APARECIDA GUIMARAES OFICIAL DO MP CACHOEIRA DE MINAS - COMARCA; CACHOEIRA DE MINAS-PJ-UNPJ 10.069,62 7.048,73 0,00 0,00 0,00 0,00 0,00 1.550,00 18.668,35 2.551,21 3.084,47 0,00 0,00 5.635,68 13.032,67 31/01/2021
746 523300 EDER DOS SANTOS PATRICIO ANALISTA DO MP NOVA SERRANA - COMARCA; NOVA SERRANA-PJ-03PJ 10.069,62 1.006,96 0,00 0,00 0,00 0,00 527,98 8.079,21 19.683,77 1.584,53 1.740,95 0,00 0,00 3.325,48 16.358,29 31/01/2021
747 356700 EDER JOSE PACHECO OFICIAL DO MP CAMPO BELO - COMARCA; CAMPO BELO-PJ-SECRETARIA 9.146,93 1.829,39 0,00 0,00 0,00 0,00 523,20 8.027,08 19.526,60 1.568,49 1.613,52 0,00 0,00 3.182,01 16.344,59 31/01/2021
748 507900 EDERSON SILVA LOPES OFICIAL DO MP BELO HORIZONTE - COMARCA; LABORATORIO TECNOLOGIA INTELIGENCIA 6.123,79 612,38 0,00 0,00 0,00 0,00 543,38 7.477,83 14.757,38 890,06 634,05 0,00 0,00 1.524,11 13.233,27 31/01/2021
749 296200 EDGARD GOULART MATOSINHO DE LAET JR ANALISTA DO MP GOVERNADOR VALADARES - COMARCA; GAECO REGIONAL DE GOVERNADOR VALADARES 16.750,82 5.025,25 0,00 0,00 0,00 0,00 0,00 1.550,00 23.326,07 3.296,45 4.108,26 0,00 0,00 7.404,71 15.921,36 31/01/2021
750 295000 EDILA MARIA DA SILVEIRA OFICIAL DO MP FORMIGA - COMARCA; FORMIGA-PJ-01PJ 8.858,43 2.657,53 0,00 0,00 0,00 0,00 0,00 1.550,00 13.065,96 1.654,83 1.842,45 0,00 0,00 3.497,28 9.568,68 31/01/2021
751 332300 EDILA MARILAC MIRANDA PRADO OFICIAL DO MP DIAMANTINA - COMARCA; DIAMANTINA-PJ-01PJ 10.069,62 5.034,81 0,00 0,00 0,00 0,00 387,68 7.318,02 22.810,13 2.228,99 2.567,11 0,00 0,00 4.796,10 18.014,03 31/01/2021
752 376600 EDILANE CONSOLACAO ROSA NAZARETH ANALISTA DO MP BETIM - COMARCA; BETIM-PJ-10PJ 14.324,23 2.864,85 0,00 0,00 0,00 0,00 0,00 1.550,00 18.739,08 2.562,53 3.152,94 0,00 0,00 5.715,47 13.023,61 31/01/2021
753 301500 EDILENE APARECIDA DE CARVALHO ANALISTA DO MP BELO HORIZONTE - COMARCA; BH-02PJ FAMILIA-SECRETARIA 16.750,82 5.025,25 0,00 0,00 0,00 0,00 0,00 1.550,00 23.326,07 3.296,45 4.160,40 0,00 0,00 7.456,85 15.869,22 31/01/2021
754 309800 EDILZA DOS REIS OFICIAL DO MP UBERLÂNDIA - COMARCA; UBERLANDIA-PJ-03PJ 10.069,62 3.020,89 0,00 0,00 0,00 0,00 527,98 7.309,82 20.928,31 1.906,76 2.206,17 0,00 0,00 4.112,93 16.815,38 31/01/2021
755 200500 EDINEIA MARIA DE OLIVEIRA ANTUNES OFICIAL DO MP MONTES CLAROS - COMARCA; MONTES CLAROS-PJ-10PJ 14.790,66 5.916,26 0,00 0,00 0,00 0,00 0,00 1.550,00 22.256,92 3.125,38 3.965,56 0,00 0,00 7.090,94 15.165,98 31/01/2021
756 427700 EDISANGELA SOARES LOPES OFICIAL DO MP PIRAPORA - COMARCA; PIRAPORA-PJ-02PJ 6.123,79 1.224,76 0,00 0,00 0,00 0,00 0,00 1.550,00 8.898,55 988,05 879,78 0,00 0,00 1.867,83 7.030,72 31/01/2021
757 555400 EDISON MONTEIRO SAMPAIO NETO ANALISTA DO MP BELO HORIZONTE - COMARCA; BH-12PJ JUIZO CRIMINAL-GAB 094PJ 9.146,93 914,69 0,00 0,00 0,00 0,00 0,00 1.550,00 11.611,62 1.422,14 1.506,50 0,00 0,00 2.928,64 8.682,98 31/01/2021
758 517700 EDMILSON TADEU FERNANDES OFICIAL DO MP POUSO ALEGRE - COMARCA; GAECO REGIONAL DE POUSO ALEGRE 6.741,63 674,16 0,00 0,00 0,00 0,00 543,82 7.482,63 15.442,24 998,80 895,31 0,00 0,00 1.894,11 13.548,13 31/01/2021
759 358400 EDNA APARECIDA SILVA FERREIRA OFICIAL DO MP CORONEL FABRICIANO - COMARCA; CORONEL FABRICIANO-PJ-02PJ 9.146,93 1.829,39 0,00 0,00 0,00 0,00 523,20 7.257,69 18.757,21 1.568,49 1.613,52 0,00 0,00 3.182,01 15.575,20 31/01/2021
760 331800 EDNA MARCIA CAMILO DA SILVA OFICIAL DO MP SETE LAGOAS - COMARCA; SETE LAGOAS-PJ-SEC CRIMINAIS 10.069,62 3.020,89 0,00 0,00 4.363,50 0,00 0,00 1.550,00 19.004,01 1.906,76 3.354,00 0,00 0,00 5.260,76 13.743,25 31/01/2021
761 327900 EDRIEL SANTANA PEREIRA OFICIAL DO MP TUPACIGUARA - COMARCA; TUPACIGUARA-PJ-UNPJ 10.069,62 3.020,89 0,00 0,00 0,00 0,00 527,98 8.079,21 21.697,70 1.906,76 2.206,17 0,00 0,00 4.112,93 17.584,77 31/01/2021
762 482400 EDSON GARCIA OFICIAL DO MP MACHADO - COMARCA; MACHADO-PJ-02PJ 5.562,64 556,26 0,00 0,00 0,00 0,00 0,00 2.319,39 8.438,29 792,88 491,02 0,00 0,00 1.283,90 7.154,39 31/01/2021
763 225601 EDSON LABRE FILHO ANALISTA DO MP VARGINHA - COMARCA; VARGINHA-PJ-01PJ 16.750,82 5.025,25 0,00 0,00 0,00 0,00 479,07 6.776,26 29.031,40 3.296,45 4.160,40 0,00 0,00 7.456,85 21.574,55 31/01/2021
764 602700 EDSON NOGUEIRA BUENO OFICIAL DO MP PITANGUI - COMARCA; PITANGUI-PJ-02PJ 5.387,19 538,72 0,00 0,00 0,00 0,00 339,45 1.550,00 7.815,36 815,58 629,33 0,00 0,00 1.444,91 6.370,45 31/01/2021
765 414400 EDUARDO ABRANTES CAMPOS ANALISTA DO MP SÃO JOÃO DEL REI - COMARCA; SAO JOAO DEL REI-PJ-02PJ 13.011,52 2.602,30 0,00 0,00 0,00 0,00 515,26 7.170,98 23.300,06 2.310,49 2.789,06 0,00 0,00 5.099,55 18.200,51 31/01/2021
766 476800 EDUARDO ALVES DE MOURA ANALISTA DO MP UBERLÂNDIA - COMARCA; UBERLANDIA-PJ-02PJ 10.069,62 2.013,92 0,00 896,19 335,65 0,00 1.538,64 8.119,49 22.973,51 1.906,76 2.142,06 0,00 0,00 4.048,82 18.924,69 31/01/2021
767 390800 EDUARDO AMORIM PETTERSEN OFICIAL DO MP CARANGOLA - COMARCA; CARANGOLA-PJ-SECRETARIA 8.579,10 1.715,82 0,00 0,00 0,00 0,00 528,47 8.084,55 18.907,94 1.459,46 1.560,39 0,00 0,00 3.019,85 15.888,09 31/01/2021
768 461600 EDUARDO ANTONIO DE ASSIS FARIA ASSESSOR BELO HORIZONTE - COMARCA; ASSESS EXECUTIVA DO CONSELHO SUPERIOR DO MP 0,00 0,00 8.170,49 0,00 0,00 0,00 539,25 8.202,14 16.911,88 751,99 1.368,95 0,00 0,00 2.120,94 14.790,94 31/01/2021
769 248800 EDUARDO DE CASTRO AMORIM ANALISTA DO MP BELO HORIZONTE - COMARCA; SUPERINTENDENCIA DE RECURSOS HUMANOS 18.820,14 5.646,04 0,00 0,00 0,00 0,00 0,00 1.550,00 26.016,18 3.726,87 4.833,95 0,00 0,00 8.560,82 17.455,36 31/01/2021
770 209100 EDUARDO DE SOUZA MAIA ANALISTA DO MP BELO HORIZONTE - COMARCA; SUPERINTENDENCIA DE RECURSOS HUMANOS 18.820,14 7.528,06 0,00 0,00 0,00 0,00 0,00 1.550,00 27.898,20 4.027,99 5.112,29 0,00 0,00 9.140,28 18.757,92 31/01/2021
771 633900 EDUARDO GONCALVES PIRES OFICIAL DO MP BELO HORIZONTE - COMARCA; BH-19PJ SAUDE-SECRETARIA 150PJ 5.743,70 1.723,11 0,00 0,00 0,00 0,00 547,57 7.523,45 15.537,83 1.006,97 907,10 0,00 0,00 1.914,07 13.623,76 31/01/2021
772 350500 EDUARDO GONCALVES RIBEIRO OFICIAL DO MP VESPASIANO - COMARCA; VESPASIANO-PJ-04PJ 8.858,43 1.771,69 0,00 0,00 0,00 0,00 0,00 1.550,00 12.180,12 1.513,10 1.637,82 0,00 0,00 3.150,92 9.029,20 31/01/2021
773 115800 EDUARDO HENRIQUE DE CAMPOS MAIA OFICIAL DO MP BELO HORIZONTE - COMARCA; DIV FISCAL ADM CONT TERCEIRIZACAO 16.750,82 8.375,41 0,00 0,00 8.375,41 0,00 460,65 6.575,25 40.537,54 3.832,47 7.133,25 0,00 0,00 10.965,72 29.571,82 31/01/2021
774 392600 EDUARDO HENRIQUE DOS SANTOS COSTA ELIAZAR OFICIAL DO MP MATOZINHOS - COMARCA; MATOZINHOS-PJ-01PJ 7.912,85 1.582,57 0,00 0,00 0,00 0,00 522,25 7.247,25 17.264,92 1.331,54 1.219,30 0,00 0,00 2.550,84 14.714,08 31/01/2021
775 407500 EDUARDO MASCARENHAS CURI AZEVEDO COORDENADOR/ANALISTA BELO HORIZONTE - COMARCA; CENTRO JORNALISMO 0,00 2.687,03 13.435,16 0,00 0,00 0,00 0,00 2.319,39 18.441,58 1.745,64 3.084,19 0,00 0,00 4.829,83 13.611,75 31/01/2021
776 601300 EDUARDO TRAD VIEIRA OFICIAL DO MP SILVIANÓPOLIS - COMARCA; SILVIANOPOLIS-PJ-UNPJ 5.387,19 538,72 0,00 0,00 0,00 0,00 0,00 1.550,00 7.475,91 762,96 550,45 0,00 0,00 1.313,41 6.162,50 31/01/2021
777 257600 EDUARDO VALADARES CABRAL ANALISTA DO MP BELO HORIZONTE - COMARCA; COORD DE INCLUSAO E MOBILIZACAO SOCIAIS 14.790,66 4.437,20 0,00 0,00 0,00 0,00 0,00 1.550,00 20.777,86 2.888,73 3.623,90 0,00 0,00 6.512,63 14.265,23 31/01/2021
778 545700 EDVAIR FERREIRA DE CARVALHO OFICIAL DO MP ARAGUARI - COMARCA; ARAGUARI-PJ-06PJ 5.387,19 538,72 0,00 0,00 0,00 0,00 543,21 7.475,91 13.945,03 762,96 498,31 0,00 0,00 1.261,27 12.683,76 31/01/2021
779 401700 EDWANIA AMORIM DO CARMO OFICIAL DO MP RIBEIRÃO DAS NEVES - COMARCA; RIBEIRAO DAS NEVES-PJ-03PJ 8.858,43 1.771,69 0,00 0,00 0,00 0,00 0,00 1.550,00 12.180,12 1.513,10 1.637,82 0,00 0,00 3.150,92 9.029,20 31/01/2021
780 303600 EFIGENIO SARAIVA LOPES ANALISTA DO MP BELO HORIZONTE - COMARCA; DIRETORIA DE PAGAMENTO DE PESSOAL-DPAG 18.820,14 5.646,04 0,00 0,00 0,00 0,00 538,26 7.421,88 32.426,32 3.726,87 4.729,68 0,00 0,00 8.456,55 23.969,77 31/01/2021
781 286000 ELAINE APARECIDA SILVA BERZOINI OFICIAL DO MP JUIZ DE FORA - COMARCA; JUIZ DE FORA-PJ-14PJ 10.069,62 3.020,89 0,00 0,00 4.363,50 0,00 527,98 7.309,82 25.291,81 1.906,76 3.406,13 0,00 0,00 5.312,89 19.978,92 31/01/2021
782 509000 ELAINE CANDIDA PONTES OFICIAL DO MP BELO HORIZONTE - COMARCA; BH-02PJ FAMILIA-SECRETARIA 7.421,79 742,18 0,00 0,00 0,00 0,00 0,00 1.550,00 9.713,97 1.118,51 1.068,14 0,00 0,00 2.186,65 7.527,32 31/01/2021
783 283601 ELAINE CRISTINA MEQUELINO DUARTE ANALISTA DO MP ALFENAS - COMARCA; ALFENAS-PJ-02PJ 14.324,23 2.864,85 0,00 0,00 0,00 0,00 504,21 7.050,51 24.743,80 2.562,53 3.048,67 0,00 0,00 5.611,20 19.132,60 31/01/2021
784 535500 ELAINE DE OLIVEIRA CAMPOS REIS OFICIAL DO MP RIBEIRÃO DAS NEVES - COMARCA; SEC PJ EXECUCAO PENAL RIBEIRAO NEVES 5.930,75 593,08 0,00 0,00 0,00 0,00 526,26 7.290,97 14.341,06 856,09 689,27 0,00 0,00 1.545,36 12.795,70 31/01/2021
785 455700 ELAINE DE OLIVEIRA CASTRO ANALISTA DO MP POMPÉU - COMARCA; POMPEU-PJ-UNPJ 10.069,62 2.013,92 0,00 896,19 0,00 0,00 4.480,97 1.550,00 19.010,70 1.745,64 1.921,43 0,00 0,00 3.667,07 15.343,63 31/01/2021
786 367200 ELAINE MUNIZ BARBOSA ANALISTA DO MP BELO HORIZONTE - COMARCA; DIRETORIA DE SISTEMAS DE INFORMACAO 14.790,66 2.958,13 0,00 0,00 0,00 0,00 0,00 2.319,39 20.068,18 2.652,08 3.230,10 0,00 0,00 5.882,18 14.186,00 31/01/2021
787 679200 ELAINE RIBEIRO CHAVES ASSESSOR PROCURADOR JUSTICA BELO HORIZONTE - COMARCA; GABINETE DE PROCURADOR DE JUSTIÇA - SALA 614 0,00 0,00 7.187,72 0,00 0,00 0,00 0,00 1.550,00 8.737,72 751,99 1.202,97 0,00 0,00 1.954,96 6.782,76 31/01/2021
788 176900 ELAINE RIBEIRO TAVEIRA OFICIAL DO MP BELO HORIZONTE - COMARCA; DIRETORIA DE PESSOAL ADMINISTRATIVO - DPAD 13.011,52 5.204,61 0,00 0,00 0,00 0,00 534,34 7.379,16 26.129,63 2.726,86 3.390,19 0,00 0,00 6.117,05 20.012,58 31/01/2021
789 496200 ELAINE SABRINA MOREIRA SCHUWARTEN ANALISTA DO MP CORONEL FABRICIANO - COMARCA; CORONEL FABRICIANO-PJ-04PJ 10.069,62 1.006,96 0,00 0,00 0,00 0,00 527,98 7.309,82 18.914,38 1.584,53 1.740,95 0,00 0,00 3.325,48 15.588,90 31/01/2021
790 489200 ELAINE VICENTINO GARCIA ANALISTA DO MP BELO HORIZONTE - COMARCA; CENTRAL DE APOIO TECNICO-SETOR CONTABIL 10.069,62 3.020,89 0,00 0,00 0,00 0,00 527,98 7.309,82 20.928,31 1.906,76 2.101,90 0,00 0,00 4.008,66 16.919,65 31/01/2021
791 244500 ELCI ALVES DE SOUZA ASSESSOR BELO HORIZONTE - COMARCA; CAO-CONFLITOS AGRARIOS-SECRETARIA 0,00 1.540,90 5.136,32 0,00 2.225,74 0,00 538,63 7.425,95 16.867,54 665,89 1.646,20 0,00 0,00 2.312,09 14.555,45 31/01/2021
792 472500 ELCI VAZ DE OLIVEIRA FILHO ANALISTA DO MP PIUMHI - COMARCA; PIUMHI-PJ-02PJ 10.069,62 5.034,81 0,00 0,00 0,00 0,00 0,00 1.550,00 16.654,43 2.228,99 2.671,39 0,00 0,00 4.900,38 11.754,05 31/01/2021
793 385200 ELCI VIANA REIS OFICIAL DO MP RIO PARDO DE MINAS - COMARCA; RIO PARDO DE MINAS-PJ-SECRETARIA 8.858,43 3.543,37 0,00 0,00 0,00 0,00 545,68 7.502,86 20.450,34 1.796,57 2.047,08 0,00 0,00 3.843,65 16.606,69 31/01/2021
794 289801 ELCIO JOSE DOS SANTOS ASSESSOR/ANALISTA BELO HORIZONTE - COMARCA; DIVISAO DE SERVICOS 0,00 2.520,26 12.601,30 0,00 0,00 0,00 0,00 1.550,00 16.671,56 1.745,64 2.809,02 0,00 0,00 4.554,66 12.116,90 31/01/2021
795 319600 ELEN TULER DE ALBERGARIA ANALISTA DO MP BELO HORIZONTE - COMARCA; BH-19PJ SAUDE-SECRETARIA 130PJ 13.872,60 5.549,04 0,00 0,00 0,00 0,00 0,00 1.550,00 20.971,64 2.919,74 3.668,66 0,00 0,00 6.588,40 14.383,24 31/01/2021
796 151000 ELI LOURENCO RIBEIRO AGENTE DO MP BELO HORIZONTE - COMARCA; BH-19PJ SAUDE-SECRETARIA 130PJ 11.085,56 5.542,78 0,00 0,00 0,00 0,00 548,74 7.536,20 24.713,28 2.472,81 2.282,84 0,00 0,00 4.755,65 19.957,63 31/01/2021
797 205500 ELIANA ALVES DE SOUSA OFICIAL DO MP GOVERNADOR VALADARES - COMARCA; GOVERNADOR VALADARES-PJ-07PJ 10.069,62 4.027,85 0,00 0,00 0,00 0,00 0,00 1.550,00 15.647,47 2.067,87 2.438,78 0,00 0,00 4.506,65 11.140,82 31/01/2021
798 628800 ELIANA APARECIDA PEREIRA ANALISTA DO MP CAMBUÍ - COMARCA; CAMBUI-PJ-02PJ 7.663,37 766,34 0,00 0,00 0,00 0,00 0,00 1.550,00 9.979,71 1.161,03 1.077,39 0,00 0,00 2.238,42 7.741,29 31/01/2021
799 301700 ELIANA DA SILVEIRA ANALISTA DO MP BELO HORIZONTE - COMARCA; BH-13ª PJ JUÍZO DE TÓXICOS-SECRETARIA 15.272,02 4.581,61 0,00 0,00 0,00 0,00 0,00 1.550,00 21.403,63 2.988,86 3.768,45 0,00 0,00 6.757,31 14.646,32 31/01/2021
800 251500 ELIANA DE LIMA MILAGRES FONSECA ANALISTA DO MP CONTAGEM - COMARCA; CONTAGEM-PJ-16PJ 15.272,02 4.581,61 0,00 0,00 0,00 0,00 509,58 7.109,02 27.472,23 2.988,86 3.664,18 0,00 0,00 6.653,04 20.819,19 31/01/2021
801 503900 ELIANA DIAS DUTRA FERREIRA OFICIAL DO MP GOVERNADOR VALADARES - COMARCA; GOVERNADOR VALADARES-PJ-10PJ 7.663,37 766,34 0,00 0,00 0,00 0,00 0,00 0,00 8.429,71 1.161,03 1.025,25 0,00 0,00 2.186,28 6.243,43 31/01/2021
802 413900 ELIANA PINTO DE OLIVEIRA NEVES ANALISTA DO MP CAMPO BELO - COMARCA; CAMPO BELO-PJ-04PJ 12.601,30 2.520,26 0,00 0,00 0,00 0,00 499,01 7.763,15 23.383,72 2.231,73 2.675,34 0,00 0,00 4.907,07 18.476,65 31/01/2021
803 228200 ELIANA RODRIGUES DA CUNHA PINHEIRO OFICIAL DO MP BELO HORIZONTE - COMARCA; DIRETORIA DE PROJETOS DE EDIFICACOES 12.601,30 3.780,39 0,00 0,00 5.460,56 2.717,40 540,60 7.447,41 32.547,66 2.433,35 5.137,26 0,00 0,00 7.570,61 24.977,05 31/01/2021
804 386600 ELIANA SABINO CHAVES PESSOA ANALISTA DO MP CARATINGA - COMARCA; CARATINGA-PJ-06PJ 13.011,52 9.108,06 0,00 0,00 7.373,19 0,00 486,63 6.858,70 36.838,10 3.351,41 6.267,38 0,00 0,00 9.618,79 27.219,31 31/01/2021
805 677500 ELIANA SILVA ANDRADE ASSESSOR PROMOTOR JUSTICA TRÊS CORACOES - COMARCA; TRES CORACOES-PJ-06PJ 0,00 0,00 7.187,72 0,00 0,00 0,00 0,00 1.550,00 8.737,72 751,99 1.202,97 0,00 0,00 1.954,96 6.782,76 31/01/2021
806 297400 ELIANE AUGUSTA RIBEIRO COSTA ANALISTA DO MP CONSELHEIRO LAFAIETE - COMARCA; CONSELHEIRO LAFAIETE-PJ-05PJ 17.413,92 5.224,18 0,00 0,00 7.546,03 0,00 498,04 6.983,14 37.665,31 3.434,37 6.382,55 0,00 0,00 9.816,92 27.848,39 31/01/2021
807 510600 ELIANE CAROLINA MAIA ANALISTA DO MP IGARAPÉ - COMARCA; IGARAPE-PJ-03PJ 10.069,62 1.006,96 0,00 0,00 0,00 0,00 527,98 7.309,82 18.914,38 1.584,53 1.584,54 0,00 0,00 3.169,07 15.745,31 31/01/2021
808 269300 ELIANE EDLAMAR ROCHA OFICIAL DO MP PEDRO LEOPOLDO - COMARCA; PEDRO LEOPOLDO-PJ-02PJ 9.752,14 2.925,64 0,00 0,00 0,00 0,00 511,34 7.128,22 20.317,34 1.840,72 2.058,69 0,00 0,00 3.899,41 16.417,93 31/01/2021
809 262600 ELIANE FERREIRA SOARES ASSESSOR BELO HORIZONTE - COMARCA; BH-18PJ DIREITOS HUMANOS-SECRETARIA 0,00 2.054,53 5.136,32 0,00 0,00 0,00 0,00 1.550,00 8.740,85 751,99 1.151,69 0,00 0,00 1.903,68 6.837,17 31/01/2021
810 204400 ELIANE GLAUCE DE QUEIROS MAIA OFICIAL DO MP GUANHÃES - COMARCA; GUANHAES-PJ-02PJ 14.790,66 5.916,26 0,00 0,00 6.902,31 0,00 0,00 1.550,00 29.159,23 3.125,38 5.863,70 0,00 0,00 8.989,08 20.170,15 31/01/2021
811 91800 ELIANE KAPLER ALVES OFICIAL DO MP BELO HORIZONTE - COMARCA; DIVISAO DE CONTROLE IMOBILIARIO 18.820,14 9.410,07 0,00 0,00 0,00 0,00 517,55 7.196,04 35.943,80 4.329,11 5.599,17 0,00 0,00 9.928,28 26.015,52 31/01/2021
812 334200 ELIANE MARCIA DE OLIVEIRA BRITO OFICIAL DO MP BELO HORIZONTE - COMARCA; BH-08PJ JUIZADO ESPECIAL-SECRETARIA 6.123,79 1.837,14 0,00 0,00 0,00 0,00 0,00 1.550,00 9.510,93 1.086,03 1.021,24 0,00 0,00 2.107,27 7.403,66 31/01/2021
813 365900 ELIANE MARIA DE OLIVEIRA FERREIRA OFICIAL DO MP SETE LAGOAS - COMARCA; SETE LAGOAS-PJ-SEC CRIMINAIS 10.069,62 5.034,81 0,00 0,00 0,00 0,00 0,00 1.550,00 16.654,43 2.228,99 2.671,39 0,00 0,00 4.900,38 11.754,05 31/01/2021
814 320600 ELIANE STADLER DE SOUZA OFICIAL DO MP FRANCISCO SÁ - COMARCA; FRANCISCO SA-PJ-SECRETARIA 9.146,93 1.829,39 0,00 0,00 0,00 0,00 0,00 1.550,00 12.526,32 1.568,49 1.665,66 0,00 0,00 3.234,15 9.292,17 31/01/2021
815 448900 ELIAS PEREIRA OTONI ASSESSOR BELO HORIZONTE - COMARCA; BH-18PJ DIREITOS HUMANOS-SECRETARIA 0,00 0,00 5.136,32 0,00 0,00 0,00 188,33 3.604,53 8.929,18 751,99 534,56 0,00 0,00 1.286,55 7.642,63 31/01/2021
816 495400 ELICA SOUZA GASPARONI MATTOS OFICIAL DO MP UBÁ - COMARCA; UBA-PJ-06PJ 7.663,37 766,34 0,00 0,00 2.809,90 0,00 525,45 7.282,20 19.047,26 1.161,03 1.902,25 0,00 0,00 3.063,28 15.983,98 31/01/2021
817 86600 ELIENE FERREIRA DA SILVA OFICIAL DO MP BELO HORIZONTE - COMARCA; BH-22PJ PES COM DEF E IDOSOS-SECRETARIA 21.145,12 14.801,58 0,00 0,00 11.820,74 5.486,23 0,00 1.550,00 54.803,67 5.486,23 11.977,04 484,48 0,00 17.947,75 36.855,92 31/01/2021
818 183800 ELIENE MARIA CUNHA OFICIAL DO MP BELO HORIZONTE - COMARCA; DIRETORIA DE PESSOAL ADMINISTRATIVO - DPAD 15.272,02 6.108,81 0,00 0,00 0,00 0,00 548,77 7.536,63 29.466,23 3.233,21 4.069,10 0,00 0,00 7.302,31 22.163,92 31/01/2021
819 172300 ELINA APARECIDA SILVA ASSESSOR BELO HORIZONTE - COMARCA; BH-19PJ SAUDE-SECRETARIA 130PJ 0,00 1.230,51 3.076,28 0,00 0,00 0,00 0,00 1.550,00 5.856,79 751,99 325,89 0,00 0,00 1.077,88 4.778,91 31/01/2021
820 492501 ELINE CAMPOS DA FONSECA CUNHA ANALISTA DO MP PONTE NOVA - COMARCA; PONTE NOVA-PJ-02PJ 9.146,93 914,69 0,00 0,00 0,00 0,00 516,50 7.184,51 17.762,63 1.422,14 1.506,50 0,00 0,00 2.928,64 14.833,99 31/01/2021
821 618900 ELISA MOURA VIEIRA MARCATTI OFICIAL DO MP BELO HORIZONTE - COMARCA; BH-23PJ CIVEL-SEC EXP CIVEIS 5.387,19 538,72 0,00 0,00 0,00 0,00 0,00 2.319,39 8.245,30 762,96 550,45 0,00 0,00 1.313,41 6.931,89 31/01/2021
822 256500 ELISABETE NOGUEIRA ANALISTA DO MP RIBEIRÃO DAS NEVES - COMARCA; SEC PJ EXECUCAO PENAL RIBEIRAO NEVES 14.790,66 7.395,33 0,00 0,00 0,00 0,00 0,00 1.550,00 23.735,99 3.362,04 4.150,81 0,00 0,00 7.512,85 16.223,14 31/01/2021
823 355000 ELISANGELA DARLANTONI RIBEIRO OFICIAL DO MP ARAXÁ - COMARCA; ARAXA-PJ-05PJ 8.579,10 1.715,82 0,00 0,00 0,00 0,00 528,47 7.315,16 18.138,55 1.459,46 1.508,25 0,00 0,00 2.967,71 15.170,84 31/01/2021
824 604400 ELISANGELA DEMASI FERREIRA MOREIRA ANALISTA DO MP CABO VERDE - COMARCA; CABO VERDE-PJ-UNPJ 9.146,93 914,69 0,00 0,00 0,00 0,00 0,00 1.550,00 11.611,62 1.422,14 1.506,50 0,00 0,00 2.928,64 8.682,98 31/01/2021
825 323800 ELISANGELA GONCALVES DE JESUS OFICIAL DO MP BELO HORIZONTE - COMARCA; BH-09PJ AUDITORIA MILITAR-SECRETARIA 9.444,70 2.833,41 0,00 0,00 0,00 0,00 540,24 7.443,49 20.261,84 1.776,77 1.966,37 0,00 0,00 3.743,14 16.518,70 31/01/2021
826 507400 ELISANGELA MIGUEL DA ROCHA SILVA ASSESSOR BELO HORIZONTE - COMARCA; CGMP-DIVIS DE APOIO FISC ORIENTACAO FUNCIONAL 0,00 0,00 3.076,28 0,00 0,00 0,00 230,72 5.395,67 8.702,67 435,97 177,81 0,00 0,00 613,78 8.088,89 31/01/2021
827 261400 ELISANGELA REZENDE MENDES OFICIAL DO MP POUSO ALEGRE - COMARCA; POUSO ALEGRE-PJ-05PJ 10.069,62 3.020,89 0,00 0,00 4.363,50 0,00 0,00 1.550,00 19.004,01 1.906,76 3.406,13 0,00 0,00 5.312,89 13.691,12 31/01/2021
828 534100 ELISANGELA ROSINE SILVA OFICIAL DO MP UBERABA - COMARCA; UBERABA-PJ-06PJ 5.387,19 538,72 0,00 0,00 0,00 0,00 543,21 7.475,91 13.945,03 762,96 550,45 0,00 0,00 1.313,41 12.631,62 31/01/2021
829 634300 ELIUDE GRACA DAMASIO ROSARIO FRANCELINO OFICIAL DO MP BELO HORIZONTE - COMARCA; BH-18PJ VIOLENCIA DOMESTICA-SECRETARIA 4.817,57 481,76 0,00 0,00 1.766,44 0,00 0,00 2.319,39 9.385,16 668,35 889,93 0,00 0,00 1.558,28 7.826,88 31/01/2021
830 461700 ELIZABETH ALEIXO DA PAZ ANALISTA DO MP JUIZ DE FORA - COMARCA; JUIZ DE FORA-PJ-18PJ 10.069,62 2.013,92 0,00 896,19 0,00 0,00 2.324,07 7.350,10 22.653,90 1.745,64 1.973,56 0,00 0,00 3.719,20 18.934,70 31/01/2021
831 227300 ELIZABETH COIMBRA FELIX ASSESSOR/OFICIAL BELO HORIZONTE - COMARCA; DIRETORIA DE PAGAMENTO DE PESSOAL-DPAG 13.011,52 5.204,61 2.520,26 0,00 0,00 0,00 532,23 7.356,19 28.624,81 2.726,86 3.978,99 0,00 0,00 6.705,85 21.918,96 31/01/2021
832 354800 ELIZABETH DOS REIS OFICIAL DO MP BELO HORIZONTE - COMARCA; DIVISAO DE MATERIAIS 10.069,62 2.013,92 0,00 0,00 0,00 0,00 0,00 1.550,00 13.633,54 1.745,64 1.921,43 0,00 0,00 3.667,07 9.966,47 31/01/2021
833 612000 ELIZABETH MARIA DE QUEIROZ TANIGUCHI OFICIAL DO MP BELO HORIZONTE - COMARCA; SUPERINTENDENCIA DE RECURSOS HUMANOS 4.974,42 497,44 0,00 0,00 0,00 0,00 0,00 1.550,00 7.021,86 694,23 444,49 0,00 0,00 1.138,72 5.883,14 31/01/2021
834 452800 ELIZANGELA MARIA DAVI OFICIAL DO MP ARCOS - COMARCA; ARCOS-PJ-01PJ 6.123,79 1.224,76 0,00 0,00 0,00 0,00 0,00 1.550,00 8.898,55 988,05 827,64 0,00 0,00 1.815,69 7.082,86 31/01/2021
835 496300 ELIZANGELA MARQUES PINTO COELHO OFICIAL DO MP BELO HORIZONTE - COMARCA; DIRETORIA DE PESSOAL ADMINISTRATIVO - DPAD 7.663,37 766,34 0,00 0,00 0,00 0,00 525,45 7.282,20 16.237,36 1.161,03 1.129,53 0,00 0,00 2.290,56 13.946,80 31/01/2021
836 422500 ELIZETE FORTES DA CUNHA ANALISTA DO MP RIBEIRÃO DAS NEVES - COMARCA; RIBEIRAO DAS NEVES-PJ-07PJ 13.011,52 2.602,30 0,00 0,00 0,00 0,00 515,26 7.170,98 23.300,06 2.310,49 2.736,92 0,00 0,00 5.047,41 18.252,65 31/01/2021
837 506100 ELLEM CRISTINA ROCHA FONSECA BOWEN ANALISTA DO MP GOVERNADOR VALADARES - COMARCA; COORD REG PJ DEF EDU DIR CRIANCA ADOL RIODOCE 10.069,62 1.006,96 0,00 0,00 0,00 0,00 0,00 1.550,00 12.626,58 1.584,53 1.740,95 0,00 0,00 3.325,48 9.301,10 31/01/2021
838 468200 ELLEN CRISTINA BERNARDES DARE ANALISTA DO MP TRÊS PONTAS - COMARCA; TRES PONTAS-PJ-02PJ 10.069,62 2.013,92 0,00 896,19 335,65 0,00 2.324,07 7.350,10 22.989,55 1.745,64 1.921,43 0,00 0,00 3.667,07 19.322,48 31/01/2021
839 418800 ELLEN CRISTINA DE QUEIROZ FERREIRA ANALISTA DO MP BELO HORIZONTE - COMARCA; CENTRAL DE APOIO TECNICO-SETOR CONTABIL 12.601,30 2.520,26 0,00 0,00 0,00 0,00 499,01 8.147,30 23.767,87 2.231,73 2.675,34 0,00 0,00 4.907,07 18.860,80 31/01/2021
840 328401 ELLEN CRISTINA FERREIRA MORAIS MONTEIRO ANALISTA DO MP CAMANDUCAIA - COMARCA; CAMANDUCAIA-PJ-UNPJ 12.601,30 2.520,26 0,00 0,00 0,00 0,00 0,00 1.550,00 16.671,56 2.231,73 2.571,07 0,00 0,00 4.802,80 11.868,76 31/01/2021
841 556100 ELLEN CRISTINE BIANCHIN DA SILVA OFICIAL DO MP SÃO GONÇALO DO SAPUCAÍ - COMARCA; SAO GONCALO DO SAPUCAI-PJ-02PJ 5.387,19 538,72 0,00 0,00 0,00 0,00 0,00 1.550,00 7.475,91 762,96 498,31 0,00 0,00 1.261,27 6.214,64 31/01/2021
842 447100 ELLEN ROSANA DE MACEDO BORGES OFICIAL DO MP UBERLÂNDIA - COMARCA; UBERLANDIA-PJ-17PJ 7.912,85 1.582,57 0,00 0,00 0,00 0,00 522,25 7.247,25 17.264,92 1.331,54 1.375,71 0,00 0,00 2.707,25 14.557,67 31/01/2021
843 477700 ELMA JACOB OFICIAL DO MP BELO HORIZONTE - COMARCA; COORD DE GABINETE DO PGJ 7.663,37 5.364,36 0,00 0,00 0,00 2.122,59 525,45 7.282,20 22.957,97 1.896,71 2.713,27 0,00 0,00 4.609,98 18.347,99 31/01/2021
844 123300 ELMA PAULA DOS SANTOS COELHO OFICIAL DO MP BELO HORIZONTE - COMARCA; BH-19PJ SAUDE-SECRETARIA 130PJ 18.820,14 16.938,13 0,00 0,00 0,00 7.485,84 0,00 1.550,00 44.794,11 5.486,23 8.882,75 296,05 0,00 14.665,03 30.129,08 31/01/2021
845 356500 ELOISA CARDOSO SILVA FRANCA OFICIAL DO MP PEÇANHA - COMARCA; PECANHA-PJ-SECRETARIA 6.123,79 1.224,76 0,00 0,00 2.449,52 0,00 0,00 1.550,00 11.348,07 988,05 1.449,12 0,00 0,00 2.437,17 8.910,90 31/01/2021
846 251901 ELOISA COSTA E SILVA ANALISTA DO MP SANTOS DUMONT - COMARCA; SANTOS DUMONT-PJ-02PJ 10.069,62 3.020,89 0,00 0,00 0,00 0,00 0,00 2.319,39 15.409,90 1.906,76 2.154,03 0,00 0,00 4.060,79 11.349,11 31/01/2021
847 400400 ELOIZA MARIA FERRI PIRES DA SILVA OFICIAL DO MP BELO HORIZONTE - COMARCA; ASSESSORIA TECNICA DO PROCON-MG 7.912,85 1.582,57 0,00 0,00 0,00 0,00 0,00 1.550,00 11.045,42 1.331,54 1.323,57 0,00 0,00 2.655,11 8.390,31 31/01/2021
848 258000 ELSO CECIANO PALMEIRA COORDENADOR/OFICIAL BELO HORIZONTE - COMARCA; DIRET DE PESSOAL DO MINISTERIO PUBLICO - DPMP 12.204,02 8.542,81 2.836,60 0,00 0,00 0,00 518,84 7.210,02 31.312,29 3.131,77 4.709,30 0,00 0,00 7.841,07 23.471,22 31/01/2021
849 206900 ELVIRA RITA DOS SANTOS ANALISTA DO MP BELO HORIZONTE - COMARCA; CENTRAL DE APOIO TECNICO-SETOR CONTABIL 18.820,14 7.528,06 0,00 0,00 0,00 4.027,99 483,05 6.819,64 37.678,88 4.027,99 6.376,40 0,00 0,00 10.404,39 27.274,49 31/01/2021
850 506800 ELVIS FERREIRA DA SILVA ANALISTA DO MP BELO HORIZONTE - COMARCA; DIRETORIA DE SISTEMAS DE INFORMACAO 10.069,62 1.006,96 0,00 0,00 0,00 0,00 527,98 8.079,21 19.683,77 1.584,53 1.584,54 0,00 0,00 3.169,07 16.514,70 31/01/2021
851 602400 ELZA MARIA MOREIRA MUNIZ ANALISTA DO MP RIO PARANAÍBA - COMARCA; RIO PARANAIBA-PJ-UNPJ 9.146,93 914,69 0,00 0,00 0,00 0,00 516,50 7.184,51 17.762,63 1.422,14 1.454,36 0,00 0,00 2.876,50 14.886,13 31/01/2021
852 368401 ELZIRA SIMOES DOS SANTOS ASSESSOR BELO HORIZONTE - COMARCA; ASSESSORIA DE COMUNICACAO INTEGRADA 0,00 3.433,94 11.446,46 0,00 0,00 0,00 545,61 7.502,16 22.928,17 751,99 3.318,45 0,00 0,00 4.070,44 18.857,73 31/01/2021
853 437400 EMANOELLE DA SILVA RODRIGUES OFICIAL DO MP UNAÍ - COMARCA; UNAI-PJ-03PJ 7.187,72 1.437,54 0,00 639,71 239,59 0,00 4.131,49 8.953,96 22.590,01 1.192,32 1.122,56 0,00 0,00 2.314,88 20.275,13 31/01/2021
854 458900 EMANUELLE CONRAD SILVA FREDERICO NAVES ANALISTA DO MP ALFENAS - COMARCA; ALFENAS-PJ-05PJ 12.601,30 2.520,26 0,00 1.121,52 0,00 0,00 3.780,39 2.319,39 22.342,86 2.231,73 2.623,21 0,00 0,00 4.854,94 17.487,92 31/01/2021
855 284100 EMERSON MAGNO ALMEIDA PEDROSA DA FONSECA ANALISTA DO MP BELO HORIZONTE - COMARCA; CENTRAL DE APOIO TECNICO-SETOR CONTABIL 17.413,92 5.224,18 0,00 0,00 7.546,03 0,00 0,00 1.550,00 31.734,13 3.434,37 4.950,01 0,00 0,00 8.384,38 23.349,75 31/01/2021
856 179900 EMERSON MORAIS DIAS OFICIAL DO MP BELO HORIZONTE - COMARCA; SUPERINTENDÊNCIA DE ENGENHARIA E ARQUITETURA 15.272,02 6.108,81 0,00 0,00 7.126,94 0,00 0,00 1.550,00 30.057,77 3.233,21 6.081,14 0,00 0,00 9.314,35 20.743,42 31/01/2021
857 488700 EMERSON SIQUEIRA DE SOUSA TEIXEIRA ANALISTA DO MP TARUMIRIM - COMARCA; TARUMIRIM-PJ-UNPJ 10.069,62 1.006,96 0,00 0,00 0,00 0,00 0,00 1.550,00 12.626,58 1.584,53 1.584,54 0,00 0,00 3.169,07 9.457,51 31/01/2021
858 194200 EMILIA ALVES FERREIRA RAMOS OFICIAL DO MP UBERLÂNDIA - COMARCA; UBERLANDIA-PJ-SEC FAMILIA 9.444,70 3.777,88 0,00 0,00 0,00 0,00 0,00 1.550,00 14.772,58 1.927,89 2.236,68 0,00 0,00 4.164,57 10.608,01 31/01/2021
859 679500 EMILY DIAS LEMOS E SILVA ASSESSOR PROCURADOR JUSTICA BELO HORIZONTE - COMARCA; GABINETE DE PROCURADOR DE JUSTIÇA - SALA 706 0,00 0,00 7.187,72 0,00 0,00 0,00 0,00 2.319,39 9.507,11 751,99 1.098,69 0,00 0,00 1.850,68 7.656,43 31/01/2021
860 620700 EMILY FONTANA DE SIQUEIRA ANALISTA DO MP BELO HORIZONTE - COMARCA; BH-18PJ VIOLENCIA DOMESTICA-SECRETARIA 8.436,53 843,65 0,00 0,00 0,00 0,00 0,00 2.319,39 11.599,57 1.297,11 1.273,85 0,00 0,00 2.570,96 9.028,61 31/01/2021
861 297000 ENEIDA SOARES COSTA MELO ANALISTA DO MP PIUMHI - COMARCA; PIUMHI-PJ-01PJ 17.413,92 5.224,18 0,00 0,00 0,00 0,00 498,04 6.983,14 30.119,28 3.434,37 4.411,67 0,00 0,00 7.846,04 22.273,24 31/01/2021
862 276000 ENEZIO RODRIGUES DE SOUZA FILHO OFICIAL DO MP UBERLÂNDIA - COMARCA; UBERLANDIA-PJ-10PJ 10.069,62 3.020,89 0,00 0,00 0,00 0,00 0,00 1.550,00 14.640,51 1.906,76 2.206,17 0,00 0,00 4.112,93 10.527,58 31/01/2021
863 387700 ENI MARIA DOS REIS OFICIAL DO MP POUSO ALEGRE - COMARCA; POUSO ALEGRE-PJ-07PJ 8.858,43 1.771,69 0,00 0,00 0,00 0,00 0,00 1.550,00 12.180,12 1.513,10 1.637,82 0,00 0,00 3.150,92 9.029,20 31/01/2021
864 605100 ENIA MAIA ASSESSOR/OFICIAL BELO HORIZONTE - COMARCA; DIRETORIA DE ORCAMENTO-DIOR/SPC 0,00 1.039,75 10.397,52 0,00 0,00 0,00 545,18 7.497,38 19.479,83 856,09 1.950,03 0,00 328,85 3.134,97 16.344,86 31/01/2021
865 612200 ENILDO GOMES MEIRA FILHO ANALISTA DO MP MATOZINHOS - COMARCA; MATOZINHOS-PJ-02PJ 8.436,53 843,65 0,00 0,00 0,00 0,00 374,30 6.402,67 16.057,15 1.297,11 1.169,57 0,00 0,00 2.466,68 13.590,47 31/01/2021
866 553700 ENIVALDO NOVATO PUBLIO ANALISTA DO MP DIVINÓPOLIS - COMARCA; DIVINOPOLIS-PJ-09PJ 9.146,93 914,69 0,00 0,00 0,00 0,00 516,50 7.184,51 17.762,63 1.422,14 1.454,36 0,00 0,00 2.876,50 14.886,13 31/01/2021
867 680600 ENZO JOSE FERES SOUZA JABER ASSESSOR PROMOTOR JUSTICA NOVO CRUZEIRO - COMARCA; NOVO CRUZEIRO-PJ-SECRETARIA 0,00 0,00 7.187,72 0,00 0,00 0,00 0,00 1.550,00 8.737,72 751,99 1.202,97 0,00 0,00 1.954,96 6.782,76 31/01/2021
868 417300 ERIC BARATTI DA SILVA ANALISTA DO MP FRUTAL - COMARCA; FRUTAL-PJ-05PJ 10.069,62 2.013,92 0,00 0,00 0,00 0,00 0,00 1.550,00 13.633,54 1.745,64 1.973,56 0,00 0,00 3.719,20 9.914,34 31/01/2021
869 637600 ERIC DA ROCHA CHEHUEN ANALISTA DO MP LIMA DUARTE - COMARCA; LIMA DUARTE-PJ-UNPJ 8.170,49 817,05 0,00 0,00 0,00 0,00 0,00 1.550,00 10.537,54 841,65 1.370,76 0,00 0,00 2.212,41 8.325,13 31/01/2021
870 398900 ERIC TEIXEIRA SILVA OFICIAL DO MP UBERLÂNDIA - COMARCA; UBERLANDIA-PJ-SEC CIVEIS CRIMINAIS 8.579,10 1.715,82 0,00 0,00 0,00 0,00 452,98 6.491,56 17.239,46 1.459,46 1.560,39 0,00 0,00 3.019,85 14.219,61 31/01/2021
871 274200 ERICA DE SOUZA ANDRADE OFICIAL DO MP CURVELO - COMARCA; CURVELO-PJ-03PJ 10.069,62 3.020,89 0,00 0,00 0,00 0,00 527,98 7.309,82 20.928,31 1.906,76 2.154,03 0,00 0,00 4.060,79 16.867,52 31/01/2021
872 225700 ERICA GOMES DO COUTO OFICIAL DO MP BELO HORIZONTE - COMARCA; BH-21PJ TUTELA FUNDACOES-SECRETARIA 14.324,23 4.297,27 0,00 0,00 0,00 0,00 0,00 2.319,39 20.940,89 2.791,72 3.483,83 0,00 0,00 6.275,55 14.665,34 31/01/2021
873 632600 ERICA LEONOR MARTINS OFICIAL DO MP RESENDE COSTA - COMARCA; RESENDE COSTA-PJ-UNPJ 5.217,34 521,73 0,00 0,00 0,00 0,00 526,08 7.289,07 13.554,22 734,31 506,95 0,00 0,00 1.241,26 12.312,96 31/01/2021
874 524800 ERICA MACHADO DA COSTA E SOUZA ANALISTA DO MP BELO HORIZONTE - COMARCA; PROC JUST RECURSOS ESP E EXTRAORD CRIMINAIS 10.069,62 1.006,96 0,00 0,00 0,00 0,00 527,98 7.309,82 18.914,38 1.584,53 1.740,95 0,00 0,00 3.325,48 15.588,90 31/01/2021
875 249500 ERICA RODRIGUES ANDRADE OFICIAL DO MP SÃO FRANCISCO - COMARCA; SAO FRANCISCO-PJ-02PJ 9.146,93 2.744,08 0,00 0,00 0,00 0,00 523,20 7.257,68 19.671,89 1.714,84 1.876,95 0,00 0,00 3.591,79 16.080,10 31/01/2021
876 260800 ERICA VIANA GIARDINI DE OLIVEIRA OFICIAL DO MP BELO HORIZONTE - COMARCA; DIRETORIA GESTAO COMPRAS LICITACOES 10.069,62 3.020,89 0,00 0,00 0,00 0,00 0,00 1.550,00 14.640,51 1.906,76 2.206,17 0,00 0,00 4.112,93 10.527,58 31/01/2021
877 299800 ERICH DOUGLAS RIBEIRO GARCIA ANALISTA DO MP BELO HORIZONTE - COMARCA; CENTRAL DE APOIO TECNICO-SETOR CONTABIL 16.750,82 5.025,25 0,00 0,00 0,00 0,00 0,00 1.550,00 23.326,07 3.296,45 4.212,54 0,00 0,00 7.508,99 15.817,08 31/01/2021
878 365000 ERICK EDUARDO JOSE DA SILVA OFICIAL DO MP SANTOS DUMONT - COMARCA; SANTOS DUMONT-PJ-02PJ 6.123,79 1.224,76 0,00 0,00 2.449,52 0,00 0,00 1.550,00 11.348,07 988,05 1.553,40 0,00 0,00 2.541,45 8.806,62 31/01/2021
879 688900 ERICK FERDINANN SANTOS GOMES ASSESSOR PROMOTOR JUSTICA OURO PRETO - COMARCA; OURO PRETO-PJ-04PJ 0,00 0,00 7.187,72 0,00 0,00 0,00 0,00 1.550,00 8.737,72 751,99 1.202,97 0,00 0,00 1.954,96 6.782,76 31/01/2021
880 227400 ERIKA DE LAET GOULART BOECHAT ASSESSOR/OFICIAL BELO HORIZONTE - COMARCA; ASSESSORIA ESPECIAL DO PGJ 14.324,23 4.297,27 2.520,26 0,00 0,00 0,00 0,00 1.550,00 22.691,76 2.791,72 4.124,76 0,00 0,00 6.916,48 15.775,28 31/01/2021
881 285100 ERIKA FERREIRA DA SILVA OFICIAL DO MP JUIZ DE FORA - COMARCA; JUIZ DE FORA-PJ-11PJ 10.069,62 3.020,89 0,00 0,00 0,00 0,00 527,98 7.309,82 20.928,31 1.906,76 2.206,17 0,00 0,00 4.112,93 16.815,38 31/01/2021
882 420100 ERIKA JEANINE VERSIANI DE CASTRO ANALISTA DO MP BELO HORIZONTE - COMARCA; COORD ESTADUAL DE DEFESA DA EDUCACAO 13.011,52 2.602,30 0,00 0,00 0,00 0,00 0,00 1.550,00 17.163,82 2.310,49 2.789,06 0,00 0,00 5.099,55 12.064,27 31/01/2021
883 677100 ERIKA LAYS CARDOSO FERNANDES ASSESSOR PROMOTOR JUSTICA GRAO MOGOL - COMARCA; GRAO MOGOL-PJ-UNPJ 0,00 0,00 7.187,72 0,00 0,00 0,00 0,00 1.550,00 8.737,72 751,99 1.202,97 0,00 0,00 1.954,96 6.782,76 31/01/2021
884 606900 ERIKA MARIA BARBOSA ANALISTA DO MP BELO HORIZONTE - COMARCA; CAO-SAUDE 8.436,53 843,65 0,00 0,00 0,00 0,00 0,00 1.550,00 10.830,18 1.297,11 1.273,85 0,00 0,00 2.570,96 8.259,22 31/01/2021
885 491000 ERIKA ROCHA PEREIRA E SILVA COORDENADOR/ANALISTA BELO HORIZONTE - COMARCA; DIR GOVERNANCA TECNOLOGIA INFORMACAO 0,00 1.343,52 13.435,16 0,00 0,00 0,00 541,88 7.461,47 22.782,03 1.584,53 2.759,03 0,00 0,00 4.343,56 18.438,47 31/01/2021
886 283201 ERIKA STEHLING COORDENADOR/ANALISTA BELO HORIZONTE - COMARCA; CENTRAL DE APOIO TECNICO-SETOR DE ENGENHARIA 10.069,62 1.006,96 2.363,83 0,00 0,00 0,00 0,00 1.550,00 14.990,41 1.584,53 2.391,01 0,00 0,00 3.975,54 11.014,87 31/01/2021
887 254000 ERLANDIA DA SILVA MENDES OFICIAL DO MP IPATINGA - COMARCA; IPATINGA-PJ-03PJ 12.601,30 5.040,52 0,00 0,00 0,00 0,00 517,49 7.195,38 25.354,69 2.634,97 3.101,11 0,00 0,00 5.736,08 19.618,61 31/01/2021
888 208600 ERNANE JOSE DA COSTA ANALISTA DO MP BELO HORIZONTE - COMARCA; CENTRAL DE APOIO TECNICO-SETOR MEDICO 18.820,14 15.056,11 0,00 0,00 0,00 0,00 0,00 1.550,00 35.426,25 5.232,48 7.007,68 0,00 0,00 12.240,16 23.186,09 31/01/2021
889 260600 ERNANI CALDEIRA DE ANDRADE ANALISTA DO MP BELO HORIZONTE - COMARCA; CENTRAL DE APOIO TECNICO-SETOR CONTABIL 18.820,14 5.646,04 0,00 0,00 0,00 0,00 0,00 1.550,00 26.016,18 3.726,87 4.833,95 0,00 0,00 8.560,82 17.455,36 31/01/2021
890 348500 ERNILANDIA DE OLIVEIRA DIAS OFICIAL DO MP MONTES CLAROS - COMARCA; MONTES CLAROS-PJ-16PJ 8.858,43 1.771,69 0,00 0,00 3.543,37 0,00 0,00 1.550,00 15.723,49 1.513,10 2.612,25 0,00 0,00 4.125,35 11.598,14 31/01/2021
891 199300 ERTON PORTINARI DE ANDRADE OFICIAL DO MP SETE LAGOAS - COMARCA; SETE LAGOAS-PJ-05PJ 14.790,66 5.916,26 0,00 0,00 6.902,31 0,00 531,48 7.347,94 35.488,65 3.125,38 5.759,42 0,00 0,00 8.884,80 26.603,85 31/01/2021
892 618800 ESLY DE CARLA AYALLA BARBOSA MENDES OFICIAL DO MP NOVA LIMA - COMARCA; NOVA LIMA-PJ-SECRETARIA 4.974,42 497,44 0,00 0,00 0,00 0,00 0,00 1.550,00 7.021,86 694,23 444,49 0,00 0,00 1.138,72 5.883,14 31/01/2021
893 537000 ESTANISLAU CORREIA ALMEIDA JUNIOR OFICIAL DO MP UBERLÂNDIA - COMARCA; UBERLANDIA-PJ-25PJ 5.930,75 593,08 0,00 0,00 0,00 0,00 526,26 7.290,97 14.341,06 856,09 689,27 0,00 0,00 1.545,36 12.795,70 31/01/2021
894 692100 ESTEFANIA FARIA FERREIRA ASSESSOR PROCURADOR JUSTICA BELO HORIZONTE - COMARCA; GABINETE DE PROCURADOR DE JUSTIÇA - SALA 814 0,00 0,00 7.187,72 0,00 0,00 0,00 0,00 1.550,00 8.737,72 751,99 1.202,97 0,00 0,00 1.954,96 6.782,76 31/01/2021
895 326900 ESTER ALICE PIMENTA OFICIAL DO MP BELO HORIZONTE - COMARCA; COORD DE INCLUSAO E MOBILIZACAO SOCIAIS 10.069,62 3.020,89 0,00 0,00 4.363,50 0,00 527,98 7.309,82 25.291,81 1.906,76 3.406,13 0,00 0,00 5.312,89 19.978,92 31/01/2021
896 503700 ESTHER GONCALVES FONSECA ANALISTA DO MP BELO HORIZONTE - COMARCA; CENTRO PUBLICIDADE E DESIGN GRAFICO 9.444,70 944,47 0,00 0,00 0,00 0,00 0,00 1.550,00 11.939,17 1.474,54 1.582,16 0,00 0,00 3.056,70 8.882,47 31/01/2021
897 475600 ETIENE DE FATIMA OLIVEIRA PEREIRA ANALISTA DO MP PATROCÍNIO - COMARCA; PATROCINIO-PJ-04PJ 10.069,62 2.013,92 0,00 896,19 335,65 0,00 1.383,56 6.866,76 21.565,70 1.745,64 1.869,29 0,00 0,00 3.614,93 17.950,77 31/01/2021
898 428800 EUGENIA RODRIGUES TRAJANO BORGES ANALISTA DO MP UBERABA - COMARCA; UBERABA-PJ-08PJ 12.601,30 2.520,26 0,00 0,00 0,00 0,00 0,00 2.319,39 17.440,95 2.231,73 2.675,34 0,00 0,00 4.907,07 12.533,88 31/01/2021
899 272700 EUGENIO DE BARCELOS FILHO OFICIAL DO MP FRUTAL - COMARCA; FRUTAL-PJ-03PJ 8.858,43 2.657,53 0,00 0,00 0,00 0,00 0,00 1.981,60 13.497,56 1.654,83 1.790,31 0,00 0,00 3.445,14 10.052,42 31/01/2021
900 254100 EULALIA ALVES MIRANDA LUCAS OFICIAL DO MP ALMENARA - COMARCA; ALMENARA-PJ-02PJ 12.204,02 3.661,21 0,00 0,00 0,00 0,00 523,55 7.261,48 23.650,26 2.350,71 2.742,86 0,00 0,00 5.093,57 18.556,69 31/01/2021
901 615500 EUNICE BARBOSA PINTO OFICIAL DO MP OURO PRETO - COMARCA; OURO PRETO-PJ-03PJ 5.387,19 1.077,44 0,00 0,00 0,00 0,00 0,00 1.550,00 8.014,63 846,62 675,59 0,00 0,00 1.522,21 6.492,42 31/01/2021
902 641200 EUNICE ELVIRA DA SILVA MATOS OFICIAL DO MP BELO HORIZONTE - COMARCA; BH-14PJ DEFESA CONSUMIDOR-SECRETARIA 4.817,57 481,76 0,00 171,50 0,00 0,00 963,50 1.550,00 7.984,33 668,35 405,84 0,00 0,00 1.074,19 6.910,14 31/01/2021
903 557900 EURIPEDES JOSUE PERES OFICIAL DO MP IBIÁ - COMARCA; IBIA-PJ-UNPJ 5.387,19 538,72 0,00 0,00 0,00 0,00 543,21 7.475,91 13.945,03 762,96 550,45 0,00 0,00 1.313,41 12.631,62 31/01/2021
904 225800 EURO CESAR VIEIRA BARBOSA ANALISTA DO MP BELO HORIZONTE - COMARCA; BH-17PJ PATRIMONIO PUBLICO-SECRETARIA 18.820,14 7.528,06 0,00 0,00 0,00 0,00 483,05 6.819,64 33.650,89 4.027,99 5.164,42 0,00 0,00 9.192,41 24.458,48 31/01/2021
905 199400 EUSTAQUIO ADAILTON LIMA E SILVA OFICIAL DO MP MANGA - COMARCA; MANGA-PJ-01PJ 14.790,66 10.353,47 0,00 0,00 0,00 0,00 0,00 1.550,00 26.694,13 3.835,34 4.782,01 0,00 0,00 8.617,35 18.076,78 31/01/2021
906 548000 EVA VILMA LEAO REIS JULIO OFICIAL DO MP BELO HORIZONTE - COMARCA; BH-07PJ 01 TRIBUNAL JURI-SECRETARIA 5.930,75 1.779,23 0,00 0,00 0,00 0,00 0,00 1.550,00 9.259,98 1.045,87 963,27 0,00 0,00 2.009,14 7.250,84 31/01/2021
907 517000 EVALDO SENA COSTA FILHO ANALISTA DO MP CONTAGEM - COMARCA; CONTAGEM-PJ-15PJ 10.069,62 3.020,89 0,00 0,00 0,00 0,00 527,98 7.309,82 20.928,31 1.906,76 2.049,76 0,00 0,00 3.956,52 16.971,79 31/01/2021
908 217500 EVELANGE LEAO RABELO ASSESSOR BELO HORIZONTE - COMARCA; COORD EST DEF DIR FAM PESSOAS DEFICI IDOSOS 0,00 1.230,51 3.076,28 0,00 0,00 0,00 236,87 4.134,07 8.677,73 688,63 428,13 0,00 0,00 1.116,76 7.560,97 31/01/2021
909 679600 EVERTON BARBOSA DA SILVA ASSESSOR PROCURADOR JUSTICA BELO HORIZONTE - COMARCA; GABINETE DE PROCURADOR DE JUSTIÇA - SALA 510 0,00 0,00 7.187,72 0,00 0,00 0,00 0,00 1.550,00 8.737,72 751,99 1.202,97 0,00 0,00 1.954,96 6.782,76 31/01/2021
910 540400 EVIE SARAMELLA DE RESENDE OFICIAL DO MP BARBACENA - COMARCA; BARBACENA-PJ-05PJ 5.930,75 593,08 0,00 0,00 0,00 0,00 526,26 7.290,97 14.341,06 856,09 689,27 0,00 0,00 1.545,36 12.795,70 31/01/2021
911 469000 EWERTON CARDOSO DE SA RODRIGUES ANALISTA DO MP CAMPO BELO - COMARCA; CAMPO BELO-PJ-01PJ 10.069,62 2.013,92 0,00 896,19 335,65 0,00 2.324,07 8.119,49 23.758,94 1.745,64 1.869,29 0,00 0,00 3.614,93 20.144,01 31/01/2021
912 368900 FABIANA BARBOSA SIQUEIRA OFICIAL DO MP BELO HORIZONTE - COMARCA; CAO-ORDEM ECONOMICA E TRIBUTARIA-SECRETARIA 9.146,93 1.829,39 0,00 0,00 0,00 0,00 523,20 7.257,69 18.757,21 1.568,49 1.665,66 0,00 0,00 3.234,15 15.523,06 31/01/2021
913 273800 FABIANA CARNEIRO AMORIM COORDENADOR/OFICIAL BELO HORIZONTE - COMARCA; BH-23PJ CIVEL-COORD ADM CIVEL 11.085,56 3.325,67 2.363,83 0,00 0,00 0,00 492,07 6.918,02 24.185,15 2.118,07 3.057,04 0,00 0,00 5.175,11 19.010,04 31/01/2021
914 519300 FABIANA DE OLIVEIRA LOUREIRO ANALISTA DO MP BELO HORIZONTE - COMARCA; BH-09PJ AUDITORIA MILITAR-SECRETARIA 10.069,62 1.006,96 0,00 0,00 0,00 0,00 527,98 7.309,82 18.914,38 1.584,53 1.740,95 0,00 0,00 3.325,48 15.588,90 31/01/2021
915 363400 FABIANA DOURADO DUPIN VIEGAS ANALISTA DO MP BELO HORIZONTE - COMARCA; GABINETE DE PROCURADOR DE JUSTIÇA - SALA 705 15.272,02 3.054,40 0,00 0,00 0,00 0,00 537,57 7.414,45 26.278,44 2.744,50 3.363,53 0,00 0,00 6.108,03 20.170,41 31/01/2021
916 410800 FABIANA DUARTE QUITITE ANALISTA DO MP BELO HORIZONTE - COMARCA; BH-15PJ M AMB PAT HIST CULT-GAB 116PJ 13.011,52 2.602,30 0,00 0,00 0,00 0,00 515,26 7.170,98 23.300,06 2.310,49 2.789,06 0,00 0,00 5.099,55 18.200,51 31/01/2021
917 419500 FABIANA EULALIA DOS SANTOS ANALISTA DO MP SÃO JOÃO DEL REI - COMARCA; SAO JOAO DEL REI-PJ-01PJ 13.011,52 2.602,30 0,00 0,00 0,00 0,00 515,26 7.170,98 23.300,06 2.310,49 2.789,06 0,00 0,00 5.099,55 18.200,51 31/01/2021
918 700300 FABIANA MARCIA DE SOUZA ASSESSOR BELO HORIZONTE - COMARCA; DIRET DE CONTROLE E DE MANUTENCAO DE IMOVEIS 0,00 0,00 3.076,28 0,00 0,00 0,00 0,00 1.550,00 4.626,28 435,97 206,25 0,00 0,00 642,22 3.984,06 31/01/2021
919 376300 FABIANA MATTOSO LEMOS ANALISTA DO MP BELO HORIZONTE - COMARCA; BH-21PJ TUTELA FUNDACOES-SECRETARIA 14.324,23 2.864,85 0,00 0,00 0,00 0,00 0,00 1.550,00 18.739,08 2.562,53 3.152,94 0,00 0,00 5.715,47 13.023,61 31/01/2021
920 331500 FABIANA PACHECO OFICIAL DO MP GUAXUPÉ - COMARCA; GUAXUPE-PJ-01PJ 10.069,62 3.020,89 0,00 0,00 0,00 0,00 0,00 2.319,39 15.409,90 1.906,76 2.101,90 0,00 0,00 4.008,66 11.401,24 31/01/2021
921 510700 FABIANA PEREIRA SANTOS BORGES ANALISTA DO MP BELO HORIZONTE - COMARCA; DIRETORIA DE SISTEMAS DE INFORMACAO 10.069,62 1.006,96 0,00 0,00 0,00 0,00 0,00 2.319,39 13.395,97 1.584,53 1.688,82 0,00 0,00 3.273,35 10.122,62 31/01/2021
922 181700 FABIANA SOUZA FERREIRA OFICIAL DO MP BELO HORIZONTE - COMARCA; BH-19PJ SAUDE-SECRETARIA 150PJ 6.123,79 2.449,52 0,00 0,00 0,00 0,00 0,00 1.550,00 10.123,31 1.184,01 1.058,42 0,00 0,00 2.242,43 7.880,88 31/01/2021
923 272900 FABIANA STOCKLER LEITE OFICIAL DO MP LAJINHA - COMARCA; LAJINHA-PJ-SECRETARIA 10.069,62 5.034,81 0,00 0,00 0,00 0,00 498,45 7.171,85 22.774,73 2.228,99 2.567,11 0,00 0,00 4.796,10 17.978,63 31/01/2021
924 225500 FABIANE DE FATIMA PORTELLA ANALISTA DO MP BELO HORIZONTE - COMARCA; BH-18PJ DIREITOS HUMANOS-SECRETARIA 18.820,14 5.646,04 0,00 0,00 0,00 0,00 0,00 1.550,00 26.016,18 3.726,87 4.833,95 0,00 0,00 8.560,82 17.455,36 31/01/2021
925 433800 FABIANE DINIZ MATTOS ANALISTA DO MP BELO HORIZONTE - COMARCA; BH-23PJ INFRACIONAL-ASS JURIDICA 13.011,52 2.602,30 0,00 0,00 0,00 0,00 2.924,20 8.709,76 27.247,78 2.695,92 3.345,52 0,00 0,00 6.041,44 21.206,34 31/01/2021
926 455000 FABIANO CARVALHO DA SILVA ANALISTA DO MP LAVRAS - COMARCA; LAVRAS-PJ-05PJ 10.069,62 2.013,92 0,00 896,19 335,65 0,00 5.908,85 7.350,10 26.574,33 1.745,64 1.973,56 0,00 0,00 3.719,20 22.855,13 31/01/2021
927 498800 FABIANO FURTADO PESSOA COELHO ANALISTA DO MP BELO HORIZONTE - COMARCA; DIRETORIA DE REDES E BANCOS DE DADOS 10.069,62 1.006,96 0,00 0,00 0,00 0,00 0,00 1.550,00 12.626,58 1.584,53 1.688,82 0,00 0,00 3.273,35 9.353,23 31/01/2021
928 663000 FABIANO MARQUES CORREA ASSESSOR BELO HORIZONTE - COMARCA; DIRETORIA DE SUPORTE E MANUTENCAO 0,00 0,00 5.136,32 0,00 0,00 0,00 0,00 1.550,00 6.686,32 724,37 646,43 0,00 0,00 1.370,80 5.315,52 31/01/2021
929 394600 FABIANO PALHARES SILVA ANALISTA DO MP BELO HORIZONTE - COMARCA; CENTRAL DE APOIO TECN-SETOR DE MEIO AMBIENTE 14.324,23 2.864,85 0,00 0,00 0,00 0,00 0,00 1.550,00 18.739,08 2.562,53 3.100,80 0,00 0,00 5.663,33 13.075,75 31/01/2021
930 676600 FABIANO RESENDE VELOSO ASSESSOR PROCURADOR JUSTICA BELO HORIZONTE - COMARCA; GABINETE DE PROCURADOR DE JUSTIÇA - SALA 1002 0,00 0,00 7.187,72 0,00 0,00 0,00 0,00 1.550,00 8.737,72 751,99 1.202,97 0,00 0,00 1.954,96 6.782,76 31/01/2021
931 444400 FABIANO SARAIVA MEDEIROS ANALISTA DO MP BETIM - COMARCA; BETIM-PJ-11PJ 12.601,30 2.520,26 0,00 0,00 0,00 0,00 0,00 2.319,39 17.440,95 2.231,73 2.571,07 0,00 0,00 4.802,80 12.638,15 31/01/2021
932 408700 FABIANO SOARES PORTILHO ANALISTA DO MP VIÇOSA - COMARCA; VICOSA-PJ-02PJ 13.011,52 2.602,30 0,00 0,00 5.204,61 0,00 515,26 7.170,98 28.504,67 2.310,49 4.220,32 0,00 0,00 6.530,81 21.973,86 31/01/2021
933 442600 FABIO CARVALHO VIEIRA ANALISTA DO MP MONTES CLAROS - COMARCA; MONTES CLAROS-PJ-06PJ 9.752,14 1.950,43 0,00 0,00 0,00 0,00 514,91 7.167,23 19.384,71 1.684,69 1.885,56 0,00 0,00 3.570,25 15.814,46 31/01/2021
934 240101 FABIO JUNQUEIRA DE ASSIS FONSECA OFICIAL DO MP BELO HORIZONTE - COMARCA; BH-17PJ PATRIMONIO PUBLICO-SECRETARIA 8.170,49 1.634,10 0,00 0,00 3.268,20 0,00 539,25 7.432,75 21.044,79 1.381,01 2.345,88 0,00 0,00 3.726,89 17.317,90 31/01/2021
935 271500 FABIO LUIZ VIEIRA OFICIAL DO MP SANTA VITÓRIA - COMARCA; SANTA VITORIA-PJ-UNPJ 10.069,62 3.020,89 0,00 0,00 0,00 0,00 527,98 7.350,42 20.968,91 1.906,76 2.101,90 0,00 0,00 4.008,66 16.960,25 31/01/2021
936 213100 FABIO PRATES GONCALVES ASSESSOR BELO HORIZONTE - COMARCA; CENTRO CERIMONIAL 0,00 4.159,01 10.397,52 0,00 0,00 0,00 0,00 2.319,39 16.875,92 751,99 3.072,98 0,00 0,00 3.824,97 13.050,95 31/01/2021
937 436700 FABIO SANTIAGO DE CARVALHO OFICIAL DO MP POÇO FUNDO - COMARCA; POCO FUNDO-PJ-UNPJ 8.579,10 1.715,82 0,00 0,00 0,00 0,00 528,47 7.315,16 18.138,55 1.459,46 1.560,39 0,00 0,00 3.019,85 15.118,70 31/01/2021
938 208400 FABIOLA DE SOUSA CARDOSO ASSESSOR/ANALISTA BELO HORIZONTE - COMARCA; ASSESS TECNICA DA CORREGEDORIA-GERAL DO MP 18.820,14 7.528,06 2.520,26 0,00 0,00 0,00 529,25 7.323,69 36.721,40 4.027,99 5.961,77 0,00 0,00 9.989,76 26.731,64 31/01/2021
939 392200 FABIOLA LEROY COSTA ANALISTA DO MP ESMERALDAS - COMARCA; ESMERALDAS-PJ-01PJ 10.069,62 2.013,92 0,00 0,00 0,00 0,00 0,00 2.319,39 14.402,93 1.745,64 1.973,56 0,00 0,00 3.719,20 10.683,73 31/01/2021
940 409000 FABIOLA MONTEIRO DE CARVALHO CASTRO ANALISTA DO MP BOM SUCESSO - COMARCA; BOM SUCESSO-PJ-UNPJ 11.085,56 2.217,11 0,00 0,00 0,00 0,00 536,54 7.403,17 21.242,38 1.940,70 2.255,18 0,00 0,00 4.195,88 17.046,50 31/01/2021
941 525800 FABRICIA ALVES DANTAS OFICIAL DO MP MONTES CLAROS - COMARCA; MONTES CLAROS-PJ-01PJ 7.421,79 742,18 0,00 0,00 0,00 0,00 538,82 7.428,06 16.130,85 1.118,51 963,87 0,00 0,00 2.082,38 14.048,47 31/01/2021
942 263400 FABRICIA PINTO TEIXEIRA SANTIAGO OFICIAL DO MP BELO HORIZONTE - COMARCA; CAO-FUNDACOES-SECRETARIA 12.601,30 3.780,39 0,00 0,00 5.460,56 0,00 540,60 7.447,41 29.830,26 2.433,35 4.363,81 0,00 0,00 6.797,16 23.033,10 31/01/2021
943 420800 FABRICIO BERNARDES DE OLIVEIRA OFICIAL DO MP ITURAMA - COMARCA; ITURAMA-PJ-02PJ 8.579,10 1.715,82 0,00 0,00 0,00 0,00 528,47 7.315,16 18.138,55 1.459,46 1.508,25 0,00 0,00 2.967,71 15.170,84 31/01/2021
944 474000 FABRICIO DE FREITAS SALES ANALISTA DO MP MONTES CLAROS - COMARCA; COORD REG PATRI PUB ORD TRIB-NORTE MINAS 10.069,62 2.013,92 0,00 896,19 335,65 0,00 1.427,87 7.350,10 22.093,35 1.745,64 1.973,56 0,00 0,00 3.719,20 18.374,15 31/01/2021
945 510100 FABRICIO FURTADO ASSIS DO CARMO ANALISTA DO MP BELO HORIZONTE - COMARCA; SERVICO MEDICO-DEPTO PERIC MEDICA SAUDE OCUP 10.069,62 1.006,96 0,00 0,00 0,00 0,00 963,51 2.319,39 14.359,48 1.584,53 2.005,92 0,00 0,00 3.590,45 10.769,03 31/01/2021
946 519600 FABRICIO GONTIJO SALVATI ANALISTA DO MP JUIZ DE FORA - COMARCA; JUIZ DE FORA-CAO ESPECIALIZADO-SECRETARIA 10.069,62 1.006,96 0,00 0,00 0,00 0,00 0,00 1.550,00 12.626,58 1.584,53 1.740,95 0,00 0,00 3.325,48 9.301,10 31/01/2021
947 637400 FABRICIO HENRIQUE DA SILVA PASSOS ASSESSOR/ANALISTA BELO HORIZONTE - COMARCA; CENTRO PUBLICIDADE E DESIGN GRAFICO 0,00 1.039,75 10.397,52 0,00 0,00 0,00 0,00 1.550,00 12.987,27 1.371,36 1.784,31 0,00 416,20 3.571,87 9.415,40 31/01/2021
948 428200 FABRICIO ORZIL VIANA ANALISTA DO MP SANTA LUZIA - COMARCA; SANTA LUZIA-PJ-04PJ 10.069,62 2.013,92 0,00 0,00 0,00 0,00 531,68 7.350,10 19.965,32 1.745,64 1.973,56 0,00 0,00 3.719,20 16.246,12 31/01/2021
949 455600 FABRICIO PAIVA DA ROCHA ANALISTA DO MP SÃO JOÃO DEL REI - COMARCA; SAO JOAO DEL REI-PJ-06PJ 10.069,62 2.013,92 0,00 896,19 335,65 0,00 5.012,65 8.119,49 26.447,52 1.745,64 1.921,43 0,00 0,00 3.667,07 22.780,45 31/01/2021
950 511500 FABRICIO RENE CARDOSO DE PADUA ANALISTA DO MP SÃO SEBASTIÃO DO PARAÍSO - COMARCA; SAO SEBASTIAO DO PARAISO-PJ-03PJ 10.069,62 1.006,96 0,00 0,00 0,00 0,00 0,00 1.550,00 12.626,58 1.584,53 1.740,95 0,00 0,00 3.325,48 9.301,10 31/01/2021
951 496100 FABRICIO RESENDE GONCALVES OFICIAL DO MP ENTRE-RIOS DE MINAS - COMARCA; ENTRE RIOS DE MINAS-PJ-UNPJ 7.421,79 742,18 0,00 0,00 0,00 0,00 0,00 2.319,39 10.483,36 1.118,51 1.068,14 0,00 0,00 2.186,65 8.296,71 31/01/2021
952 650300 FABRICIO ROBERTO AZEVEDO OFICIAL DO MP NOVA SERRANA - COMARCA; NOVA SERRANA-PJ-04PJ 4.376,03 262,56 0,00 0,00 0,00 0,00 238,11 4.147,61 9.024,31 570,31 279,23 0,00 0,00 849,54 8.174,77 31/01/2021
953 514900 FADUA MARIA DRUMOND CHEQUER ANALISTA DO MP DIVINÓPOLIS - COMARCA; DIVINOPOLIS-PJ-12PJ 10.069,62 1.006,96 0,00 0,00 0,00 0,00 527,98 7.309,82 18.914,38 1.584,53 1.636,68 0,00 0,00 3.221,21 15.693,17 31/01/2021
954 282500 FANNY FERREIRA MELO OFICIAL DO MP ARAXÁ - COMARCA; ARAXA-PJ-03PJ 8.436,53 2.530,96 0,00 0,00 3.655,83 0,00 0,00 1.550,00 16.173,32 1.567,08 2.721,11 0,00 0,00 4.288,19 11.885,13 31/01/2021
955 692500 FARID JUNIOR NUNES DA SILVA ASSESSOR PROCURADOR JUSTICA BELO HORIZONTE - COMARCA; GABINETE DE PROCURADOR DE JUSTIÇA - SALA 902 0,00 0,00 7.187,72 0,00 0,00 0,00 0,00 1.550,00 8.737,72 751,99 1.098,69 0,00 0,00 1.850,68 6.887,04 31/01/2021
956 540100 FATIMA CRISTINA POVOA DA COSTA ASSESSOR/OFICIAL BELO HORIZONTE - COMARCA; BH-18PJ VIOLENCIA DOMESTICA-SECRETARIA 0,00 3.119,26 10.397,52 0,00 0,00 1.434,52 545,18 7.497,38 22.993,86 1.045,87 2.847,75 0,00 388,65 4.282,27 18.711,59 31/01/2021
957 382800 FATIMA DE OLIVEIRA COELHO E SILVA OFICIAL DO MP BELO HORIZONTE - COMARCA; DIRETORIA DE ADMINISTRACAO FINANCEIRA 7.187,72 2.156,32 0,00 0,00 3.114,68 0,00 0,00 1.550,00 14.008,72 1.307,32 2.145,14 0,00 0,00 3.452,46 10.556,26 31/01/2021
958 398601 FELIPE ANTONIO HORTA DE PAULA ANALISTA DO MP BELO HORIZONTE - COMARCA; PROC. JUSTICA DIR. DIFUSOS E COLETIVOS-SEC 9.146,93 914,69 0,00 0,00 0,00 0,00 0,00 1.550,00 11.611,62 1.422,14 1.506,50 0,00 0,00 2.928,64 8.682,98 31/01/2021
959 430900 FELIPE BOY VIEIRA ANALISTA DO MP BELO HORIZONTE - COMARCA; DIRETORIA DE SEGURANCA 12.204,02 2.440,80 0,00 0,00 0,00 0,00 0,00 1.550,00 16.194,82 2.155,45 2.565,22 0,00 0,00 4.720,67 11.474,15 31/01/2021
960 631700 FELIPE DE MORAIS SIMOES COELHO ANALISTA DO MP BELO HORIZONTE - COMARCA; BH-18PJ VIOLENCIA DOMESTICA-SECRETARIA 7.663,37 766,34 0,00 0,00 0,00 0,00 0,00 1.550,00 9.979,71 1.161,03 1.129,53 0,00 0,00 2.290,56 7.689,15 31/01/2021
961 549100 FELIPE FERNANDES ALVIM ANALISTA DO MP LAJINHA - COMARCA; LAJINHA-PJ-UNPJ 9.146,93 914,69 0,00 0,00 0,00 0,00 516,50 7.184,51 17.762,63 1.422,14 1.506,50 0,00 0,00 2.928,64 14.833,99 31/01/2021
962 487300 FELIPE FERNANDES SILVEIRA ASSESSOR BELO HORIZONTE - COMARCA; DIVISAO DE MANUTENCAO PREDIAL 0,00 0,00 3.076,28 0,00 0,00 0,00 281,99 4.626,28 7.984,55 295,50 237,05 0,00 0,00 532,55 7.452,00 31/01/2021
963 693100 FELIPE FROIS DO AMARAL ASSESSOR PROMOTOR JUSTICA RIBEIRÃO DAS NEVES - COMARCA; RIBEIRAO NEVES-SEC PJ EXECUCAO PENAL 0,00 0,00 7.187,72 0,00 0,00 0,00 0,00 1.550,00 8.737,72 751,99 1.098,69 0,00 0,00 1.850,68 6.887,04 31/01/2021
964 620100 FELIPE GOMES DE AZEVEDO ASSESSOR/OFICIAL BELO HORIZONTE - COMARCA; DIVISAO DE SERVICOS 0,00 817,05 8.170,49 0,00 0,00 0,00 0,00 1.550,00 10.537,54 694,23 1.385,20 0,00 94,90 2.174,33 8.363,21 31/01/2021
965 601600 FELIPE RODRIGUES DE SIQUEIRA ANALISTA DO MP BELO HORIZONTE - COMARCA; BH-02PJ FAMILIA-SECRETARIA 9.146,93 914,69 0,00 0,00 0,00 0,00 516,50 7.184,51 17.762,63 1.422,14 1.143,50 0,00 0,00 2.565,64 15.196,99 31/01/2021
966 628900 FELIX FERNANDO JUNIO VIEIRA ANALISTA DO MP CAETÉ - COMARCA; CAETE-PJ-02PJ 8.436,53 843,65 0,00 0,00 0,00 0,00 544,44 7.489,32 17.313,94 1.297,11 1.273,85 0,00 0,00 2.570,96 14.742,98 31/01/2021
967 544500 FELLIPE LEMOS MARCONDES BUENO ANALISTA DO MP SÃO SEBASTIÃO DO PARAÍSO - COMARCA; SAO SEBASTIAO DO PARAISO-PJ-04PJ 9.146,93 914,69 0,00 0,00 0,00 0,00 368,93 5.574,65 16.005,20 1.422,14 1.506,50 0,00 0,00 2.928,64 13.076,56 31/01/2021
968 688500 FELLIPE TADEU DE ANDRADE RAMOS ASSESSOR PROCURADOR JUSTICA BELO HORIZONTE - COMARCA; GABINETE DE PROCURADOR DE JUSTIÇA - SALA 907 0,00 0,00 7.187,72 0,00 0,00 0,00 0,00 1.550,00 8.737,72 751,99 1.202,97 0,00 0,00 1.954,96 6.782,76 31/01/2021
969 612600 FERNANDA ADRIANA DE PAULA GUIDO ANALISTA DO MP PARACATU - COMARCA; PARACATU-PJ-02PJ 8.436,53 843,65 0,00 0,00 0,00 0,00 544,44 8.258,71 18.083,33 1.297,11 1.325,98 0,00 0,00 2.623,09 15.460,24 31/01/2021
970 508400 FERNANDA AGANETTI MATTOS DE OLIVEIRA ANALISTA DO MP BELO HORIZONTE - COMARCA; BH-07PJ 02 TRIBUNAL DO JURI-GAB 061PJ 10.069,62 1.006,96 0,00 0,00 3.692,19 0,00 0,00 3.088,78 17.857,55 1.584,53 2.756,31 0,00 0,00 4.340,84 13.516,71 31/01/2021
971 453600 FERNANDA ALBERNAZ RABELO ANALISTA DO MP BELO HORIZONTE - COMARCA; GABINETE DE PROCURADOR DE JUSTIÇA - SALA 616 10.069,62 2.013,92 0,00 896,19 335,65 0,00 5.377,17 1.550,00 20.242,55 1.745,64 1.973,56 0,00 0,00 3.719,20 16.523,35 31/01/2021
972 255600 FERNANDA ALINA DE ALMEIDA ANDRADE OFICIAL DO MP BELO HORIZONTE - COMARCA; LABORATORIO TECNOLOGIA INTELIGENCIA 10.069,62 3.020,89 0,00 0,00 0,00 0,00 0,00 1.550,00 14.640,51 1.906,76 2.206,17 0,00 0,00 4.112,93 10.527,58 31/01/2021
973 443200 FERNANDA ALMEIDA LOPES ANALISTA DO MP CONTAGEM - COMARCA; CONTAGEM-PJ-23PJ 12.601,30 2.520,26 0,00 0,00 5.040,52 0,00 499,01 8.532,54 29.193,63 2.231,73 3.957,21 0,00 0,00 6.188,94 23.004,69 31/01/2021
974 281100 FERNANDA ANANIAS MEIRA ANALISTA DO MP BELO HORIZONTE - COMARCA; BH-23PJ INFRACIONAL-ASS JURIDICA 16.750,82 5.025,25 0,00 0,00 7.258,69 0,00 2.239,80 1.550,00 32.824,56 3.654,82 6.726,07 0,00 0,00 10.380,89 22.443,67 31/01/2021
975 539000 FERNANDA BARBOSA ALVES ANALISTA DO MP UBERABA - COMARCA; UBERABA-PJ-04PJ 9.146,93 914,69 0,00 0,00 0,00 0,00 0,00 2.319,39 12.381,01 1.422,14 1.506,50 0,00 0,00 2.928,64 9.452,37 31/01/2021
976 451200 FERNANDA BLOISE PRADO OFICIAL DO MP BELO HORIZONTE - COMARCA; DIVISAO DE MATERIAIS 8.170,49 1.634,10 0,00 0,00 3.268,20 0,00 0,00 1.550,00 14.622,79 1.381,01 2.345,88 0,00 0,00 3.726,89 10.895,90 31/01/2021
977 427900 FERNANDA BRAGA CARNEIRO BICALHO ANALISTA DO MP PEÇANHA - COMARCA; PECANHA-PJ-SECRETARIA 10.069,62 2.013,92 0,00 0,00 4.027,85 0,00 0,00 2.319,39 18.430,78 1.745,64 3.029,08 0,00 0,00 4.774,72 13.656,06 31/01/2021
978 507100 FERNANDA CABRINI VAZ MOTA ANALISTA DO MP BELO HORIZONTE - COMARCA; BH-14PJ DEFESA CONSUMIDOR-GAB 005PJ 10.069,62 1.006,96 0,00 0,00 0,00 0,00 0,00 3.088,78 14.165,36 1.584,53 1.740,95 0,00 0,00 3.325,48 10.839,88 31/01/2021
979 259800 FERNANDA CALZAVARA DE SOUSA COORDENADOR/OFICIAL BELO HORIZONTE - COMARCA; DIRET DE FORMACAO, APERFEIC. E POS-GRADUACAO 12.601,30 3.780,39 2.687,03 0,00 0,00 0,00 0,00 2.319,39 21.388,11 2.433,35 3.653,23 0,00 0,00 6.086,58 15.301,53 31/01/2021
980 494400 FERNANDA CAMPOS BARATA OFICIAL DO MP JUIZ DE FORA - COMARCA; JUIZ DE FORA-PJ-08PJ 6.123,79 612,38 0,00 0,00 0,00 0,00 0,00 1.550,00 8.286,17 890,06 738,32 0,00 0,00 1.628,38 6.657,79 31/01/2021
981 555600 FERNANDA CAROLINE RIBEIRO ANALISTA DO MP BELO HORIZONTE - COMARCA; DIRETORIA GESTAO CONTRATOS CONVENIOS 9.146,93 914,69 0,00 0,00 0,00 0,00 516,50 7.258,94 17.837,06 1.422,14 1.435,58 0,00 257,88 3.115,60 14.721,46 31/01/2021
982 692000 FERNANDA CESAR SILVA ASSESSOR PROCURADOR JUSTICA BELO HORIZONTE - COMARCA; GABINETE DE PROCURADOR DE JUSTIÇA - SALA 809 0,00 0,00 7.187,72 0,00 0,00 0,00 0,00 1.550,00 8.737,72 751,99 1.202,97 0,00 0,00 1.954,96 6.782,76 31/01/2021
983 294500 FERNANDA COSTA FLORES OFICIAL DO MP PARÁ DE MINAS - COMARCA; PARA DE MINAS-PJ-04PJ 10.069,62 3.020,89 0,00 0,00 0,00 0,00 527,98 7.309,82 20.928,31 1.906,76 2.206,17 0,00 0,00 4.112,93 16.815,38 31/01/2021
984 344500 FERNANDA CRISTINA DE SOUZA PAZ ASSESSOR BELO HORIZONTE - COMARCA; CENTRAL DE APOIO TECN-SETOR DE MEIO AMBIENTE 0,00 0,00 5.136,32 0,00 0,00 0,00 0,00 1.550,00 6.686,32 724,37 542,15 0,00 0,00 1.266,52 5.419,80 31/01/2021
985 538100 FERNANDA CRISTINA DOS SANTOS ROSA OFICIAL DO MP RIBEIRÃO DAS NEVES - COMARCA; RIBEIRAO DAS NEVES-PJ-09PJ 5.930,75 1.779,23 0,00 0,00 0,00 0,00 0,00 1.550,00 9.259,98 1.045,87 963,27 0,00 0,00 2.009,14 7.250,84 31/01/2021
986 337800 FERNANDA CRISTINA ROLAND CLIMACO MENDES COORDENADOR/OFICIAL BELO HORIZONTE - COMARCA; DIRETORIA DE PAGAMENTO DE PESSOAL-DPAG 0,00 4.030,55 13.435,16 0,00 0,00 0,00 512,33 7.139,03 25.117,07 2.118,07 3.282,52 0,00 249,90 5.650,49 19.466,58 31/01/2021
987 545400 FERNANDA CUNHA GUIMARAES ANALISTA DO MP BELO HORIZONTE - COMARCA; COORD EST DEF DIR FAM PESSOAS DEFICI IDOSOS 9.146,93 914,69 0,00 0,00 0,00 0,00 0,00 1.550,00 11.611,62 1.422,14 1.506,50 0,00 0,00 2.928,64 8.682,98 31/01/2021
988 429801 FERNANDA CUNHA PINHEIRO DA SILVA ANALISTA DO MP BELO HORIZONTE - COMARCA; ASSESSORIA DE COMUNICACAO INTEGRADA 10.069,62 1.006,96 0,00 0,00 0,00 0,00 0,00 1.550,00 12.626,58 1.584,53 1.688,82 0,00 0,00 3.273,35 9.353,23 31/01/2021
989 408000 FERNANDA DAS NEVES RAMOS ANALISTA DO MP BELO HORIZONTE - COMARCA; CENTRAL DE APOIO TECNICO-SETOR CONTABIL 13.011,52 2.602,30 0,00 0,00 0,00 0,00 515,26 7.940,37 24.069,45 2.310,49 2.789,06 0,00 0,00 5.099,55 18.969,90 31/01/2021
990 496000 FERNANDA DE ALMEIDA VIANA ANALISTA DO MP BELO HORIZONTE - COMARCA; PROC JUST RECURSOS ESP E EXTRAORD CRIMINAIS 10.069,62 1.006,96 0,00 0,00 0,00 0,00 527,98 8.079,21 19.683,77 1.584,53 1.688,82 0,00 0,00 3.273,35 16.410,42 31/01/2021
991 266700 FERNANDA DE CASTRO LUCAS COORDENADOR/OFICIAL BELO HORIZONTE - COMARCA; DIRET DE DESENV DE RECURSOS HUMANOS-DDRH 12.601,30 3.780,39 2.687,03 0,00 0,00 0,00 489,43 7.658,63 27.216,78 2.433,35 3.653,23 0,00 0,00 6.086,58 21.130,20 31/01/2021
992 433200 FERNANDA DE FIGUEIREDO NORTE ANALISTA DO MP BELO HORIZONTE - COMARCA; ASSESS JUR DO CONS SUPERIOR DO MINISTERIO PUB 13.011,52 2.602,30 0,00 0,00 0,00 0,00 0,00 2.319,39 17.933,21 2.310,49 2.684,78 0,00 0,00 4.995,27 12.937,94 31/01/2021
993 419200 FERNANDA DE MIRANDA MARTINS SIMOES ANALISTA DO MP UBERLÂNDIA - COMARCA; UBERLANDIA-PJ-17PJ 13.011,52 2.602,30 0,00 0,00 0,00 0,00 515,26 7.940,37 24.069,45 2.310,49 2.789,06 0,00 0,00 5.099,55 18.969,90 31/01/2021
994 441400 FERNANDA DE MORAIS PINTO ANALISTA DO MP BELO HORIZONTE - COMARCA; PROC. JUSTICA DIR. DIFUSOS E COLETIVOS-SEC 12.601,30 2.520,26 0,00 0,00 0,00 0,00 0,00 1.550,00 16.671,56 2.231,73 2.675,34 0,00 0,00 4.907,07 11.764,49 31/01/2021
995 432200 FERNANDA DE MOURA GUIMARAES ANALISTA DO MP BELO HORIZONTE - COMARCA; BH-26 CRIME CONT CRIAN ADOL-SECRETARIA 12.601,30 2.520,26 0,00 0,00 5.040,52 0,00 499,01 7.763,15 28.424,24 2.231,73 4.061,49 0,00 0,00 6.293,22 22.131,02 31/01/2021
996 461800 FERNANDA DE OLIVEIRA SANTOS ANALISTA DO MP JUIZ DE FORA - COMARCA; JUIZ DE FORA-PJ-21PJ 10.069,62 2.013,92 0,00 896,19 0,00 0,00 2.324,07 8.119,49 23.423,29 1.745,64 1.973,56 0,00 0,00 3.719,20 19.704,09 31/01/2021
997 432500 FERNANDA DE PAULA PINTO ANALISTA DO MP BELO HORIZONTE - COMARCA; PROC JUST RECURSOS ESP E EXTRAORD CRIMINAIS 12.601,30 2.520,26 0,00 0,00 0,00 0,00 0,00 1.550,00 16.671,56 2.231,73 2.675,34 0,00 0,00 4.907,07 11.764,49 31/01/2021
998 431600 FERNANDA DIAS BARBOSA PEREIRA ANALISTA DO MP OURO BRANCO - COMARCA; OURO BRANCO-PJ-UNPJ 12.601,30 2.520,26 0,00 0,00 5.040,52 0,00 0,00 2.319,39 22.481,47 2.231,73 3.957,21 0,00 0,00 6.188,94 16.292,53 31/01/2021
999 162200 FERNANDA FERNANDES MONTEIRO ASSESSOR BELO HORIZONTE - COMARCA; BH-12PJ JUIZO CRIMINAL-SECRETARIA 0,00 2.054,53 5.136,32 0,00 0,00 0,00 527,33 7.302,68 15.020,86 751,99 1.151,69 0,00 0,00 1.903,68 13.117,18 31/01/2021
1000 512800 FERNANDA FERREIRA BARBOSA MOREIRA ANALISTA DO MP IPATINGA - COMARCA; IPATINGA-PJ-05PJ 10.069,62 1.006,96 0,00 0,00 0,00 0,00 527,98 8.079,21 19.683,77 1.584,53 1.740,95 0,00 0,00 3.325,48 16.358,29 31/01/2021
1001 329200 FERNANDA GABRIEL GUZELLA OFICIAL DO MP BELO HORIZONTE - COMARCA; DIRET DE PLANOS PROJETOS E PROGRAMAS INST 9.752,14 2.925,64 0,00 0,00 0,00 0,00 0,00 1.550,00 14.227,78 1.840,72 2.110,83 0,00 0,00 3.951,55 10.276,23 31/01/2021
1002 324200 FERNANDA GEORGIA NEVES ZAHAN OFICIAL DO MP IPANEMA - COMARCA; IPANEMA-PJ-SECRETARIA 8.436,53 5.905,57 0,00 0,00 0,00 0,00 0,00 1.550,00 15.892,10 2.107,01 2.495,29 0,00 0,00 4.602,30 11.289,80 31/01/2021
1003 548200 FERNANDA GONCALVES DE CARVALHO ZUZA OFICIAL DO MP TUPACIGUARA - COMARCA; TUPACIGUARA-PJ-UNPJ 5.930,75 593,08 0,00 0,00 0,00 0,00 526,26 7.290,97 14.341,06 856,09 689,27 0,00 0,00 1.545,36 12.795,70 31/01/2021
1004 355400 FERNANDA HELENA BASQUES OFICIAL DO MP SABARÁ - COMARCA; SABARA-PJ-01PJ 9.146,93 1.829,39 0,00 0,00 0,00 0,00 0,00 1.550,00 12.526,32 1.568,49 1.717,79 0,00 0,00 3.286,28 9.240,04 31/01/2021
1005 454800 FERNANDA IATAROLA BARBOSA DIAS ANALISTA DO MP BARBACENA - COMARCA; BARBACENA-PJ-05PJ 10.736,08 2.147,22 0,00 955,51 357,87 0,00 7.075,41 7.218,65 28.490,74 1.873,61 2.106,17 0,00 0,00 3.979,78 24.510,96 31/01/2021
1006 515500 FERNANDA LILIANE MARUGEIRO ANALISTA DO MP BELO HORIZONTE - COMARCA; BH-18PJ VIOLENCIA DOMESTICA-SECRETARIA 10.069,62 1.006,96 0,00 0,00 0,00 0,00 527,98 8.079,21 19.683,77 1.584,53 1.688,82 0,00 0,00 3.273,35 16.410,42 31/01/2021
1007 392900 FERNANDA MAGALHAES SILVA ANALISTA DO MP BELO HORIZONTE - COMARCA; CENTRO JORNALISMO 14.324,23 2.864,85 0,00 0,00 5.729,69 0,00 0,00 1.550,00 24.468,77 2.562,53 4.728,61 0,00 0,00 7.291,14 17.177,63 31/01/2021
1008 409200 FERNANDA MAIA SANTIAGO CARDOSO ANALISTA DO MP PIRAPORA - COMARCA; PIRAPORA-PJ-02PJ 10.069,62 2.013,92 0,00 0,00 0,00 0,00 0,00 2.319,39 14.402,93 1.745,64 1.973,56 0,00 0,00 3.719,20 10.683,73 31/01/2021
1009 556500 FERNANDA OTERO COSTA ANALISTA DO MP BELO HORIZONTE - COMARCA; ASSESS TECNICO-JUR JUNTO AS PROC. DE JUST 10.069,62 1.006,96 0,00 0,00 0,00 0,00 527,98 7.309,82 18.914,38 1.584,53 1.740,95 0,00 0,00 3.325,48 15.588,90 31/01/2021
1010 615300 FERNANDA PATRICIA RIBEIRO MOTA OFICIAL DO MP UBERABA - COMARCA; UBERABA-PJ-05PJ 4.974,42 497,44 0,00 0,00 0,00 0,00 501,59 7.021,86 12.995,31 694,23 444,49 0,00 0,00 1.138,72 11.856,59 31/01/2021
1011 619800 FERNANDA PINTO PEREIRA ANALISTA DO MP UBERLÂNDIA - COMARCA; UBERLANDIA-PJ-20PJ 8.436,53 843,65 0,00 0,00 0,00 0,00 0,00 2.319,39 11.599,57 1.297,11 1.273,85 0,00 0,00 2.570,96 9.028,61 31/01/2021
1012 412900 FERNANDA PORTELA ROSA ANALISTA DO MP BELO HORIZONTE - COMARCA; BH-08PJ JUIZADO ESPECIAL-SECRETARIA 13.011,52 2.602,30 0,00 0,00 0,00 0,00 515,26 7.940,37 24.069,45 2.310,49 2.789,06 0,00 0,00 5.099,55 18.969,90 31/01/2021
1013 274301 FERNANDA QUEIROZ PARREIRA ANALISTA DO MP PATOS DE MINAS - COMARCA; GAECO REGIONAL DE PATOS DE MINAS 10.069,62 1.006,96 0,00 0,00 0,00 0,00 0,00 1.550,00 12.626,58 1.584,53 1.740,95 0,00 0,00 3.325,48 9.301,10 31/01/2021
1014 467900 FERNANDA QUEIROZ SIMOES GANNAM ANALISTA DO MP SÃO LOURENÇO - COMARCA; SAO LOURENCO-PJ-02PJ 10.069,62 2.013,92 0,00 896,19 0,00 0,00 1.792,39 2.319,39 17.091,51 1.745,64 1.921,43 0,00 0,00 3.667,07 13.424,44 31/01/2021
1015 681000 FERNANDA ROCHA DE MATOS TEIXEIRA ASSESSOR PROMOTOR JUSTICA PIRANGA - COMARCA; PIRANGA-PJ-UNPJ 0,00 0,00 7.187,72 0,00 0,00 0,00 0,00 2.319,39 9.507,11 751,99 1.150,83 0,00 0,00 1.902,82 7.604,29 31/01/2021
1016 255500 FERNANDA SIMOES LOPES MENDES ANALISTA DO MP BELO HORIZONTE - COMARCA; BH-17PJ PATRIMONIO PUBLICO-SECRETARIA 18.103,37 5.431,01 0,00 0,00 7.844,79 0,00 0,00 1.550,00 32.929,17 3.577,78 6.671,75 0,00 0,00 10.249,53 22.679,64 31/01/2021
1017 481700 FERNANDA VIANA FROES DA SILVA OFICIAL DO MP GOVERNADOR VALADARES - COMARCA; GOVERNADOR VALADARES-PJ-09PJ 7.663,37 1.532,67 0,00 682,04 0,00 0,00 766,34 1.550,00 12.194,42 1.406,26 1.483,57 0,00 0,00 2.889,83 9.304,59 31/01/2021
1018 123900 FERNANDO ANTONIO FARIA DE ABREU DIRETOR/ANALISTA BELO HORIZONTE - COMARCA; SUPERINTENDÊNCIA DE ENGENHARIA E ARQUITETURA 26.471,31 23.824,17 4.875,89 0,00 0,00 5.486,23 520,11 7.223,96 68.401,67 5.486,23 8.882,75 19.709,15 0,00 34.078,13 34.323,54 31/01/2021
1019 416900 FERNANDO APARECIDO DA SILVA ANALISTA DO MP BOM DESPACHO - COMARCA; BOM DESPACHO-PJ-02PJ 12.601,30 8.820,91 0,00 0,00 7.140,74 0,00 549,84 7.548,22 36.661,01 3.239,83 5.990,22 0,00 0,00 9.230,05 27.430,96 31/01/2021
1020 500100 FERNANDO CEZAR PINTO OFICIAL DO MP SANTA LUZIA - COMARCA; SANTA LUZIA-PJ-04PJ 7.663,37 766,34 0,00 0,00 0,00 0,00 525,45 7.282,20 16.237,36 1.161,03 1.077,39 0,00 0,00 2.238,42 13.998,94 31/01/2021
1021 346100 FERNANDO EUSTAQUIO CAMPOS UTSCH MOREIRA ANALISTA DO MP BELO HORIZONTE - COMARCA; DIRETORIA DE SISTEMAS DE INFORMACAO 15.272,02 3.054,40 0,00 0,00 0,00 0,00 537,57 7.414,45 26.278,44 2.744,50 3.311,39 0,00 0,00 6.055,89 20.222,55 31/01/2021
1022 103500 FERNANDO LUIZ DA SILVA JUNIOR OFICIAL DO MP BELO HORIZONTE - COMARCA; DIVISAO DE ATENDIMENTO E CONSULTA JURIDICA 18.820,14 9.410,07 0,00 0,00 0,00 0,00 0,00 1.550,00 29.780,21 4.329,11 5.703,44 0,00 0,00 10.032,55 19.747,66 31/01/2021
1023 287300 FERNANDO MARCIO ALVES MARTINS OFICIAL DO MP LEOPOLDINA - COMARCA; LEOPOLDINA-PJ-01PJ 8.579,10 2.573,73 0,00 0,00 0,00 0,00 531,62 7.349,47 19.033,92 1.596,73 1.602,16 0,00 0,00 3.198,89 15.835,03 31/01/2021
1024 262200 FERNANDO MARCIO RESENDE PEREIRA OFICIAL DO MP BELO HORIZONTE - COMARCA; DIR ESTRUTURA E PROCESSOS ORGANIZACIONAIS 10.069,62 3.020,89 0,00 0,00 0,00 1.906,76 0,00 1.550,00 16.547,27 1.906,76 2.730,53 0,00 0,00 4.637,29 11.909,98 31/01/2021
1025 472900 FERNANDO RODRIGUES DE FREITAS ANALISTA DO MP BELO HORIZONTE - COMARCA; BH-15PJ M AMB PAT HIST CULT-ASS TECNICA 10.069,62 2.013,92 0,00 896,19 335,65 0,00 896,19 1.550,00 15.761,57 1.745,64 1.973,56 0,00 0,00 3.719,20 12.042,37 31/01/2021
1026 421400 FERNANDO TEODORO MACIEL ANALISTA DO MP SANTA VITÓRIA - COMARCA; SANTA VITORIA-PJ-UNPJ 11.085,56 2.217,11 0,00 0,00 0,00 0,00 536,54 8.172,56 22.011,77 1.940,70 2.150,91 0,00 0,00 4.091,61 17.920,16 31/01/2021
1027 446300 FERNANDO VITOR DE OLIVEIRA ANALISTA DO MP MONTES CLAROS - COMARCA; COORD REG BACIA RIOS VERDE GRANDE E PARDO 12.601,30 2.520,26 0,00 0,00 5.040,52 0,00 0,00 1.550,00 21.712,08 2.231,73 4.061,49 0,00 0,00 6.293,22 15.418,86 31/01/2021
1028 639300 FILIPE ALMEIDA RODRIGUES ANALISTA DO MP TIMÓTEO - COMARCA; TIMOTEO-PJ-04PJ 8.170,49 817,05 0,00 0,00 0,00 0,00 527,27 7.302,03 16.816,84 1.250,28 1.258,39 0,00 0,00 2.508,67 14.308,17 31/01/2021
1029 692600 FILIPPE WAGNER MAGALHAES ALAMY REIS ASSESSOR PROCURADOR JUSTICA BELO HORIZONTE - COMARCA; GABINETE DE PROCURADOR DE JUSTIÇA - SALA 604 0,00 0,00 7.187,72 0,00 0,00 0,00 0,00 1.550,00 8.737,72 751,99 1.202,97 0,00 0,00 1.954,96 6.782,76 31/01/2021
1030 398400 FLAVIA ALVARES GUIMARAES COORDENADOR/OFICIAL BELO HORIZONTE - COMARCA; CGMP-DIVIS DE APOIO FISC ORIENTACAO FUNCIONAL 0,00 2.363,83 11.819,15 0,00 4.727,66 0,00 520,04 7.223,19 26.653,87 1.459,46 3.851,70 0,00 94,10 5.405,26 21.248,61 31/01/2021
1031 398200 FLAVIA ALVES DE ASSUNCAO RODRIGUES ANALISTA DO MP DIVINÓPOLIS - COMARCA; COORD REG DO MA DA BACIA DO ALTO SAO FRANC 12.601,30 2.520,26 0,00 0,00 0,00 0,00 499,01 7.763,15 23.383,72 2.231,73 2.623,21 0,00 0,00 4.854,94 18.528,78 31/01/2021
1032 318500 FLAVIA BEATRIZ NUNES CRUZ VIEIRA ANALISTA DO MP BARBACENA - COMARCA; BARBACENA-PJ-SECRETARIA 16.750,82 5.025,25 0,00 0,00 0,00 0,00 0,00 1.550,00 23.326,07 3.296,45 4.108,26 0,00 0,00 7.404,71 15.921,36 31/01/2021
1033 496500 FLAVIA CARAM BORLIDO ANALISTA DO MP BELO HORIZONTE - COMARCA; DIRETORIA GESTAO CONTRATOS CONVENIOS 12.204,02 1.220,40 0,00 0,00 0,00 0,00 0,00 1.550,00 14.974,42 1.960,18 2.283,31 0,00 0,00 4.243,49 10.730,93 31/01/2021
1034 534800 FLAVIA CONDE SOARES ANALISTA DO MP BELO HORIZONTE - COMARCA; BH-13PJ JUÍZO DE TÓXICOS-ASSESSORIA JURIDICA 9.146,93 914,69 0,00 0,00 0,00 0,00 0,00 1.550,00 11.611,62 1.422,14 1.506,50 0,00 0,00 2.928,64 8.682,98 31/01/2021
1035 219500 FLAVIA CRISTINA ANCELMO OFICIAL DO MP BELO HORIZONTE - COMARCA; CAO-DH CONT EXT ATIV POLIC E AP COMUNIT 10.069,62 3.020,89 0,00 0,00 0,00 0,00 527,98 7.309,82 20.928,31 1.906,76 2.206,17 0,00 0,00 4.112,93 16.815,38 31/01/2021
1036 329600 FLAVIA CRISTINA DE MATOS XAVIER ANALISTA DO MP UBERABA - COMARCA; UBERABA-PJ-15PJ 16.750,82 5.025,25 0,00 0,00 0,00 0,00 479,07 6.776,26 29.031,40 3.296,45 4.108,26 0,00 0,00 7.404,71 21.626,69 31/01/2021
1037 207600 FLAVIA DE ANDRADE MANCINI ANALISTA DO MP BELO HORIZONTE - COMARCA; ASSESSORIA JURIDICO-ADMINISTRATIVA 18.820,14 7.528,06 0,00 0,00 0,00 0,00 483,05 6.819,64 33.650,89 4.027,99 5.112,29 0,00 0,00 9.140,28 24.510,61 31/01/2021
1038 402801 FLAVIA MARIA DE RESENDE NASCIMENTO ANALISTA DO MP SÃO JOÃO DEL REI - COMARCA; SAO JOAO DEL REI-PJ-04PJ 10.069,62 1.006,96 0,00 0,00 0,00 0,00 527,98 8.079,21 19.683,77 1.584,53 1.740,95 0,00 0,00 3.325,48 16.358,29 31/01/2021
1039 437500 FLAVIA MARIA TORRES MARCHETTI ANALISTA DO MP BELO HORIZONTE - COMARCA; BH-18PJ VIOLENCIA DOMESTICA-SECRETARIA 11.085,56 2.217,11 0,00 0,00 0,00 0,00 536,54 7.403,17 21.242,38 1.940,70 2.150,91 0,00 0,00 4.091,61 17.150,77 31/01/2021
1040 386000 FLAVIA NEVES BRIGIDO ASSESSOR/OFICIAL BELO HORIZONTE - COMARCA; PROMOT ESTADUAL DE DEF PATRI CULT E TUR DE MG 0,00 2.079,50 10.397,52 0,00 0,00 0,00 548,99 8.308,36 21.334,37 1.459,46 2.134,59 0,00 94,10 3.688,15 17.646,22 31/01/2021
1041 488600 FLAVIA PEREIRA COSTA ANALISTA DO MP BELO HORIZONTE - COMARCA; CENTRAL DE APOIO TECNICO 10.069,62 1.006,96 0,00 0,00 0,00 0,00 0,00 2.319,39 13.395,97 1.584,53 1.740,95 0,00 0,00 3.325,48 10.070,49 31/01/2021
1042 365400 FLAVIA PEREIRA DA SILVA AMARAL OFICIAL DO MP BELO HORIZONTE - COMARCA; BH-15PJ M AMB PAT HIST CULT-GAB 115PJ 9.752,14 1.950,43 0,00 0,00 0,00 0,00 514,91 7.167,23 19.384,71 1.684,69 1.885,56 0,00 0,00 3.570,25 15.814,46 31/01/2021
1043 515400 FLAVIA RODRIGUES DE OLIVEIRA E SILVA PAIVA ANALISTA DO MP CARATINGA - COMARCA; CARATINGA-PJ-05PJ 10.069,62 1.006,96 0,00 0,00 3.692,19 0,00 527,98 7.309,82 22.606,57 1.584,53 2.599,89 0,00 0,00 4.184,42 18.422,15 31/01/2021
1044 621600 FLAVIA SARMENTO RODRIGUES ANALISTA DO MP BELO HORIZONTE - COMARCA; DIV FISCAL ADM CONT TERCEIRIZACAO 8.436,53 843,65 0,00